<?xml version="1.0" encoding="UTF-8" standalone="no" ?>
<gpx xmlns="http://www.topografix.com/GPX/1/1" xmlns:xsi="http://www.w3.org/2001/XMLSchema-instance" xsi:schemaLocation="http://www.topografix.com/GPX/1/1 http://www.topografix.com/GPX/1/1/gpx.xsd" version="1.1" creator="VisuGPX - https://www.visugpx.com">
  <metadata>
    <name>26 OCT 2019 08:58</name>
    <desc><![CDATA[sortie une nouvelle fois très ensoleillé!!!]]></desc>
  </metadata>
  <trk>
    <name><![CDATA[Tracé actuel: 26 OCT 2019 08:58]]></name>
    <trkseg>
      <trkpt lat="43.40474" lon="-0.56692">
        <ele>129.43</ele>
        <time>2019-10-26T06:58:08Z</time>
      </trkpt>
      <trkpt lat="43.40485" lon="-0.56678">
        <ele>130.88</ele>
        <time>2019-10-26T06:58:31Z</time>
      </trkpt>
      <trkpt lat="43.40483" lon="-0.56676">
        <ele>133.76</ele>
        <time>2019-10-26T06:58:51Z</time>
      </trkpt>
      <trkpt lat="43.40483" lon="-0.56677">
        <ele>133.28</ele>
        <time>2019-10-26T06:59:07Z</time>
      </trkpt>
      <trkpt lat="43.40483" lon="-0.56675">
        <ele>132.8</ele>
        <time>2019-10-26T06:59:27Z</time>
      </trkpt>
      <trkpt lat="43.40479" lon="-0.56682">
        <ele>134.72</ele>
        <time>2019-10-26T06:59:35Z</time>
      </trkpt>
      <trkpt lat="43.40483" lon="-0.56676">
        <ele>135.68</ele>
        <time>2019-10-26T06:59:46Z</time>
      </trkpt>
      <trkpt lat="43.40484" lon="-0.56675">
        <ele>134.72</ele>
        <time>2019-10-26T07:00:19Z</time>
      </trkpt>
      <trkpt lat="43.40483" lon="-0.56674">
        <ele>133.28</ele>
        <time>2019-10-26T07:00:59Z</time>
      </trkpt>
      <trkpt lat="43.40484" lon="-0.56673">
        <ele>138.57</ele>
        <time>2019-10-26T07:01:40Z</time>
      </trkpt>
      <trkpt lat="43.40484" lon="-0.56676">
        <ele>134.72</ele>
        <time>2019-10-26T07:02:16Z</time>
      </trkpt>
      <trkpt lat="43.40484" lon="-0.56675">
        <ele>138.09</ele>
        <time>2019-10-26T07:02:44Z</time>
      </trkpt>
      <trkpt lat="43.40484" lon="-0.56675">
        <ele>140.01</ele>
        <time>2019-10-26T07:03:09Z</time>
      </trkpt>
      <trkpt lat="43.40479" lon="-0.56673">
        <ele>138.57</ele>
        <time>2019-10-26T07:03:45Z</time>
      </trkpt>
      <trkpt lat="43.4048" lon="-0.56673">
        <ele>136.16</ele>
        <time>2019-10-26T07:04:04Z</time>
      </trkpt>
      <trkpt lat="43.40481" lon="-0.56674">
        <ele>134.24</ele>
        <time>2019-10-26T07:04:27Z</time>
      </trkpt>
      <trkpt lat="43.40482" lon="-0.56673">
        <ele>133.28</ele>
        <time>2019-10-26T07:04:52Z</time>
      </trkpt>
      <trkpt lat="43.4048" lon="-0.56673">
        <ele>134.72</ele>
        <time>2019-10-26T07:05:24Z</time>
      </trkpt>
      <trkpt lat="43.4048" lon="-0.56673">
        <ele>134.24</ele>
        <time>2019-10-26T07:05:55Z</time>
      </trkpt>
      <trkpt lat="43.4048" lon="-0.56672">
        <ele>138.57</ele>
        <time>2019-10-26T07:06:27Z</time>
      </trkpt>
      <trkpt lat="43.40478" lon="-0.56675">
        <ele>137.61</ele>
        <time>2019-10-26T07:06:37Z</time>
      </trkpt>
      <trkpt lat="43.40454" lon="-0.56686">
        <ele>136.64</ele>
        <time>2019-10-26T07:06:48Z</time>
      </trkpt>
      <trkpt lat="43.40445" lon="-0.56682">
        <ele>136.64</ele>
        <time>2019-10-26T07:06:52Z</time>
      </trkpt>
      <trkpt lat="43.40443" lon="-0.56679">
        <ele>136.64</ele>
        <time>2019-10-26T07:06:53Z</time>
      </trkpt>
      <trkpt lat="43.40441" lon="-0.56673">
        <ele>136.64</ele>
        <time>2019-10-26T07:06:54Z</time>
      </trkpt>
      <trkpt lat="43.4044" lon="-0.56668">
        <ele>136.64</ele>
        <time>2019-10-26T07:06:55Z</time>
      </trkpt>
      <trkpt lat="43.40439" lon="-0.56663">
        <ele>136.64</ele>
        <time>2019-10-26T07:06:56Z</time>
      </trkpt>
      <trkpt lat="43.40419" lon="-0.56596">
        <ele>135.2</ele>
        <time>2019-10-26T07:07:12Z</time>
      </trkpt>
      <trkpt lat="43.40371" lon="-0.56538">
        <ele>135.2</ele>
        <time>2019-10-26T07:07:27Z</time>
      </trkpt>
      <trkpt lat="43.40355" lon="-0.56517">
        <ele>135.2</ele>
        <time>2019-10-26T07:07:32Z</time>
      </trkpt>
      <trkpt lat="43.40305" lon="-0.56438">
        <ele>135.2</ele>
        <time>2019-10-26T07:07:50Z</time>
      </trkpt>
      <trkpt lat="43.40285" lon="-0.56392">
        <ele>135.2</ele>
        <time>2019-10-26T07:07:59Z</time>
      </trkpt>
      <trkpt lat="43.4026" lon="-0.56348">
        <ele>135.68</ele>
        <time>2019-10-26T07:08:10Z</time>
      </trkpt>
      <trkpt lat="43.40256" lon="-0.56348">
        <ele>135.68</ele>
        <time>2019-10-26T07:08:11Z</time>
      </trkpt>
      <trkpt lat="43.40252" lon="-0.5635">
        <ele>136.16</ele>
        <time>2019-10-26T07:08:12Z</time>
      </trkpt>
      <trkpt lat="43.40249" lon="-0.56352">
        <ele>136.16</ele>
        <time>2019-10-26T07:08:13Z</time>
      </trkpt>
      <trkpt lat="43.40247" lon="-0.56355">
        <ele>136.16</ele>
        <time>2019-10-26T07:08:14Z</time>
      </trkpt>
      <trkpt lat="43.40244" lon="-0.56359">
        <ele>136.16</ele>
        <time>2019-10-26T07:08:15Z</time>
      </trkpt>
      <trkpt lat="43.40231" lon="-0.56379">
        <ele>136.64</ele>
        <time>2019-10-26T07:08:20Z</time>
      </trkpt>
      <trkpt lat="43.40224" lon="-0.56394">
        <ele>136.16</ele>
        <time>2019-10-26T07:08:23Z</time>
      </trkpt>
      <trkpt lat="43.40215" lon="-0.5641">
        <ele>135.68</ele>
        <time>2019-10-26T07:08:26Z</time>
      </trkpt>
      <trkpt lat="43.40166" lon="-0.56482">
        <ele>136.64</ele>
        <time>2019-10-26T07:08:42Z</time>
      </trkpt>
      <trkpt lat="43.40134" lon="-0.56518">
        <ele>136.64</ele>
        <time>2019-10-26T07:08:51Z</time>
      </trkpt>
      <trkpt lat="43.4013" lon="-0.5652">
        <ele>136.64</ele>
        <time>2019-10-26T07:08:52Z</time>
      </trkpt>
      <trkpt lat="43.40126" lon="-0.56519">
        <ele>136.64</ele>
        <time>2019-10-26T07:08:53Z</time>
      </trkpt>
      <trkpt lat="43.40123" lon="-0.56516">
        <ele>136.64</ele>
        <time>2019-10-26T07:08:54Z</time>
      </trkpt>
      <trkpt lat="43.40121" lon="-0.56512">
        <ele>136.16</ele>
        <time>2019-10-26T07:08:55Z</time>
      </trkpt>
      <trkpt lat="43.40118" lon="-0.56507">
        <ele>136.16</ele>
        <time>2019-10-26T07:08:56Z</time>
      </trkpt>
      <trkpt lat="43.40075" lon="-0.56422">
        <ele>136.16</ele>
        <time>2019-10-26T07:09:12Z</time>
      </trkpt>
      <trkpt lat="43.40057" lon="-0.56387">
        <ele>136.64</ele>
        <time>2019-10-26T07:09:20Z</time>
      </trkpt>
      <trkpt lat="43.40053" lon="-0.56385">
        <ele>136.64</ele>
        <time>2019-10-26T07:09:21Z</time>
      </trkpt>
      <trkpt lat="43.40019" lon="-0.5638">
        <ele>137.13</ele>
        <time>2019-10-26T07:09:32Z</time>
      </trkpt>
      <trkpt lat="43.40018" lon="-0.56379">
        <ele>137.13</ele>
        <time>2019-10-26T07:09:33Z</time>
      </trkpt>
      <trkpt lat="43.40017" lon="-0.56378">
        <ele>137.61</ele>
        <time>2019-10-26T07:09:34Z</time>
      </trkpt>
      <trkpt lat="43.40016" lon="-0.56376">
        <ele>137.61</ele>
        <time>2019-10-26T07:09:35Z</time>
      </trkpt>
      <trkpt lat="43.40014" lon="-0.56373">
        <ele>138.09</ele>
        <time>2019-10-26T07:09:36Z</time>
      </trkpt>
      <trkpt lat="43.40014" lon="-0.56369">
        <ele>138.09</ele>
        <time>2019-10-26T07:09:37Z</time>
      </trkpt>
      <trkpt lat="43.40013" lon="-0.56365">
        <ele>137.61</ele>
        <time>2019-10-26T07:09:38Z</time>
      </trkpt>
      <trkpt lat="43.40013" lon="-0.56361">
        <ele>137.61</ele>
        <time>2019-10-26T07:09:39Z</time>
      </trkpt>
      <trkpt lat="43.40014" lon="-0.56356">
        <ele>137.61</ele>
        <time>2019-10-26T07:09:40Z</time>
      </trkpt>
      <trkpt lat="43.40014" lon="-0.5635">
        <ele>137.61</ele>
        <time>2019-10-26T07:09:41Z</time>
      </trkpt>
      <trkpt lat="43.40025" lon="-0.56246">
        <ele>138.09</ele>
        <time>2019-10-26T07:09:57Z</time>
      </trkpt>
      <trkpt lat="43.40041" lon="-0.56106">
        <ele>137.61</ele>
        <time>2019-10-26T07:10:17Z</time>
      </trkpt>
      <trkpt lat="43.40056" lon="-0.55966">
        <ele>138.09</ele>
        <time>2019-10-26T07:10:36Z</time>
      </trkpt>
      <trkpt lat="43.40056" lon="-0.55958">
        <ele>138.09</ele>
        <time>2019-10-26T07:10:37Z</time>
      </trkpt>
      <trkpt lat="43.40064" lon="-0.55891">
        <ele>138.09</ele>
        <time>2019-10-26T07:10:48Z</time>
      </trkpt>
      <trkpt lat="43.40064" lon="-0.55885">
        <ele>138.09</ele>
        <time>2019-10-26T07:10:49Z</time>
      </trkpt>
      <trkpt lat="43.40076" lon="-0.55775">
        <ele>138.09</ele>
        <time>2019-10-26T07:11:06Z</time>
      </trkpt>
      <trkpt lat="43.40077" lon="-0.55768">
        <ele>138.09</ele>
        <time>2019-10-26T07:11:07Z</time>
      </trkpt>
      <trkpt lat="43.4008" lon="-0.55754">
        <ele>138.09</ele>
        <time>2019-10-26T07:11:09Z</time>
      </trkpt>
      <trkpt lat="43.40081" lon="-0.55747">
        <ele>138.09</ele>
        <time>2019-10-26T07:11:10Z</time>
      </trkpt>
      <trkpt lat="43.40093" lon="-0.55636">
        <ele>140.01</ele>
        <time>2019-10-26T07:11:26Z</time>
      </trkpt>
      <trkpt lat="43.40112" lon="-0.55515">
        <ele>142.89</ele>
        <time>2019-10-26T07:11:44Z</time>
      </trkpt>
      <trkpt lat="43.40133" lon="-0.55401">
        <ele>145.3</ele>
        <time>2019-10-26T07:12:01Z</time>
      </trkpt>
      <trkpt lat="43.40154" lon="-0.5529">
        <ele>146.26</ele>
        <time>2019-10-26T07:12:18Z</time>
      </trkpt>
      <trkpt lat="43.40179" lon="-0.55149">
        <ele>143.37</ele>
        <time>2019-10-26T07:12:34Z</time>
      </trkpt>
      <trkpt lat="43.40224" lon="-0.54975">
        <ele>139.05</ele>
        <time>2019-10-26T07:12:55Z</time>
      </trkpt>
      <trkpt lat="43.40265" lon="-0.54855">
        <ele>139.05</ele>
        <time>2019-10-26T07:13:12Z</time>
      </trkpt>
      <trkpt lat="43.40311" lon="-0.54725">
        <ele>140.97</ele>
        <time>2019-10-26T07:13:31Z</time>
      </trkpt>
      <trkpt lat="43.40354" lon="-0.54601">
        <ele>143.37</ele>
        <time>2019-10-26T07:13:50Z</time>
      </trkpt>
      <trkpt lat="43.40362" lon="-0.54583">
        <ele>143.37</ele>
        <time>2019-10-26T07:13:53Z</time>
      </trkpt>
      <trkpt lat="43.4042" lon="-0.54486">
        <ele>145.3</ele>
        <time>2019-10-26T07:14:10Z</time>
      </trkpt>
      <trkpt lat="43.40446" lon="-0.54396">
        <ele>146.74</ele>
        <time>2019-10-26T07:14:23Z</time>
      </trkpt>
      <trkpt lat="43.40469" lon="-0.54274">
        <ele>148.66</ele>
        <time>2019-10-26T07:14:41Z</time>
      </trkpt>
      <trkpt lat="43.40494" lon="-0.54166">
        <ele>151.54</ele>
        <time>2019-10-26T07:14:58Z</time>
      </trkpt>
      <trkpt lat="43.40526" lon="-0.54015">
        <ele>152.51</ele>
        <time>2019-10-26T07:15:22Z</time>
      </trkpt>
      <trkpt lat="43.40548" lon="-0.53884">
        <ele>152.99</ele>
        <time>2019-10-26T07:15:39Z</time>
      </trkpt>
      <trkpt lat="43.40552" lon="-0.53865">
        <ele>152.99</ele>
        <time>2019-10-26T07:15:42Z</time>
      </trkpt>
      <trkpt lat="43.40551" lon="-0.5386">
        <ele>152.99</ele>
        <time>2019-10-26T07:15:43Z</time>
      </trkpt>
      <trkpt lat="43.40548" lon="-0.53855">
        <ele>152.51</ele>
        <time>2019-10-26T07:15:44Z</time>
      </trkpt>
      <trkpt lat="43.40543" lon="-0.53853">
        <ele>152.51</ele>
        <time>2019-10-26T07:15:45Z</time>
      </trkpt>
      <trkpt lat="43.40539" lon="-0.53852">
        <ele>152.51</ele>
        <time>2019-10-26T07:15:46Z</time>
      </trkpt>
      <trkpt lat="43.40534" lon="-0.53852">
        <ele>152.03</ele>
        <time>2019-10-26T07:15:47Z</time>
      </trkpt>
      <trkpt lat="43.40529" lon="-0.53851">
        <ele>152.03</ele>
        <time>2019-10-26T07:15:48Z</time>
      </trkpt>
      <trkpt lat="43.40524" lon="-0.5385">
        <ele>152.03</ele>
        <time>2019-10-26T07:15:49Z</time>
      </trkpt>
      <trkpt lat="43.40501" lon="-0.53847">
        <ele>152.03</ele>
        <time>2019-10-26T07:15:54Z</time>
      </trkpt>
      <trkpt lat="43.40497" lon="-0.53847">
        <ele>152.03</ele>
        <time>2019-10-26T07:15:55Z</time>
      </trkpt>
      <trkpt lat="43.40488" lon="-0.53847">
        <ele>152.03</ele>
        <time>2019-10-26T07:15:57Z</time>
      </trkpt>
      <trkpt lat="43.40416" lon="-0.5385">
        <ele>153.95</ele>
        <time>2019-10-26T07:16:12Z</time>
      </trkpt>
      <trkpt lat="43.40411" lon="-0.53852">
        <ele>153.95</ele>
        <time>2019-10-26T07:16:13Z</time>
      </trkpt>
      <trkpt lat="43.40321" lon="-0.53878">
        <ele>152.03</ele>
        <time>2019-10-26T07:16:28Z</time>
      </trkpt>
      <trkpt lat="43.40267" lon="-0.53898">
        <ele>152.99</ele>
        <time>2019-10-26T07:16:39Z</time>
      </trkpt>
      <trkpt lat="43.40253" lon="-0.539">
        <ele>152.99</ele>
        <time>2019-10-26T07:16:42Z</time>
      </trkpt>
      <trkpt lat="43.40187" lon="-0.53889">
        <ele>154.43</ele>
        <time>2019-10-26T07:16:57Z</time>
      </trkpt>
      <trkpt lat="43.40172" lon="-0.53889">
        <ele>153.47</ele>
        <time>2019-10-26T07:17:00Z</time>
      </trkpt>
      <trkpt lat="43.40168" lon="-0.53887">
        <ele>153.47</ele>
        <time>2019-10-26T07:17:01Z</time>
      </trkpt>
      <trkpt lat="43.40164" lon="-0.53882">
        <ele>153.95</ele>
        <time>2019-10-26T07:17:02Z</time>
      </trkpt>
      <trkpt lat="43.40163" lon="-0.53877">
        <ele>153.95</ele>
        <time>2019-10-26T07:17:03Z</time>
      </trkpt>
      <trkpt lat="43.40163" lon="-0.5387">
        <ele>154.91</ele>
        <time>2019-10-26T07:17:04Z</time>
      </trkpt>
      <trkpt lat="43.40163" lon="-0.53868">
        <ele>154.91</ele>
        <time>2019-10-26T07:17:05Z</time>
      </trkpt>
      <trkpt lat="43.40174" lon="-0.53813">
        <ele>159.24</ele>
        <time>2019-10-26T07:17:21Z</time>
      </trkpt>
      <trkpt lat="43.40181" lon="-0.53756">
        <ele>163.56</ele>
        <time>2019-10-26T07:17:40Z</time>
      </trkpt>
      <trkpt lat="43.4019" lon="-0.53718">
        <ele>167.89</ele>
        <time>2019-10-26T07:17:56Z</time>
      </trkpt>
      <trkpt lat="43.40205" lon="-0.53688">
        <ele>171.73</ele>
        <time>2019-10-26T07:18:12Z</time>
      </trkpt>
      <trkpt lat="43.40209" lon="-0.5368">
        <ele>173.17</ele>
        <time>2019-10-26T07:18:16Z</time>
      </trkpt>
      <trkpt lat="43.40211" lon="-0.53642">
        <ele>178.46</ele>
        <time>2019-10-26T07:18:33Z</time>
      </trkpt>
      <trkpt lat="43.40204" lon="-0.53611">
        <ele>180.87</ele>
        <time>2019-10-26T07:18:48Z</time>
      </trkpt>
      <trkpt lat="43.40198" lon="-0.53575">
        <ele>183.75</ele>
        <time>2019-10-26T07:19:05Z</time>
      </trkpt>
      <trkpt lat="43.40198" lon="-0.53563">
        <ele>184.23</ele>
        <time>2019-10-26T07:19:11Z</time>
      </trkpt>
      <trkpt lat="43.40199" lon="-0.53562">
        <ele>184.23</ele>
        <time>2019-10-26T07:19:12Z</time>
      </trkpt>
      <trkpt lat="43.402" lon="-0.53561">
        <ele>184.71</ele>
        <time>2019-10-26T07:19:13Z</time>
      </trkpt>
      <trkpt lat="43.40201" lon="-0.53561">
        <ele>185.19</ele>
        <time>2019-10-26T07:19:14Z</time>
      </trkpt>
      <trkpt lat="43.40202" lon="-0.53562">
        <ele>185.67</ele>
        <time>2019-10-26T07:19:15Z</time>
      </trkpt>
      <trkpt lat="43.40204" lon="-0.53563">
        <ele>186.15</ele>
        <time>2019-10-26T07:19:16Z</time>
      </trkpt>
      <trkpt lat="43.40226" lon="-0.53581">
        <ele>188.08</ele>
        <time>2019-10-26T07:19:32Z</time>
      </trkpt>
      <trkpt lat="43.40244" lon="-0.53598">
        <ele>192.4</ele>
        <time>2019-10-26T07:19:48Z</time>
      </trkpt>
      <trkpt lat="43.4026" lon="-0.53608">
        <ele>196.25</ele>
        <time>2019-10-26T07:20:02Z</time>
      </trkpt>
      <trkpt lat="43.40281" lon="-0.53629">
        <ele>199.13</ele>
        <time>2019-10-26T07:20:15Z</time>
      </trkpt>
      <trkpt lat="43.40293" lon="-0.53635">
        <ele>200.09</ele>
        <time>2019-10-26T07:20:21Z</time>
      </trkpt>
      <trkpt lat="43.40302" lon="-0.53634">
        <ele>200.09</ele>
        <time>2019-10-26T07:20:35Z</time>
      </trkpt>
      <trkpt lat="43.40327" lon="-0.53616">
        <ele>200.57</ele>
        <time>2019-10-26T07:20:48Z</time>
      </trkpt>
      <trkpt lat="43.40353" lon="-0.53598">
        <ele>202.01</ele>
        <time>2019-10-26T07:20:58Z</time>
      </trkpt>
      <trkpt lat="43.40374" lon="-0.53565">
        <ele>202.98</ele>
        <time>2019-10-26T07:21:07Z</time>
      </trkpt>
      <trkpt lat="43.40377" lon="-0.53553">
        <ele>202.98</ele>
        <time>2019-10-26T07:21:09Z</time>
      </trkpt>
      <trkpt lat="43.40376" lon="-0.53514">
        <ele>202.49</ele>
        <time>2019-10-26T07:21:19Z</time>
      </trkpt>
      <trkpt lat="43.40379" lon="-0.53482">
        <ele>200.57</ele>
        <time>2019-10-26T07:21:26Z</time>
      </trkpt>
      <trkpt lat="43.40379" lon="-0.53475">
        <ele>200.09</ele>
        <time>2019-10-26T07:21:27Z</time>
      </trkpt>
      <trkpt lat="43.4038" lon="-0.53468">
        <ele>199.61</ele>
        <time>2019-10-26T07:21:28Z</time>
      </trkpt>
      <trkpt lat="43.40379" lon="-0.53461">
        <ele>199.13</ele>
        <time>2019-10-26T07:21:29Z</time>
      </trkpt>
      <trkpt lat="43.40378" lon="-0.53455">
        <ele>198.17</ele>
        <time>2019-10-26T07:21:30Z</time>
      </trkpt>
      <trkpt lat="43.40377" lon="-0.53446">
        <ele>197.69</ele>
        <time>2019-10-26T07:21:31Z</time>
      </trkpt>
      <trkpt lat="43.40374" lon="-0.53421">
        <ele>194.8</ele>
        <time>2019-10-26T07:21:34Z</time>
      </trkpt>
      <trkpt lat="43.40374" lon="-0.53413">
        <ele>194.32</ele>
        <time>2019-10-26T07:21:35Z</time>
      </trkpt>
      <trkpt lat="43.40375" lon="-0.53404">
        <ele>193.84</ele>
        <time>2019-10-26T07:21:36Z</time>
      </trkpt>
      <trkpt lat="43.40377" lon="-0.53396">
        <ele>193.36</ele>
        <time>2019-10-26T07:21:37Z</time>
      </trkpt>
      <trkpt lat="43.40379" lon="-0.53388">
        <ele>193.36</ele>
        <time>2019-10-26T07:21:38Z</time>
      </trkpt>
      <trkpt lat="43.40382" lon="-0.5338">
        <ele>193.84</ele>
        <time>2019-10-26T07:21:39Z</time>
      </trkpt>
      <trkpt lat="43.40385" lon="-0.53372">
        <ele>194.32</ele>
        <time>2019-10-26T07:21:40Z</time>
      </trkpt>
      <trkpt lat="43.40386" lon="-0.53366">
        <ele>194.32</ele>
        <time>2019-10-26T07:21:41Z</time>
      </trkpt>
      <trkpt lat="43.40388" lon="-0.53316">
        <ele>194.32</ele>
        <time>2019-10-26T07:21:48Z</time>
      </trkpt>
      <trkpt lat="43.40386" lon="-0.53308">
        <ele>193.84</ele>
        <time>2019-10-26T07:21:49Z</time>
      </trkpt>
      <trkpt lat="43.40384" lon="-0.53299">
        <ele>193.84</ele>
        <time>2019-10-26T07:21:50Z</time>
      </trkpt>
      <trkpt lat="43.40375" lon="-0.5326">
        <ele>191.92</ele>
        <time>2019-10-26T07:21:55Z</time>
      </trkpt>
      <trkpt lat="43.40373" lon="-0.53253">
        <ele>191.92</ele>
        <time>2019-10-26T07:21:56Z</time>
      </trkpt>
      <trkpt lat="43.40366" lon="-0.53229">
        <ele>191.44</ele>
        <time>2019-10-26T07:22:00Z</time>
      </trkpt>
      <trkpt lat="43.40364" lon="-0.53161">
        <ele>195.28</ele>
        <time>2019-10-26T07:22:12Z</time>
      </trkpt>
      <trkpt lat="43.40364" lon="-0.53118">
        <ele>198.65</ele>
        <time>2019-10-26T07:22:23Z</time>
      </trkpt>
      <trkpt lat="43.40353" lon="-0.53047">
        <ele>197.69</ele>
        <time>2019-10-26T07:22:35Z</time>
      </trkpt>
      <trkpt lat="43.40344" lon="-0.53019">
        <ele>195.77</ele>
        <time>2019-10-26T07:22:39Z</time>
      </trkpt>
      <trkpt lat="43.40342" lon="-0.53011">
        <ele>194.8</ele>
        <time>2019-10-26T07:22:40Z</time>
      </trkpt>
      <trkpt lat="43.40341" lon="-0.53003">
        <ele>193.84</ele>
        <time>2019-10-26T07:22:41Z</time>
      </trkpt>
      <trkpt lat="43.40333" lon="-0.52977">
        <ele>191.92</ele>
        <time>2019-10-26T07:22:44Z</time>
      </trkpt>
      <trkpt lat="43.40332" lon="-0.52968">
        <ele>190.96</ele>
        <time>2019-10-26T07:22:45Z</time>
      </trkpt>
      <trkpt lat="43.40331" lon="-0.52958">
        <ele>190</ele>
        <time>2019-10-26T07:22:46Z</time>
      </trkpt>
      <trkpt lat="43.40327" lon="-0.52917">
        <ele>186.15</ele>
        <time>2019-10-26T07:22:50Z</time>
      </trkpt>
      <trkpt lat="43.40328" lon="-0.52906">
        <ele>185.19</ele>
        <time>2019-10-26T07:22:51Z</time>
      </trkpt>
      <trkpt lat="43.4033" lon="-0.52895">
        <ele>184.71</ele>
        <time>2019-10-26T07:22:52Z</time>
      </trkpt>
      <trkpt lat="43.40333" lon="-0.52875">
        <ele>184.23</ele>
        <time>2019-10-26T07:22:54Z</time>
      </trkpt>
      <trkpt lat="43.40333" lon="-0.52846">
        <ele>183.75</ele>
        <time>2019-10-26T07:22:57Z</time>
      </trkpt>
      <trkpt lat="43.40331" lon="-0.52779">
        <ele>183.75</ele>
        <time>2019-10-26T07:23:06Z</time>
      </trkpt>
      <trkpt lat="43.40331" lon="-0.52772">
        <ele>183.75</ele>
        <time>2019-10-26T07:23:07Z</time>
      </trkpt>
      <trkpt lat="43.40333" lon="-0.52767">
        <ele>184.23</ele>
        <time>2019-10-26T07:23:08Z</time>
      </trkpt>
      <trkpt lat="43.40335" lon="-0.52762">
        <ele>184.23</ele>
        <time>2019-10-26T07:23:09Z</time>
      </trkpt>
      <trkpt lat="43.40338" lon="-0.52759">
        <ele>184.23</ele>
        <time>2019-10-26T07:23:10Z</time>
      </trkpt>
      <trkpt lat="43.4034" lon="-0.52754">
        <ele>184.71</ele>
        <time>2019-10-26T07:23:11Z</time>
      </trkpt>
      <trkpt lat="43.40342" lon="-0.52748">
        <ele>184.71</ele>
        <time>2019-10-26T07:23:12Z</time>
      </trkpt>
      <trkpt lat="43.40343" lon="-0.52742">
        <ele>184.71</ele>
        <time>2019-10-26T07:23:13Z</time>
      </trkpt>
      <trkpt lat="43.40342" lon="-0.52736">
        <ele>185.19</ele>
        <time>2019-10-26T07:23:14Z</time>
      </trkpt>
      <trkpt lat="43.4034" lon="-0.52729">
        <ele>184.71</ele>
        <time>2019-10-26T07:23:15Z</time>
      </trkpt>
      <trkpt lat="43.40338" lon="-0.52723">
        <ele>184.23</ele>
        <time>2019-10-26T07:23:16Z</time>
      </trkpt>
      <trkpt lat="43.40337" lon="-0.52716">
        <ele>183.75</ele>
        <time>2019-10-26T07:23:17Z</time>
      </trkpt>
      <trkpt lat="43.40336" lon="-0.52708">
        <ele>182.79</ele>
        <time>2019-10-26T07:23:18Z</time>
      </trkpt>
      <trkpt lat="43.40339" lon="-0.52692">
        <ele>181.83</ele>
        <time>2019-10-26T07:23:20Z</time>
      </trkpt>
      <trkpt lat="43.40344" lon="-0.52674">
        <ele>180.38</ele>
        <time>2019-10-26T07:23:22Z</time>
      </trkpt>
      <trkpt lat="43.40345" lon="-0.52664">
        <ele>179.9</ele>
        <time>2019-10-26T07:23:23Z</time>
      </trkpt>
      <trkpt lat="43.40345" lon="-0.52655">
        <ele>179.42</ele>
        <time>2019-10-26T07:23:24Z</time>
      </trkpt>
      <trkpt lat="43.40344" lon="-0.52646">
        <ele>178.46</ele>
        <time>2019-10-26T07:23:25Z</time>
      </trkpt>
      <trkpt lat="43.40342" lon="-0.52637">
        <ele>177.98</ele>
        <time>2019-10-26T07:23:26Z</time>
      </trkpt>
      <trkpt lat="43.4034" lon="-0.52628">
        <ele>177.5</ele>
        <time>2019-10-26T07:23:27Z</time>
      </trkpt>
      <trkpt lat="43.40338" lon="-0.5262">
        <ele>177.02</ele>
        <time>2019-10-26T07:23:28Z</time>
      </trkpt>
      <trkpt lat="43.40336" lon="-0.52612">
        <ele>176.54</ele>
        <time>2019-10-26T07:23:29Z</time>
      </trkpt>
      <trkpt lat="43.40336" lon="-0.52605">
        <ele>176.06</ele>
        <time>2019-10-26T07:23:30Z</time>
      </trkpt>
      <trkpt lat="43.40335" lon="-0.52598">
        <ele>175.58</ele>
        <time>2019-10-26T07:23:31Z</time>
      </trkpt>
      <trkpt lat="43.40335" lon="-0.52592">
        <ele>175.58</ele>
        <time>2019-10-26T07:23:32Z</time>
      </trkpt>
      <trkpt lat="43.40335" lon="-0.52587">
        <ele>175.1</ele>
        <time>2019-10-26T07:23:33Z</time>
      </trkpt>
      <trkpt lat="43.40322" lon="-0.52541">
        <ele>172.69</ele>
        <time>2019-10-26T07:23:43Z</time>
      </trkpt>
      <trkpt lat="43.40321" lon="-0.52537">
        <ele>172.69</ele>
        <time>2019-10-26T07:23:44Z</time>
      </trkpt>
      <trkpt lat="43.4032" lon="-0.52525">
        <ele>174.62</ele>
        <time>2019-10-26T07:23:47Z</time>
      </trkpt>
      <trkpt lat="43.40319" lon="-0.52521">
        <ele>175.1</ele>
        <time>2019-10-26T07:23:48Z</time>
      </trkpt>
      <trkpt lat="43.40318" lon="-0.52519">
        <ele>175.58</ele>
        <time>2019-10-26T07:23:49Z</time>
      </trkpt>
      <trkpt lat="43.40316" lon="-0.52516">
        <ele>175.58</ele>
        <time>2019-10-26T07:23:50Z</time>
      </trkpt>
      <trkpt lat="43.40315" lon="-0.52513">
        <ele>176.06</ele>
        <time>2019-10-26T07:23:51Z</time>
      </trkpt>
      <trkpt lat="43.40302" lon="-0.52482">
        <ele>179.42</ele>
        <time>2019-10-26T07:24:01Z</time>
      </trkpt>
      <trkpt lat="43.403" lon="-0.5248">
        <ele>179.9</ele>
        <time>2019-10-26T07:24:02Z</time>
      </trkpt>
      <trkpt lat="43.40292" lon="-0.52468">
        <ele>183.27</ele>
        <time>2019-10-26T07:24:15Z</time>
      </trkpt>
      <trkpt lat="43.40287" lon="-0.52459">
        <ele>184.23</ele>
        <time>2019-10-26T07:24:27Z</time>
      </trkpt>
      <trkpt lat="43.40283" lon="-0.52452">
        <ele>186.15</ele>
        <time>2019-10-26T07:24:40Z</time>
      </trkpt>
      <trkpt lat="43.40279" lon="-0.52449">
        <ele>186.63</ele>
        <time>2019-10-26T07:24:45Z</time>
      </trkpt>
      <trkpt lat="43.40277" lon="-0.52445">
        <ele>186.63</ele>
        <time>2019-10-26T07:24:48Z</time>
      </trkpt>
      <trkpt lat="43.40277" lon="-0.5244">
        <ele>186.63</ele>
        <time>2019-10-26T07:24:51Z</time>
      </trkpt>
      <trkpt lat="43.40277" lon="-0.52436">
        <ele>187.11</ele>
        <time>2019-10-26T07:24:53Z</time>
      </trkpt>
      <trkpt lat="43.40267" lon="-0.52411">
        <ele>190.48</ele>
        <time>2019-10-26T07:25:06Z</time>
      </trkpt>
      <trkpt lat="43.40262" lon="-0.52405">
        <ele>192.4</ele>
        <time>2019-10-26T07:25:18Z</time>
      </trkpt>
      <trkpt lat="43.4026" lon="-0.52399">
        <ele>193.36</ele>
        <time>2019-10-26T07:25:32Z</time>
      </trkpt>
      <trkpt lat="43.40259" lon="-0.52397">
        <ele>192.88</ele>
        <time>2019-10-26T07:25:34Z</time>
      </trkpt>
      <trkpt lat="43.40257" lon="-0.52385">
        <ele>192.4</ele>
        <time>2019-10-26T07:25:40Z</time>
      </trkpt>
      <trkpt lat="43.40254" lon="-0.52376">
        <ele>191.44</ele>
        <time>2019-10-26T07:25:44Z</time>
      </trkpt>
      <trkpt lat="43.40251" lon="-0.5237">
        <ele>190.96</ele>
        <time>2019-10-26T07:25:47Z</time>
      </trkpt>
      <trkpt lat="43.40246" lon="-0.52364">
        <ele>190.48</ele>
        <time>2019-10-26T07:26:03Z</time>
      </trkpt>
      <trkpt lat="43.40234" lon="-0.52347">
        <ele>187.11</ele>
        <time>2019-10-26T07:26:17Z</time>
      </trkpt>
      <trkpt lat="43.40222" lon="-0.52337">
        <ele>182.79</ele>
        <time>2019-10-26T07:26:27Z</time>
      </trkpt>
      <trkpt lat="43.40216" lon="-0.52315">
        <ele>185.67</ele>
        <time>2019-10-26T07:26:38Z</time>
      </trkpt>
      <trkpt lat="43.40214" lon="-0.52307">
        <ele>186.63</ele>
        <time>2019-10-26T07:26:42Z</time>
      </trkpt>
      <trkpt lat="43.40214" lon="-0.52303">
        <ele>186.63</ele>
        <time>2019-10-26T07:26:44Z</time>
      </trkpt>
      <trkpt lat="43.40214" lon="-0.52299">
        <ele>187.11</ele>
        <time>2019-10-26T07:26:46Z</time>
      </trkpt>
      <trkpt lat="43.40203" lon="-0.52284">
        <ele>189.52</ele>
        <time>2019-10-26T07:26:58Z</time>
      </trkpt>
      <trkpt lat="43.402" lon="-0.52278">
        <ele>190.96</ele>
        <time>2019-10-26T07:27:04Z</time>
      </trkpt>
      <trkpt lat="43.4018" lon="-0.52269">
        <ele>194.32</ele>
        <time>2019-10-26T07:27:16Z</time>
      </trkpt>
      <trkpt lat="43.40173" lon="-0.52265">
        <ele>194.32</ele>
        <time>2019-10-26T07:27:21Z</time>
      </trkpt>
      <trkpt lat="43.40168" lon="-0.52259">
        <ele>195.77</ele>
        <time>2019-10-26T07:27:25Z</time>
      </trkpt>
      <trkpt lat="43.40161" lon="-0.52241">
        <ele>196.73</ele>
        <time>2019-10-26T07:27:34Z</time>
      </trkpt>
      <trkpt lat="43.40156" lon="-0.52226">
        <ele>196.73</ele>
        <time>2019-10-26T07:27:39Z</time>
      </trkpt>
      <trkpt lat="43.40143" lon="-0.52198">
        <ele>198.17</ele>
        <time>2019-10-26T07:27:52Z</time>
      </trkpt>
      <trkpt lat="43.40137" lon="-0.52187">
        <ele>198.65</ele>
        <time>2019-10-26T07:28:03Z</time>
      </trkpt>
      <trkpt lat="43.40135" lon="-0.52175">
        <ele>198.65</ele>
        <time>2019-10-26T07:28:14Z</time>
      </trkpt>
      <trkpt lat="43.40134" lon="-0.52173">
        <ele>198.17</ele>
        <time>2019-10-26T07:28:15Z</time>
      </trkpt>
      <trkpt lat="43.40127" lon="-0.52164">
        <ele>195.77</ele>
        <time>2019-10-26T07:28:21Z</time>
      </trkpt>
      <trkpt lat="43.40116" lon="-0.52148">
        <ele>197.21</ele>
        <time>2019-10-26T07:28:34Z</time>
      </trkpt>
      <trkpt lat="43.40098" lon="-0.52118">
        <ele>202.49</ele>
        <time>2019-10-26T07:28:47Z</time>
      </trkpt>
      <trkpt lat="43.40094" lon="-0.52111">
        <ele>202.98</ele>
        <time>2019-10-26T07:28:50Z</time>
      </trkpt>
      <trkpt lat="43.40082" lon="-0.52092">
        <ele>202.98</ele>
        <time>2019-10-26T07:29:02Z</time>
      </trkpt>
      <trkpt lat="43.40078" lon="-0.52089">
        <ele>207.78</ele>
        <time>2019-10-26T07:29:31Z</time>
      </trkpt>
      <trkpt lat="43.40071" lon="-0.52084">
        <ele>206.82</ele>
        <time>2019-10-26T07:29:42Z</time>
      </trkpt>
      <trkpt lat="43.40054" lon="-0.52069">
        <ele>207.78</ele>
        <time>2019-10-26T07:29:53Z</time>
      </trkpt>
      <trkpt lat="43.40037" lon="-0.52044">
        <ele>211.15</ele>
        <time>2019-10-26T07:30:05Z</time>
      </trkpt>
      <trkpt lat="43.40007" lon="-0.52033">
        <ele>207.78</ele>
        <time>2019-10-26T07:30:20Z</time>
      </trkpt>
      <trkpt lat="43.39984" lon="-0.52017">
        <ele>207.3</ele>
        <time>2019-10-26T07:30:37Z</time>
      </trkpt>
      <trkpt lat="43.39968" lon="-0.52005">
        <ele>209.7</ele>
        <time>2019-10-26T07:30:51Z</time>
      </trkpt>
      <trkpt lat="43.39943" lon="-0.51997">
        <ele>212.59</ele>
        <time>2019-10-26T07:31:08Z</time>
      </trkpt>
      <trkpt lat="43.39939" lon="-0.51997">
        <ele>213.07</ele>
        <time>2019-10-26T07:31:11Z</time>
      </trkpt>
      <trkpt lat="43.39947" lon="-0.52016">
        <ele>215.47</ele>
        <time>2019-10-26T07:31:24Z</time>
      </trkpt>
      <trkpt lat="43.39957" lon="-0.52044">
        <ele>216.43</ele>
        <time>2019-10-26T07:31:40Z</time>
      </trkpt>
      <trkpt lat="43.39967" lon="-0.52075">
        <ele>217.4</ele>
        <time>2019-10-26T07:31:56Z</time>
      </trkpt>
      <trkpt lat="43.39977" lon="-0.52102">
        <ele>218.84</ele>
        <time>2019-10-26T07:32:11Z</time>
      </trkpt>
      <trkpt lat="43.39975" lon="-0.52126">
        <ele>222.2</ele>
        <time>2019-10-26T07:32:25Z</time>
      </trkpt>
      <trkpt lat="43.39973" lon="-0.52128">
        <ele>222.2</ele>
        <time>2019-10-26T07:32:27Z</time>
      </trkpt>
      <trkpt lat="43.39968" lon="-0.52128">
        <ele>224.61</ele>
        <time>2019-10-26T07:32:32Z</time>
      </trkpt>
      <trkpt lat="43.39955" lon="-0.52122">
        <ele>227.49</ele>
        <time>2019-10-26T07:32:43Z</time>
      </trkpt>
      <trkpt lat="43.39933" lon="-0.52111">
        <ele>229.89</ele>
        <time>2019-10-26T07:33:00Z</time>
      </trkpt>
      <trkpt lat="43.39912" lon="-0.52097">
        <ele>232.3</ele>
        <time>2019-10-26T07:33:16Z</time>
      </trkpt>
      <trkpt lat="43.39902" lon="-0.52091">
        <ele>233.74</ele>
        <time>2019-10-26T07:33:27Z</time>
      </trkpt>
      <trkpt lat="43.3989" lon="-0.52084">
        <ele>234.7</ele>
        <time>2019-10-26T07:33:39Z</time>
      </trkpt>
      <trkpt lat="43.39877" lon="-0.52077">
        <ele>238.06</ele>
        <time>2019-10-26T07:33:52Z</time>
      </trkpt>
      <trkpt lat="43.39862" lon="-0.52088">
        <ele>240.95</ele>
        <time>2019-10-26T07:34:07Z</time>
      </trkpt>
      <trkpt lat="43.3985" lon="-0.52097">
        <ele>243.83</ele>
        <time>2019-10-26T07:34:20Z</time>
      </trkpt>
      <trkpt lat="43.39848" lon="-0.52096">
        <ele>244.31</ele>
        <time>2019-10-26T07:34:21Z</time>
      </trkpt>
      <trkpt lat="43.39842" lon="-0.52092">
        <ele>243.35</ele>
        <time>2019-10-26T07:34:35Z</time>
      </trkpt>
      <trkpt lat="43.39838" lon="-0.52091">
        <ele>240.47</ele>
        <time>2019-10-26T07:34:55Z</time>
      </trkpt>
      <trkpt lat="43.39838" lon="-0.52096">
        <ele>239.99</ele>
        <time>2019-10-26T07:35:13Z</time>
      </trkpt>
      <trkpt lat="43.39841" lon="-0.52089">
        <ele>242.39</ele>
        <time>2019-10-26T07:35:37Z</time>
      </trkpt>
      <trkpt lat="43.39839" lon="-0.52089">
        <ele>241.91</ele>
        <time>2019-10-26T07:36:04Z</time>
      </trkpt>
      <trkpt lat="43.39838" lon="-0.52096">
        <ele>250.08</ele>
        <time>2019-10-26T07:36:36Z</time>
      </trkpt>
      <trkpt lat="43.39838" lon="-0.52089">
        <ele>247.2</ele>
        <time>2019-10-26T07:36:59Z</time>
      </trkpt>
      <trkpt lat="43.39837" lon="-0.52084">
        <ele>246.72</ele>
        <time>2019-10-26T07:37:16Z</time>
      </trkpt>
      <trkpt lat="43.3983" lon="-0.52072">
        <ele>246.23</ele>
        <time>2019-10-26T07:37:29Z</time>
      </trkpt>
      <trkpt lat="43.39815" lon="-0.52037">
        <ele>245.27</ele>
        <time>2019-10-26T07:37:40Z</time>
      </trkpt>
      <trkpt lat="43.39793" lon="-0.51984">
        <ele>245.75</ele>
        <time>2019-10-26T07:37:51Z</time>
      </trkpt>
      <trkpt lat="43.39772" lon="-0.51929">
        <ele>248.64</ele>
        <time>2019-10-26T07:38:02Z</time>
      </trkpt>
      <trkpt lat="43.39745" lon="-0.51888">
        <ele>255.85</ele>
        <time>2019-10-26T07:38:13Z</time>
      </trkpt>
      <trkpt lat="43.39715" lon="-0.51856">
        <ele>257.29</ele>
        <time>2019-10-26T07:38:26Z</time>
      </trkpt>
      <trkpt lat="43.39689" lon="-0.51812">
        <ele>256.33</ele>
        <time>2019-10-26T07:38:39Z</time>
      </trkpt>
      <trkpt lat="43.39671" lon="-0.51771">
        <ele>251.52</ele>
        <time>2019-10-26T07:38:53Z</time>
      </trkpt>
      <trkpt lat="43.3965" lon="-0.51736">
        <ele>251.52</ele>
        <time>2019-10-26T07:39:07Z</time>
      </trkpt>
      <trkpt lat="43.39627" lon="-0.51703">
        <ele>252.48</ele>
        <time>2019-10-26T07:39:20Z</time>
      </trkpt>
      <trkpt lat="43.39607" lon="-0.51675">
        <ele>253.93</ele>
        <time>2019-10-26T07:39:33Z</time>
      </trkpt>
      <trkpt lat="43.39596" lon="-0.51663">
        <ele>255.85</ele>
        <time>2019-10-26T07:39:41Z</time>
      </trkpt>
      <trkpt lat="43.39594" lon="-0.51661">
        <ele>255.85</ele>
        <time>2019-10-26T07:39:42Z</time>
      </trkpt>
      <trkpt lat="43.39585" lon="-0.51646">
        <ele>257.77</ele>
        <time>2019-10-26T07:39:49Z</time>
      </trkpt>
      <trkpt lat="43.39583" lon="-0.51644">
        <ele>258.25</ele>
        <time>2019-10-26T07:39:50Z</time>
      </trkpt>
      <trkpt lat="43.39562" lon="-0.51618">
        <ele>263.06</ele>
        <time>2019-10-26T07:40:03Z</time>
      </trkpt>
      <trkpt lat="43.39536" lon="-0.51581">
        <ele>264.98</ele>
        <time>2019-10-26T07:40:18Z</time>
      </trkpt>
      <trkpt lat="43.39514" lon="-0.51538">
        <ele>263.54</ele>
        <time>2019-10-26T07:40:32Z</time>
      </trkpt>
      <trkpt lat="43.39496" lon="-0.51489">
        <ele>264.02</ele>
        <time>2019-10-26T07:40:43Z</time>
      </trkpt>
      <trkpt lat="43.3948" lon="-0.51443">
        <ele>265.46</ele>
        <time>2019-10-26T07:40:51Z</time>
      </trkpt>
      <trkpt lat="43.39467" lon="-0.51375">
        <ele>263.54</ele>
        <time>2019-10-26T07:41:02Z</time>
      </trkpt>
      <trkpt lat="43.39466" lon="-0.51368">
        <ele>263.06</ele>
        <time>2019-10-26T07:41:03Z</time>
      </trkpt>
      <trkpt lat="43.39466" lon="-0.51362">
        <ele>263.06</ele>
        <time>2019-10-26T07:41:04Z</time>
      </trkpt>
      <trkpt lat="43.39466" lon="-0.51356">
        <ele>262.58</ele>
        <time>2019-10-26T07:41:05Z</time>
      </trkpt>
      <trkpt lat="43.39466" lon="-0.51351">
        <ele>262.58</ele>
        <time>2019-10-26T07:41:06Z</time>
      </trkpt>
      <trkpt lat="43.39463" lon="-0.51319">
        <ele>261.62</ele>
        <time>2019-10-26T07:41:11Z</time>
      </trkpt>
      <trkpt lat="43.39441" lon="-0.51215">
        <ele>258.25</ele>
        <time>2019-10-26T07:41:28Z</time>
      </trkpt>
      <trkpt lat="43.39437" lon="-0.51117">
        <ele>257.29</ele>
        <time>2019-10-26T07:41:45Z</time>
      </trkpt>
      <trkpt lat="43.3943" lon="-0.51026">
        <ele>259.21</ele>
        <time>2019-10-26T07:42:01Z</time>
      </trkpt>
      <trkpt lat="43.39426" lon="-0.50945">
        <ele>259.21</ele>
        <time>2019-10-26T07:42:17Z</time>
      </trkpt>
      <trkpt lat="43.39425" lon="-0.50845">
        <ele>260.17</ele>
        <time>2019-10-26T07:42:35Z</time>
      </trkpt>
      <trkpt lat="43.39421" lon="-0.50742">
        <ele>262.58</ele>
        <time>2019-10-26T07:42:52Z</time>
      </trkpt>
      <trkpt lat="43.39413" lon="-0.50644">
        <ele>263.54</ele>
        <time>2019-10-26T07:43:08Z</time>
      </trkpt>
      <trkpt lat="43.39412" lon="-0.50639">
        <ele>263.54</ele>
        <time>2019-10-26T07:43:09Z</time>
      </trkpt>
      <trkpt lat="43.39411" lon="-0.50633">
        <ele>263.54</ele>
        <time>2019-10-26T07:43:10Z</time>
      </trkpt>
      <trkpt lat="43.39409" lon="-0.50627">
        <ele>263.54</ele>
        <time>2019-10-26T07:43:11Z</time>
      </trkpt>
      <trkpt lat="43.39407" lon="-0.50622">
        <ele>264.02</ele>
        <time>2019-10-26T07:43:12Z</time>
      </trkpt>
      <trkpt lat="43.39404" lon="-0.50617">
        <ele>264.02</ele>
        <time>2019-10-26T07:43:13Z</time>
      </trkpt>
      <trkpt lat="43.39401" lon="-0.50612">
        <ele>264.02</ele>
        <time>2019-10-26T07:43:14Z</time>
      </trkpt>
      <trkpt lat="43.39391" lon="-0.50595">
        <ele>263.54</ele>
        <time>2019-10-26T07:43:17Z</time>
      </trkpt>
      <trkpt lat="43.39388" lon="-0.50589">
        <ele>263.06</ele>
        <time>2019-10-26T07:43:18Z</time>
      </trkpt>
      <trkpt lat="43.3937" lon="-0.50541">
        <ele>263.06</ele>
        <time>2019-10-26T07:43:25Z</time>
      </trkpt>
      <trkpt lat="43.39361" lon="-0.50506">
        <ele>262.1</ele>
        <time>2019-10-26T07:43:31Z</time>
      </trkpt>
      <trkpt lat="43.39357" lon="-0.50494">
        <ele>262.1</ele>
        <time>2019-10-26T07:43:33Z</time>
      </trkpt>
      <trkpt lat="43.39343" lon="-0.50423">
        <ele>261.14</ele>
        <time>2019-10-26T07:43:44Z</time>
      </trkpt>
      <trkpt lat="43.39342" lon="-0.50417">
        <ele>261.14</ele>
        <time>2019-10-26T07:43:45Z</time>
      </trkpt>
      <trkpt lat="43.39341" lon="-0.50346">
        <ele>261.14</ele>
        <time>2019-10-26T07:43:56Z</time>
      </trkpt>
      <trkpt lat="43.39343" lon="-0.50291">
        <ele>261.62</ele>
        <time>2019-10-26T07:44:05Z</time>
      </trkpt>
      <trkpt lat="43.39343" lon="-0.50185">
        <ele>261.14</ele>
        <time>2019-10-26T07:44:21Z</time>
      </trkpt>
      <trkpt lat="43.39333" lon="-0.50106">
        <ele>260.65</ele>
        <time>2019-10-26T07:44:34Z</time>
      </trkpt>
      <trkpt lat="43.39303" lon="-0.50049">
        <ele>261.14</ele>
        <time>2019-10-26T07:44:48Z</time>
      </trkpt>
      <trkpt lat="43.39278" lon="-0.50018">
        <ele>263.06</ele>
        <time>2019-10-26T07:44:59Z</time>
      </trkpt>
      <trkpt lat="43.39237" lon="-0.49951">
        <ele>264.02</ele>
        <time>2019-10-26T07:45:13Z</time>
      </trkpt>
      <trkpt lat="43.39198" lon="-0.49876">
        <ele>264.98</ele>
        <time>2019-10-26T07:45:30Z</time>
      </trkpt>
      <trkpt lat="43.39168" lon="-0.49814">
        <ele>264.98</ele>
        <time>2019-10-26T07:45:43Z</time>
      </trkpt>
      <trkpt lat="43.39167" lon="-0.4981">
        <ele>264.98</ele>
        <time>2019-10-26T07:45:44Z</time>
      </trkpt>
      <trkpt lat="43.39149" lon="-0.49753">
        <ele>266.42</ele>
        <time>2019-10-26T07:45:58Z</time>
      </trkpt>
      <trkpt lat="43.39129" lon="-0.4971">
        <ele>268.35</ele>
        <time>2019-10-26T07:46:10Z</time>
      </trkpt>
      <trkpt lat="43.39114" lon="-0.49674">
        <ele>269.79</ele>
        <time>2019-10-26T07:46:22Z</time>
      </trkpt>
      <trkpt lat="43.39108" lon="-0.49658">
        <ele>270.75</ele>
        <time>2019-10-26T07:46:27Z</time>
      </trkpt>
      <trkpt lat="43.39099" lon="-0.49655">
        <ele>273.63</ele>
        <time>2019-10-26T07:46:32Z</time>
      </trkpt>
      <trkpt lat="43.39097" lon="-0.49659">
        <ele>276.04</ele>
        <time>2019-10-26T07:46:45Z</time>
      </trkpt>
      <trkpt lat="43.39083" lon="-0.49635">
        <ele>277</ele>
        <time>2019-10-26T07:46:56Z</time>
      </trkpt>
      <trkpt lat="43.39078" lon="-0.49626">
        <ele>277</ele>
        <time>2019-10-26T07:47:00Z</time>
      </trkpt>
      <trkpt lat="43.39076" lon="-0.4961">
        <ele>275.56</ele>
        <time>2019-10-26T07:47:05Z</time>
      </trkpt>
      <trkpt lat="43.39069" lon="-0.49561">
        <ele>273.63</ele>
        <time>2019-10-26T07:47:17Z</time>
      </trkpt>
      <trkpt lat="43.39057" lon="-0.4953">
        <ele>272.67</ele>
        <time>2019-10-26T07:47:25Z</time>
      </trkpt>
      <trkpt lat="43.39036" lon="-0.49493">
        <ele>273.63</ele>
        <time>2019-10-26T07:47:35Z</time>
      </trkpt>
      <trkpt lat="43.3902" lon="-0.49447">
        <ele>277</ele>
        <time>2019-10-26T07:47:45Z</time>
      </trkpt>
      <trkpt lat="43.38999" lon="-0.49391">
        <ele>278.44</ele>
        <time>2019-10-26T07:47:57Z</time>
      </trkpt>
      <trkpt lat="43.38969" lon="-0.49345">
        <ele>277</ele>
        <time>2019-10-26T07:48:10Z</time>
      </trkpt>
      <trkpt lat="43.38949" lon="-0.49325">
        <ele>276.52</ele>
        <time>2019-10-26T07:48:20Z</time>
      </trkpt>
      <trkpt lat="43.38946" lon="-0.49319">
        <ele>276.52</ele>
        <time>2019-10-26T07:48:22Z</time>
      </trkpt>
      <trkpt lat="43.38944" lon="-0.49297">
        <ele>276.04</ele>
        <time>2019-10-26T07:48:28Z</time>
      </trkpt>
      <trkpt lat="43.38942" lon="-0.49278">
        <ele>276.52</ele>
        <time>2019-10-26T07:48:33Z</time>
      </trkpt>
      <trkpt lat="43.38921" lon="-0.49242">
        <ele>281.8</ele>
        <time>2019-10-26T07:48:45Z</time>
      </trkpt>
      <trkpt lat="43.38896" lon="-0.49209">
        <ele>283.73</ele>
        <time>2019-10-26T07:48:54Z</time>
      </trkpt>
      <trkpt lat="43.38888" lon="-0.49202">
        <ele>282.77</ele>
        <time>2019-10-26T07:49:04Z</time>
      </trkpt>
      <trkpt lat="43.38886" lon="-0.49201">
        <ele>282.28</ele>
        <time>2019-10-26T07:49:05Z</time>
      </trkpt>
      <trkpt lat="43.3888" lon="-0.49205">
        <ele>280.84</ele>
        <time>2019-10-26T07:49:10Z</time>
      </trkpt>
      <trkpt lat="43.38872" lon="-0.49175">
        <ele>282.28</ele>
        <time>2019-10-26T07:49:21Z</time>
      </trkpt>
      <trkpt lat="43.38872" lon="-0.49172">
        <ele>282.28</ele>
        <time>2019-10-26T07:49:22Z</time>
      </trkpt>
      <trkpt lat="43.38871" lon="-0.49167">
        <ele>282.28</ele>
        <time>2019-10-26T07:49:23Z</time>
      </trkpt>
      <trkpt lat="43.38861" lon="-0.49135">
        <ele>281.32</ele>
        <time>2019-10-26T07:49:32Z</time>
      </trkpt>
      <trkpt lat="43.38861" lon="-0.49132">
        <ele>280.84</ele>
        <time>2019-10-26T07:49:33Z</time>
      </trkpt>
      <trkpt lat="43.3886" lon="-0.49129">
        <ele>280.84</ele>
        <time>2019-10-26T07:49:34Z</time>
      </trkpt>
      <trkpt lat="43.38859" lon="-0.49125">
        <ele>280.84</ele>
        <time>2019-10-26T07:49:35Z</time>
      </trkpt>
      <trkpt lat="43.38859" lon="-0.49121">
        <ele>280.84</ele>
        <time>2019-10-26T07:49:36Z</time>
      </trkpt>
      <trkpt lat="43.38859" lon="-0.49118">
        <ele>281.32</ele>
        <time>2019-10-26T07:49:37Z</time>
      </trkpt>
      <trkpt lat="43.38858" lon="-0.49114">
        <ele>281.32</ele>
        <time>2019-10-26T07:49:38Z</time>
      </trkpt>
      <trkpt lat="43.38858" lon="-0.4911">
        <ele>281.8</ele>
        <time>2019-10-26T07:49:39Z</time>
      </trkpt>
      <trkpt lat="43.38858" lon="-0.49106">
        <ele>282.28</ele>
        <time>2019-10-26T07:49:40Z</time>
      </trkpt>
      <trkpt lat="43.38858" lon="-0.49102">
        <ele>282.77</ele>
        <time>2019-10-26T07:49:41Z</time>
      </trkpt>
      <trkpt lat="43.38858" lon="-0.49097">
        <ele>282.77</ele>
        <time>2019-10-26T07:49:42Z</time>
      </trkpt>
      <trkpt lat="43.38852" lon="-0.4906">
        <ele>285.17</ele>
        <time>2019-10-26T07:49:51Z</time>
      </trkpt>
      <trkpt lat="43.38851" lon="-0.49056">
        <ele>285.65</ele>
        <time>2019-10-26T07:49:52Z</time>
      </trkpt>
      <trkpt lat="43.3885" lon="-0.49052">
        <ele>285.65</ele>
        <time>2019-10-26T07:49:53Z</time>
      </trkpt>
      <trkpt lat="43.38848" lon="-0.49049">
        <ele>285.65</ele>
        <time>2019-10-26T07:49:54Z</time>
      </trkpt>
      <trkpt lat="43.38848" lon="-0.49046">
        <ele>285.65</ele>
        <time>2019-10-26T07:49:55Z</time>
      </trkpt>
      <trkpt lat="43.38848" lon="-0.49043">
        <ele>285.65</ele>
        <time>2019-10-26T07:49:56Z</time>
      </trkpt>
      <trkpt lat="43.38847" lon="-0.4904">
        <ele>285.17</ele>
        <time>2019-10-26T07:49:57Z</time>
      </trkpt>
      <trkpt lat="43.38847" lon="-0.49037">
        <ele>284.69</ele>
        <time>2019-10-26T07:49:58Z</time>
      </trkpt>
      <trkpt lat="43.38846" lon="-0.49034">
        <ele>284.69</ele>
        <time>2019-10-26T07:49:59Z</time>
      </trkpt>
      <trkpt lat="43.38845" lon="-0.49031">
        <ele>284.21</ele>
        <time>2019-10-26T07:50:00Z</time>
      </trkpt>
      <trkpt lat="43.38844" lon="-0.49029">
        <ele>284.21</ele>
        <time>2019-10-26T07:50:01Z</time>
      </trkpt>
      <trkpt lat="43.38842" lon="-0.49027">
        <ele>284.21</ele>
        <time>2019-10-26T07:50:02Z</time>
      </trkpt>
      <trkpt lat="43.38841" lon="-0.49025">
        <ele>284.21</ele>
        <time>2019-10-26T07:50:03Z</time>
      </trkpt>
      <trkpt lat="43.38839" lon="-0.4902">
        <ele>283.73</ele>
        <time>2019-10-26T07:50:05Z</time>
      </trkpt>
      <trkpt lat="43.38837" lon="-0.49018">
        <ele>284.21</ele>
        <time>2019-10-26T07:50:06Z</time>
      </trkpt>
      <trkpt lat="43.38828" lon="-0.49011">
        <ele>284.69</ele>
        <time>2019-10-26T07:50:10Z</time>
      </trkpt>
      <trkpt lat="43.38827" lon="-0.49007">
        <ele>284.69</ele>
        <time>2019-10-26T07:50:11Z</time>
      </trkpt>
      <trkpt lat="43.38827" lon="-0.49004">
        <ele>285.17</ele>
        <time>2019-10-26T07:50:12Z</time>
      </trkpt>
      <trkpt lat="43.38826" lon="-0.49001">
        <ele>285.17</ele>
        <time>2019-10-26T07:50:13Z</time>
      </trkpt>
      <trkpt lat="43.38826" lon="-0.48991">
        <ele>287.09</ele>
        <time>2019-10-26T07:50:18Z</time>
      </trkpt>
      <trkpt lat="43.38825" lon="-0.48988">
        <ele>287.09</ele>
        <time>2019-10-26T07:50:19Z</time>
      </trkpt>
      <trkpt lat="43.38824" lon="-0.48983">
        <ele>286.61</ele>
        <time>2019-10-26T07:50:20Z</time>
      </trkpt>
      <trkpt lat="43.38823" lon="-0.4898">
        <ele>286.61</ele>
        <time>2019-10-26T07:50:21Z</time>
      </trkpt>
      <trkpt lat="43.38823" lon="-0.48975">
        <ele>285.17</ele>
        <time>2019-10-26T07:50:22Z</time>
      </trkpt>
      <trkpt lat="43.38822" lon="-0.48974">
        <ele>284.69</ele>
        <time>2019-10-26T07:50:23Z</time>
      </trkpt>
      <trkpt lat="43.38818" lon="-0.48972">
        <ele>284.69</ele>
        <time>2019-10-26T07:50:25Z</time>
      </trkpt>
      <trkpt lat="43.38818" lon="-0.4897">
        <ele>285.17</ele>
        <time>2019-10-26T07:50:26Z</time>
      </trkpt>
      <trkpt lat="43.38816" lon="-0.48965">
        <ele>284.69</ele>
        <time>2019-10-26T07:50:27Z</time>
      </trkpt>
      <trkpt lat="43.38814" lon="-0.48961">
        <ele>284.21</ele>
        <time>2019-10-26T07:50:28Z</time>
      </trkpt>
      <trkpt lat="43.38813" lon="-0.48958">
        <ele>284.21</ele>
        <time>2019-10-26T07:50:29Z</time>
      </trkpt>
      <trkpt lat="43.38811" lon="-0.48953">
        <ele>284.21</ele>
        <time>2019-10-26T07:50:30Z</time>
      </trkpt>
      <trkpt lat="43.38791" lon="-0.48913">
        <ele>282.77</ele>
        <time>2019-10-26T07:50:40Z</time>
      </trkpt>
      <trkpt lat="43.38788" lon="-0.48909">
        <ele>282.28</ele>
        <time>2019-10-26T07:50:41Z</time>
      </trkpt>
      <trkpt lat="43.38785" lon="-0.48905">
        <ele>282.28</ele>
        <time>2019-10-26T07:50:42Z</time>
      </trkpt>
      <trkpt lat="43.38783" lon="-0.489">
        <ele>281.8</ele>
        <time>2019-10-26T07:50:43Z</time>
      </trkpt>
      <trkpt lat="43.3878" lon="-0.48896">
        <ele>281.32</ele>
        <time>2019-10-26T07:50:44Z</time>
      </trkpt>
      <trkpt lat="43.38778" lon="-0.48895">
        <ele>281.32</ele>
        <time>2019-10-26T07:50:45Z</time>
      </trkpt>
      <trkpt lat="43.38776" lon="-0.48894">
        <ele>280.84</ele>
        <time>2019-10-26T07:50:46Z</time>
      </trkpt>
      <trkpt lat="43.38773" lon="-0.48892">
        <ele>280.84</ele>
        <time>2019-10-26T07:50:47Z</time>
      </trkpt>
      <trkpt lat="43.38772" lon="-0.48889">
        <ele>280.84</ele>
        <time>2019-10-26T07:50:48Z</time>
      </trkpt>
      <trkpt lat="43.38752" lon="-0.48849">
        <ele>278.44</ele>
        <time>2019-10-26T07:50:58Z</time>
      </trkpt>
      <trkpt lat="43.38721" lon="-0.48805">
        <ele>270.27</ele>
        <time>2019-10-26T07:51:11Z</time>
      </trkpt>
      <trkpt lat="43.38686" lon="-0.48755">
        <ele>268.83</ele>
        <time>2019-10-26T07:51:25Z</time>
      </trkpt>
      <trkpt lat="43.38662" lon="-0.48723">
        <ele>267.86</ele>
        <time>2019-10-26T07:51:38Z</time>
      </trkpt>
      <trkpt lat="43.3866" lon="-0.48719">
        <ele>266.9</ele>
        <time>2019-10-26T07:51:52Z</time>
      </trkpt>
      <trkpt lat="43.38658" lon="-0.48718">
        <ele>266.42</ele>
        <time>2019-10-26T07:51:57Z</time>
      </trkpt>
      <trkpt lat="43.38635" lon="-0.48736">
        <ele>265.46</ele>
        <time>2019-10-26T07:52:08Z</time>
      </trkpt>
      <trkpt lat="43.38631" lon="-0.48739">
        <ele>264.98</ele>
        <time>2019-10-26T07:52:10Z</time>
      </trkpt>
      <trkpt lat="43.38629" lon="-0.48739">
        <ele>264.98</ele>
        <time>2019-10-26T07:52:11Z</time>
      </trkpt>
      <trkpt lat="43.38628" lon="-0.48737">
        <ele>264.98</ele>
        <time>2019-10-26T07:52:12Z</time>
      </trkpt>
      <trkpt lat="43.38627" lon="-0.48734">
        <ele>264.98</ele>
        <time>2019-10-26T07:52:13Z</time>
      </trkpt>
      <trkpt lat="43.38626" lon="-0.48731">
        <ele>264.5</ele>
        <time>2019-10-26T07:52:14Z</time>
      </trkpt>
      <trkpt lat="43.38626" lon="-0.48726">
        <ele>264.5</ele>
        <time>2019-10-26T07:52:15Z</time>
      </trkpt>
      <trkpt lat="43.38626" lon="-0.48722">
        <ele>264.5</ele>
        <time>2019-10-26T07:52:16Z</time>
      </trkpt>
      <trkpt lat="43.38628" lon="-0.4867">
        <ele>264.02</ele>
        <time>2019-10-26T07:52:28Z</time>
      </trkpt>
      <trkpt lat="43.38613" lon="-0.48638">
        <ele>262.1</ele>
        <time>2019-10-26T07:52:35Z</time>
      </trkpt>
      <trkpt lat="43.38578" lon="-0.48585">
        <ele>258.73</ele>
        <time>2019-10-26T07:52:45Z</time>
      </trkpt>
      <trkpt lat="43.38574" lon="-0.48582">
        <ele>258.73</ele>
        <time>2019-10-26T07:52:46Z</time>
      </trkpt>
      <trkpt lat="43.3857" lon="-0.4858">
        <ele>258.25</ele>
        <time>2019-10-26T07:52:47Z</time>
      </trkpt>
      <trkpt lat="43.38545" lon="-0.48568">
        <ele>256.33</ele>
        <time>2019-10-26T07:52:52Z</time>
      </trkpt>
      <trkpt lat="43.3854" lon="-0.48566">
        <ele>255.85</ele>
        <time>2019-10-26T07:52:53Z</time>
      </trkpt>
      <trkpt lat="43.38524" lon="-0.48561">
        <ele>254.89</ele>
        <time>2019-10-26T07:52:56Z</time>
      </trkpt>
      <trkpt lat="43.38521" lon="-0.48558">
        <ele>254.41</ele>
        <time>2019-10-26T07:52:57Z</time>
      </trkpt>
      <trkpt lat="43.38488" lon="-0.48542">
        <ele>249.6</ele>
        <time>2019-10-26T07:53:06Z</time>
      </trkpt>
      <trkpt lat="43.38476" lon="-0.48535">
        <ele>248.64</ele>
        <time>2019-10-26T07:53:09Z</time>
      </trkpt>
      <trkpt lat="43.38454" lon="-0.48524">
        <ele>247.2</ele>
        <time>2019-10-26T07:53:15Z</time>
      </trkpt>
      <trkpt lat="43.38426" lon="-0.48526">
        <ele>246.23</ele>
        <time>2019-10-26T07:53:21Z</time>
      </trkpt>
      <trkpt lat="43.38363" lon="-0.48533">
        <ele>244.79</ele>
        <time>2019-10-26T07:53:34Z</time>
      </trkpt>
      <trkpt lat="43.38356" lon="-0.4853">
        <ele>244.31</ele>
        <time>2019-10-26T07:53:36Z</time>
      </trkpt>
      <trkpt lat="43.3833" lon="-0.48517">
        <ele>245.75</ele>
        <time>2019-10-26T07:53:42Z</time>
      </trkpt>
      <trkpt lat="43.38288" lon="-0.48493">
        <ele>249.12</ele>
        <time>2019-10-26T07:53:54Z</time>
      </trkpt>
      <trkpt lat="43.38237" lon="-0.48462">
        <ele>251.52</ele>
        <time>2019-10-26T07:54:06Z</time>
      </trkpt>
      <trkpt lat="43.38191" lon="-0.48448">
        <ele>250.08</ele>
        <time>2019-10-26T07:54:17Z</time>
      </trkpt>
      <trkpt lat="43.38139" lon="-0.48438">
        <ele>253.44</ele>
        <time>2019-10-26T07:54:30Z</time>
      </trkpt>
      <trkpt lat="43.38126" lon="-0.48433">
        <ele>254.41</ele>
        <time>2019-10-26T07:54:33Z</time>
      </trkpt>
      <trkpt lat="43.38088" lon="-0.48422">
        <ele>254.89</ele>
        <time>2019-10-26T07:54:40Z</time>
      </trkpt>
      <trkpt lat="43.38029" lon="-0.4842">
        <ele>253.93</ele>
        <time>2019-10-26T07:54:49Z</time>
      </trkpt>
      <trkpt lat="43.38006" lon="-0.48425">
        <ele>251.52</ele>
        <time>2019-10-26T07:54:53Z</time>
      </trkpt>
      <trkpt lat="43.37966" lon="-0.48425">
        <ele>244.79</ele>
        <time>2019-10-26T07:55:02Z</time>
      </trkpt>
      <trkpt lat="43.37916" lon="-0.48403">
        <ele>242.39</ele>
        <time>2019-10-26T07:55:14Z</time>
      </trkpt>
      <trkpt lat="43.37906" lon="-0.484">
        <ele>241.91</ele>
        <time>2019-10-26T07:55:16Z</time>
      </trkpt>
      <trkpt lat="43.379" lon="-0.48399">
        <ele>241.43</ele>
        <time>2019-10-26T07:55:17Z</time>
      </trkpt>
      <trkpt lat="43.37888" lon="-0.48397">
        <ele>239.99</ele>
        <time>2019-10-26T07:55:19Z</time>
      </trkpt>
      <trkpt lat="43.3787" lon="-0.48397">
        <ele>237.58</ele>
        <time>2019-10-26T07:55:22Z</time>
      </trkpt>
      <trkpt lat="43.37864" lon="-0.48396">
        <ele>237.1</ele>
        <time>2019-10-26T07:55:23Z</time>
      </trkpt>
      <trkpt lat="43.37847" lon="-0.48396">
        <ele>235.66</ele>
        <time>2019-10-26T07:55:26Z</time>
      </trkpt>
      <trkpt lat="43.37825" lon="-0.48394">
        <ele>232.78</ele>
        <time>2019-10-26T07:55:30Z</time>
      </trkpt>
      <trkpt lat="43.37808" lon="-0.48396">
        <ele>231.33</ele>
        <time>2019-10-26T07:55:33Z</time>
      </trkpt>
      <trkpt lat="43.37753" lon="-0.48411">
        <ele>224.12</ele>
        <time>2019-10-26T07:55:42Z</time>
      </trkpt>
      <trkpt lat="43.37702" lon="-0.4841">
        <ele>218.84</ele>
        <time>2019-10-26T07:55:49Z</time>
      </trkpt>
      <trkpt lat="43.37655" lon="-0.4842">
        <ele>215.95</ele>
        <time>2019-10-26T07:55:55Z</time>
      </trkpt>
      <trkpt lat="43.37634" lon="-0.48432">
        <ele>214.51</ele>
        <time>2019-10-26T07:55:58Z</time>
      </trkpt>
      <trkpt lat="43.37628" lon="-0.48437">
        <ele>214.03</ele>
        <time>2019-10-26T07:55:59Z</time>
      </trkpt>
      <trkpt lat="43.37622" lon="-0.48441">
        <ele>213.55</ele>
        <time>2019-10-26T07:56:00Z</time>
      </trkpt>
      <trkpt lat="43.37617" lon="-0.48444">
        <ele>213.07</ele>
        <time>2019-10-26T07:56:01Z</time>
      </trkpt>
      <trkpt lat="43.37612" lon="-0.48445">
        <ele>212.59</ele>
        <time>2019-10-26T07:56:02Z</time>
      </trkpt>
      <trkpt lat="43.37606" lon="-0.48445">
        <ele>212.11</ele>
        <time>2019-10-26T07:56:03Z</time>
      </trkpt>
      <trkpt lat="43.376" lon="-0.48445">
        <ele>211.63</ele>
        <time>2019-10-26T07:56:04Z</time>
      </trkpt>
      <trkpt lat="43.37592" lon="-0.48444">
        <ele>211.15</ele>
        <time>2019-10-26T07:56:05Z</time>
      </trkpt>
      <trkpt lat="43.37519" lon="-0.48436">
        <ele>203.94</ele>
        <time>2019-10-26T07:56:14Z</time>
      </trkpt>
      <trkpt lat="43.37511" lon="-0.48436">
        <ele>202.98</ele>
        <time>2019-10-26T07:56:15Z</time>
      </trkpt>
      <trkpt lat="43.37502" lon="-0.48438">
        <ele>201.53</ele>
        <time>2019-10-26T07:56:16Z</time>
      </trkpt>
      <trkpt lat="43.37494" lon="-0.48441">
        <ele>200.09</ele>
        <time>2019-10-26T07:56:17Z</time>
      </trkpt>
      <trkpt lat="43.37485" lon="-0.48445">
        <ele>198.17</ele>
        <time>2019-10-26T07:56:18Z</time>
      </trkpt>
      <trkpt lat="43.37476" lon="-0.48449">
        <ele>196.73</ele>
        <time>2019-10-26T07:56:19Z</time>
      </trkpt>
      <trkpt lat="43.37445" lon="-0.48467">
        <ele>190</ele>
        <time>2019-10-26T07:56:23Z</time>
      </trkpt>
      <trkpt lat="43.37438" lon="-0.4847">
        <ele>188.56</ele>
        <time>2019-10-26T07:56:24Z</time>
      </trkpt>
      <trkpt lat="43.3743" lon="-0.48471">
        <ele>187.11</ele>
        <time>2019-10-26T07:56:25Z</time>
      </trkpt>
      <trkpt lat="43.37423" lon="-0.4847">
        <ele>185.67</ele>
        <time>2019-10-26T07:56:26Z</time>
      </trkpt>
      <trkpt lat="43.37415" lon="-0.48468">
        <ele>184.23</ele>
        <time>2019-10-26T07:56:27Z</time>
      </trkpt>
      <trkpt lat="43.37408" lon="-0.48466">
        <ele>182.79</ele>
        <time>2019-10-26T07:56:28Z</time>
      </trkpt>
      <trkpt lat="43.37401" lon="-0.48462">
        <ele>181.35</ele>
        <time>2019-10-26T07:56:29Z</time>
      </trkpt>
      <trkpt lat="43.37395" lon="-0.48457">
        <ele>180.38</ele>
        <time>2019-10-26T07:56:30Z</time>
      </trkpt>
      <trkpt lat="43.37389" lon="-0.48451">
        <ele>178.94</ele>
        <time>2019-10-26T07:56:31Z</time>
      </trkpt>
      <trkpt lat="43.37384" lon="-0.48444">
        <ele>177.5</ele>
        <time>2019-10-26T07:56:32Z</time>
      </trkpt>
      <trkpt lat="43.37378" lon="-0.48437">
        <ele>176.54</ele>
        <time>2019-10-26T07:56:33Z</time>
      </trkpt>
      <trkpt lat="43.37373" lon="-0.48431">
        <ele>175.1</ele>
        <time>2019-10-26T07:56:34Z</time>
      </trkpt>
      <trkpt lat="43.37369" lon="-0.48427">
        <ele>174.14</ele>
        <time>2019-10-26T07:56:35Z</time>
      </trkpt>
      <trkpt lat="43.37355" lon="-0.48417">
        <ele>173.17</ele>
        <time>2019-10-26T07:56:42Z</time>
      </trkpt>
      <trkpt lat="43.37354" lon="-0.48418">
        <ele>170.77</ele>
        <time>2019-10-26T07:57:05Z</time>
      </trkpt>
      <trkpt lat="43.37352" lon="-0.48419">
        <ele>171.73</ele>
        <time>2019-10-26T07:57:37Z</time>
      </trkpt>
      <trkpt lat="43.37352" lon="-0.48417">
        <ele>172.69</ele>
        <time>2019-10-26T07:58:13Z</time>
      </trkpt>
      <trkpt lat="43.37344" lon="-0.48404">
        <ele>174.14</ele>
        <time>2019-10-26T07:58:38Z</time>
      </trkpt>
      <trkpt lat="43.37305" lon="-0.48354">
        <ele>171.25</ele>
        <time>2019-10-26T07:58:50Z</time>
      </trkpt>
      <trkpt lat="43.37252" lon="-0.48304">
        <ele>168.85</ele>
        <time>2019-10-26T07:59:03Z</time>
      </trkpt>
      <trkpt lat="43.37247" lon="-0.48302">
        <ele>168.85</ele>
        <time>2019-10-26T07:59:04Z</time>
      </trkpt>
      <trkpt lat="43.37207" lon="-0.4829">
        <ele>167.41</ele>
        <time>2019-10-26T07:59:12Z</time>
      </trkpt>
      <trkpt lat="43.37192" lon="-0.48281">
        <ele>166.93</ele>
        <time>2019-10-26T07:59:15Z</time>
      </trkpt>
      <trkpt lat="43.37183" lon="-0.48274">
        <ele>166.93</ele>
        <time>2019-10-26T07:59:17Z</time>
      </trkpt>
      <trkpt lat="43.37151" lon="-0.48254">
        <ele>165.96</ele>
        <time>2019-10-26T07:59:24Z</time>
      </trkpt>
      <trkpt lat="43.37147" lon="-0.48251">
        <ele>165.96</ele>
        <time>2019-10-26T07:59:25Z</time>
      </trkpt>
      <trkpt lat="43.37111" lon="-0.48232">
        <ele>165</ele>
        <time>2019-10-26T07:59:33Z</time>
      </trkpt>
      <trkpt lat="43.37107" lon="-0.4823">
        <ele>165</ele>
        <time>2019-10-26T07:59:34Z</time>
      </trkpt>
      <trkpt lat="43.37102" lon="-0.48231">
        <ele>165</ele>
        <time>2019-10-26T07:59:35Z</time>
      </trkpt>
      <trkpt lat="43.37097" lon="-0.48232">
        <ele>164.52</ele>
        <time>2019-10-26T07:59:36Z</time>
      </trkpt>
      <trkpt lat="43.37093" lon="-0.48234">
        <ele>164.04</ele>
        <time>2019-10-26T07:59:37Z</time>
      </trkpt>
      <trkpt lat="43.37088" lon="-0.48236">
        <ele>163.56</ele>
        <time>2019-10-26T07:59:38Z</time>
      </trkpt>
      <trkpt lat="43.37082" lon="-0.48238">
        <ele>163.56</ele>
        <time>2019-10-26T07:59:39Z</time>
      </trkpt>
      <trkpt lat="43.36995" lon="-0.4826">
        <ele>160.2</ele>
        <time>2019-10-26T07:59:54Z</time>
      </trkpt>
      <trkpt lat="43.36928" lon="-0.48262">
        <ele>157.31</ele>
        <time>2019-10-26T08:00:06Z</time>
      </trkpt>
      <trkpt lat="43.36924" lon="-0.4826">
        <ele>157.31</ele>
        <time>2019-10-26T08:00:07Z</time>
      </trkpt>
      <trkpt lat="43.36921" lon="-0.48256">
        <ele>157.31</ele>
        <time>2019-10-26T08:00:08Z</time>
      </trkpt>
      <trkpt lat="43.36919" lon="-0.48251">
        <ele>157.31</ele>
        <time>2019-10-26T08:00:09Z</time>
      </trkpt>
      <trkpt lat="43.36917" lon="-0.48246">
        <ele>157.31</ele>
        <time>2019-10-26T08:00:10Z</time>
      </trkpt>
      <trkpt lat="43.36916" lon="-0.48242">
        <ele>157.31</ele>
        <time>2019-10-26T08:00:11Z</time>
      </trkpt>
      <trkpt lat="43.36915" lon="-0.48237">
        <ele>157.31</ele>
        <time>2019-10-26T08:00:12Z</time>
      </trkpt>
      <trkpt lat="43.36915" lon="-0.48231">
        <ele>157.31</ele>
        <time>2019-10-26T08:00:13Z</time>
      </trkpt>
      <trkpt lat="43.36915" lon="-0.48225">
        <ele>157.31</ele>
        <time>2019-10-26T08:00:14Z</time>
      </trkpt>
      <trkpt lat="43.36915" lon="-0.48134">
        <ele>158.27</ele>
        <time>2019-10-26T08:00:31Z</time>
      </trkpt>
      <trkpt lat="43.3691" lon="-0.48095">
        <ele>160.2</ele>
        <time>2019-10-26T08:00:41Z</time>
      </trkpt>
      <trkpt lat="43.36909" lon="-0.48092">
        <ele>160.68</ele>
        <time>2019-10-26T08:00:42Z</time>
      </trkpt>
      <trkpt lat="43.36907" lon="-0.48091">
        <ele>160.68</ele>
        <time>2019-10-26T08:00:43Z</time>
      </trkpt>
      <trkpt lat="43.36904" lon="-0.48091">
        <ele>161.16</ele>
        <time>2019-10-26T08:00:44Z</time>
      </trkpt>
      <trkpt lat="43.36901" lon="-0.48091">
        <ele>161.64</ele>
        <time>2019-10-26T08:00:45Z</time>
      </trkpt>
      <trkpt lat="43.36853" lon="-0.48107">
        <ele>165.48</ele>
        <time>2019-10-26T08:01:00Z</time>
      </trkpt>
      <trkpt lat="43.36796" lon="-0.48138">
        <ele>166.93</ele>
        <time>2019-10-26T08:01:16Z</time>
      </trkpt>
      <trkpt lat="43.36725" lon="-0.4817">
        <ele>165</ele>
        <time>2019-10-26T08:01:30Z</time>
      </trkpt>
      <trkpt lat="43.36623" lon="-0.48199">
        <ele>156.35</ele>
        <time>2019-10-26T08:01:42Z</time>
      </trkpt>
      <trkpt lat="43.36564" lon="-0.48224">
        <ele>154.91</ele>
        <time>2019-10-26T08:01:49Z</time>
      </trkpt>
      <trkpt lat="43.36557" lon="-0.48224">
        <ele>154.43</ele>
        <time>2019-10-26T08:01:50Z</time>
      </trkpt>
      <trkpt lat="43.3655" lon="-0.48222">
        <ele>154.43</ele>
        <time>2019-10-26T08:01:51Z</time>
      </trkpt>
      <trkpt lat="43.36538" lon="-0.48218">
        <ele>153.95</ele>
        <time>2019-10-26T08:01:53Z</time>
      </trkpt>
      <trkpt lat="43.36533" lon="-0.48217">
        <ele>153.95</ele>
        <time>2019-10-26T08:01:54Z</time>
      </trkpt>
      <trkpt lat="43.36529" lon="-0.48217">
        <ele>153.95</ele>
        <time>2019-10-26T08:01:55Z</time>
      </trkpt>
      <trkpt lat="43.36524" lon="-0.48217">
        <ele>153.95</ele>
        <time>2019-10-26T08:01:56Z</time>
      </trkpt>
      <trkpt lat="43.3652" lon="-0.48216">
        <ele>153.95</ele>
        <time>2019-10-26T08:01:57Z</time>
      </trkpt>
      <trkpt lat="43.36516" lon="-0.48215">
        <ele>153.95</ele>
        <time>2019-10-26T08:01:58Z</time>
      </trkpt>
      <trkpt lat="43.36479" lon="-0.48184">
        <ele>155.39</ele>
        <time>2019-10-26T08:02:11Z</time>
      </trkpt>
      <trkpt lat="43.36463" lon="-0.48143">
        <ele>156.83</ele>
        <time>2019-10-26T08:02:23Z</time>
      </trkpt>
      <trkpt lat="43.36452" lon="-0.48099">
        <ele>158.27</ele>
        <time>2019-10-26T08:02:34Z</time>
      </trkpt>
      <trkpt lat="43.36432" lon="-0.4803">
        <ele>156.83</ele>
        <time>2019-10-26T08:02:50Z</time>
      </trkpt>
      <trkpt lat="43.36406" lon="-0.47984">
        <ele>156.83</ele>
        <time>2019-10-26T08:03:03Z</time>
      </trkpt>
      <trkpt lat="43.36381" lon="-0.47927">
        <ele>156.35</ele>
        <time>2019-10-26T08:03:17Z</time>
      </trkpt>
      <trkpt lat="43.36381" lon="-0.4792">
        <ele>156.83</ele>
        <time>2019-10-26T08:03:19Z</time>
      </trkpt>
      <trkpt lat="43.36382" lon="-0.47916">
        <ele>157.31</ele>
        <time>2019-10-26T08:03:20Z</time>
      </trkpt>
      <trkpt lat="43.36383" lon="-0.47914">
        <ele>157.31</ele>
        <time>2019-10-26T08:03:21Z</time>
      </trkpt>
      <trkpt lat="43.36385" lon="-0.47911">
        <ele>157.31</ele>
        <time>2019-10-26T08:03:22Z</time>
      </trkpt>
      <trkpt lat="43.36387" lon="-0.47908">
        <ele>157.31</ele>
        <time>2019-10-26T08:03:23Z</time>
      </trkpt>
      <trkpt lat="43.36417" lon="-0.47862">
        <ele>158.75</ele>
        <time>2019-10-26T08:03:37Z</time>
      </trkpt>
      <trkpt lat="43.36453" lon="-0.47808">
        <ele>160.2</ele>
        <time>2019-10-26T08:03:52Z</time>
      </trkpt>
      <trkpt lat="43.36483" lon="-0.47764">
        <ele>160.68</ele>
        <time>2019-10-26T08:04:05Z</time>
      </trkpt>
      <trkpt lat="43.36505" lon="-0.47731">
        <ele>162.12</ele>
        <time>2019-10-26T08:04:19Z</time>
      </trkpt>
      <trkpt lat="43.36511" lon="-0.47721">
        <ele>165</ele>
        <time>2019-10-26T08:04:24Z</time>
      </trkpt>
      <trkpt lat="43.36512" lon="-0.4772">
        <ele>165</ele>
        <time>2019-10-26T08:04:25Z</time>
      </trkpt>
      <trkpt lat="43.36513" lon="-0.47718">
        <ele>165</ele>
        <time>2019-10-26T08:04:26Z</time>
      </trkpt>
      <trkpt lat="43.36514" lon="-0.47716">
        <ele>165.48</ele>
        <time>2019-10-26T08:04:27Z</time>
      </trkpt>
      <trkpt lat="43.36516" lon="-0.47715">
        <ele>165.48</ele>
        <time>2019-10-26T08:04:28Z</time>
      </trkpt>
      <trkpt lat="43.36532" lon="-0.47692">
        <ele>169.81</ele>
        <time>2019-10-26T08:04:44Z</time>
      </trkpt>
      <trkpt lat="43.36539" lon="-0.47668">
        <ele>172.69</ele>
        <time>2019-10-26T08:04:58Z</time>
      </trkpt>
      <trkpt lat="43.36536" lon="-0.47659">
        <ele>174.14</ele>
        <time>2019-10-26T08:05:03Z</time>
      </trkpt>
      <trkpt lat="43.36535" lon="-0.47658">
        <ele>174.62</ele>
        <time>2019-10-26T08:05:04Z</time>
      </trkpt>
      <trkpt lat="43.36534" lon="-0.47657">
        <ele>174.62</ele>
        <time>2019-10-26T08:05:05Z</time>
      </trkpt>
      <trkpt lat="43.36533" lon="-0.47656">
        <ele>174.62</ele>
        <time>2019-10-26T08:05:06Z</time>
      </trkpt>
      <trkpt lat="43.36532" lon="-0.47655">
        <ele>175.1</ele>
        <time>2019-10-26T08:05:07Z</time>
      </trkpt>
      <trkpt lat="43.3653" lon="-0.47651">
        <ele>176.06</ele>
        <time>2019-10-26T08:05:09Z</time>
      </trkpt>
      <trkpt lat="43.3653" lon="-0.47649">
        <ele>176.54</ele>
        <time>2019-10-26T08:05:10Z</time>
      </trkpt>
      <trkpt lat="43.36529" lon="-0.47647">
        <ele>176.54</ele>
        <time>2019-10-26T08:05:11Z</time>
      </trkpt>
      <trkpt lat="43.36528" lon="-0.47645">
        <ele>176.54</ele>
        <time>2019-10-26T08:05:12Z</time>
      </trkpt>
      <trkpt lat="43.36526" lon="-0.47643">
        <ele>176.54</ele>
        <time>2019-10-26T08:05:13Z</time>
      </trkpt>
      <trkpt lat="43.36525" lon="-0.47641">
        <ele>177.02</ele>
        <time>2019-10-26T08:05:14Z</time>
      </trkpt>
      <trkpt lat="43.36524" lon="-0.47639">
        <ele>177.5</ele>
        <time>2019-10-26T08:05:15Z</time>
      </trkpt>
      <trkpt lat="43.36523" lon="-0.47637">
        <ele>177.5</ele>
        <time>2019-10-26T08:05:16Z</time>
      </trkpt>
      <trkpt lat="43.36522" lon="-0.47635">
        <ele>177.98</ele>
        <time>2019-10-26T08:05:17Z</time>
      </trkpt>
      <trkpt lat="43.36521" lon="-0.47633">
        <ele>178.46</ele>
        <time>2019-10-26T08:05:18Z</time>
      </trkpt>
      <trkpt lat="43.36519" lon="-0.47631">
        <ele>178.94</ele>
        <time>2019-10-26T08:05:19Z</time>
      </trkpt>
      <trkpt lat="43.36499" lon="-0.47605">
        <ele>176.54</ele>
        <time>2019-10-26T08:05:30Z</time>
      </trkpt>
      <trkpt lat="43.36475" lon="-0.47584">
        <ele>177.5</ele>
        <time>2019-10-26T08:05:42Z</time>
      </trkpt>
      <trkpt lat="43.36454" lon="-0.47564">
        <ele>178.46</ele>
        <time>2019-10-26T08:05:54Z</time>
      </trkpt>
      <trkpt lat="43.36435" lon="-0.47541">
        <ele>179.42</ele>
        <time>2019-10-26T08:06:07Z</time>
      </trkpt>
      <trkpt lat="43.36435" lon="-0.47539">
        <ele>179.9</ele>
        <time>2019-10-26T08:06:30Z</time>
      </trkpt>
      <trkpt lat="43.36438" lon="-0.47543">
        <ele>174.62</ele>
        <time>2019-10-26T08:07:01Z</time>
      </trkpt>
      <trkpt lat="43.36433" lon="-0.4754">
        <ele>176.06</ele>
        <time>2019-10-26T08:07:27Z</time>
      </trkpt>
      <trkpt lat="43.36415" lon="-0.4752">
        <ele>179.9</ele>
        <time>2019-10-26T08:07:40Z</time>
      </trkpt>
      <trkpt lat="43.3639" lon="-0.47483">
        <ele>178.46</ele>
        <time>2019-10-26T08:07:53Z</time>
      </trkpt>
      <trkpt lat="43.36367" lon="-0.47452">
        <ele>178.94</ele>
        <time>2019-10-26T08:08:05Z</time>
      </trkpt>
      <trkpt lat="43.36344" lon="-0.47414">
        <ele>181.35</ele>
        <time>2019-10-26T08:08:17Z</time>
      </trkpt>
      <trkpt lat="43.36328" lon="-0.47359">
        <ele>179.42</ele>
        <time>2019-10-26T08:08:32Z</time>
      </trkpt>
      <trkpt lat="43.36315" lon="-0.47316">
        <ele>177.5</ele>
        <time>2019-10-26T08:08:44Z</time>
      </trkpt>
      <trkpt lat="43.36296" lon="-0.47271">
        <ele>177.5</ele>
        <time>2019-10-26T08:08:58Z</time>
      </trkpt>
      <trkpt lat="43.36289" lon="-0.47217">
        <ele>178.46</ele>
        <time>2019-10-26T08:09:14Z</time>
      </trkpt>
      <trkpt lat="43.36279" lon="-0.47166">
        <ele>185.67</ele>
        <time>2019-10-26T08:09:29Z</time>
      </trkpt>
      <trkpt lat="43.3627" lon="-0.47115">
        <ele>188.08</ele>
        <time>2019-10-26T08:09:44Z</time>
      </trkpt>
      <trkpt lat="43.36266" lon="-0.47086">
        <ele>188.56</ele>
        <time>2019-10-26T08:09:52Z</time>
      </trkpt>
      <trkpt lat="43.36266" lon="-0.47081">
        <ele>188.56</ele>
        <time>2019-10-26T08:09:53Z</time>
      </trkpt>
      <trkpt lat="43.36266" lon="-0.47078">
        <ele>188.56</ele>
        <time>2019-10-26T08:09:54Z</time>
      </trkpt>
      <trkpt lat="43.36269" lon="-0.47036">
        <ele>188.56</ele>
        <time>2019-10-26T08:10:06Z</time>
      </trkpt>
      <trkpt lat="43.3627" lon="-0.47034">
        <ele>188.08</ele>
        <time>2019-10-26T08:10:07Z</time>
      </trkpt>
      <trkpt lat="43.36272" lon="-0.47032">
        <ele>188.08</ele>
        <time>2019-10-26T08:10:08Z</time>
      </trkpt>
      <trkpt lat="43.36274" lon="-0.47029">
        <ele>188.08</ele>
        <time>2019-10-26T08:10:09Z</time>
      </trkpt>
      <trkpt lat="43.36275" lon="-0.47027">
        <ele>188.08</ele>
        <time>2019-10-26T08:10:10Z</time>
      </trkpt>
      <trkpt lat="43.36276" lon="-0.47024">
        <ele>188.08</ele>
        <time>2019-10-26T08:10:11Z</time>
      </trkpt>
      <trkpt lat="43.36277" lon="-0.47022">
        <ele>187.59</ele>
        <time>2019-10-26T08:10:12Z</time>
      </trkpt>
      <trkpt lat="43.36276" lon="-0.47019">
        <ele>187.11</ele>
        <time>2019-10-26T08:10:13Z</time>
      </trkpt>
      <trkpt lat="43.36275" lon="-0.47015">
        <ele>187.11</ele>
        <time>2019-10-26T08:10:14Z</time>
      </trkpt>
      <trkpt lat="43.36273" lon="-0.47004">
        <ele>187.11</ele>
        <time>2019-10-26T08:10:16Z</time>
      </trkpt>
      <trkpt lat="43.36271" lon="-0.47">
        <ele>187.11</ele>
        <time>2019-10-26T08:10:17Z</time>
      </trkpt>
      <trkpt lat="43.36268" lon="-0.46998">
        <ele>186.63</ele>
        <time>2019-10-26T08:10:18Z</time>
      </trkpt>
      <trkpt lat="43.36265" lon="-0.46997">
        <ele>186.63</ele>
        <time>2019-10-26T08:10:19Z</time>
      </trkpt>
      <trkpt lat="43.36262" lon="-0.46995">
        <ele>187.11</ele>
        <time>2019-10-26T08:10:20Z</time>
      </trkpt>
      <trkpt lat="43.36226" lon="-0.4697">
        <ele>188.08</ele>
        <time>2019-10-26T08:10:33Z</time>
      </trkpt>
      <trkpt lat="43.3619" lon="-0.46916">
        <ele>185.67</ele>
        <time>2019-10-26T08:10:47Z</time>
      </trkpt>
      <trkpt lat="43.36171" lon="-0.46881">
        <ele>184.23</ele>
        <time>2019-10-26T08:10:55Z</time>
      </trkpt>
      <trkpt lat="43.36157" lon="-0.46863">
        <ele>183.27</ele>
        <time>2019-10-26T08:10:59Z</time>
      </trkpt>
      <trkpt lat="43.36154" lon="-0.4686">
        <ele>182.79</ele>
        <time>2019-10-26T08:11:00Z</time>
      </trkpt>
      <trkpt lat="43.36138" lon="-0.46829">
        <ele>178.94</ele>
        <time>2019-10-26T08:11:09Z</time>
      </trkpt>
      <trkpt lat="43.36132" lon="-0.46802">
        <ele>181.83</ele>
        <time>2019-10-26T08:11:21Z</time>
      </trkpt>
      <trkpt lat="43.36131" lon="-0.46771">
        <ele>186.63</ele>
        <time>2019-10-26T08:11:35Z</time>
      </trkpt>
      <trkpt lat="43.36133" lon="-0.46763">
        <ele>187.11</ele>
        <time>2019-10-26T08:11:39Z</time>
      </trkpt>
      <trkpt lat="43.36133" lon="-0.46748">
        <ele>188.56</ele>
        <time>2019-10-26T08:11:47Z</time>
      </trkpt>
      <trkpt lat="43.36135" lon="-0.46735">
        <ele>190.96</ele>
        <time>2019-10-26T08:11:54Z</time>
      </trkpt>
      <trkpt lat="43.36136" lon="-0.46733">
        <ele>190.96</ele>
        <time>2019-10-26T08:11:55Z</time>
      </trkpt>
      <trkpt lat="43.36138" lon="-0.46721">
        <ele>190.48</ele>
        <time>2019-10-26T08:12:00Z</time>
      </trkpt>
      <trkpt lat="43.36152" lon="-0.46693">
        <ele>190</ele>
        <time>2019-10-26T08:12:12Z</time>
      </trkpt>
      <trkpt lat="43.36164" lon="-0.46667">
        <ele>190.48</ele>
        <time>2019-10-26T08:12:27Z</time>
      </trkpt>
      <trkpt lat="43.36169" lon="-0.46663">
        <ele>190.96</ele>
        <time>2019-10-26T08:12:30Z</time>
      </trkpt>
      <trkpt lat="43.36171" lon="-0.46663">
        <ele>191.44</ele>
        <time>2019-10-26T08:12:32Z</time>
      </trkpt>
      <trkpt lat="43.36172" lon="-0.46665">
        <ele>191.44</ele>
        <time>2019-10-26T08:12:33Z</time>
      </trkpt>
      <trkpt lat="43.36183" lon="-0.46685">
        <ele>194.32</ele>
        <time>2019-10-26T08:12:47Z</time>
      </trkpt>
      <trkpt lat="43.36184" lon="-0.46687">
        <ele>194.8</ele>
        <time>2019-10-26T08:12:48Z</time>
      </trkpt>
      <trkpt lat="43.36184" lon="-0.46689">
        <ele>194.8</ele>
        <time>2019-10-26T08:12:49Z</time>
      </trkpt>
      <trkpt lat="43.36185" lon="-0.4669">
        <ele>194.8</ele>
        <time>2019-10-26T08:12:50Z</time>
      </trkpt>
      <trkpt lat="43.36185" lon="-0.46692">
        <ele>194.8</ele>
        <time>2019-10-26T08:12:51Z</time>
      </trkpt>
      <trkpt lat="43.36186" lon="-0.46694">
        <ele>194.8</ele>
        <time>2019-10-26T08:12:52Z</time>
      </trkpt>
      <trkpt lat="43.36186" lon="-0.46696">
        <ele>194.8</ele>
        <time>2019-10-26T08:12:53Z</time>
      </trkpt>
      <trkpt lat="43.36195" lon="-0.46721">
        <ele>195.28</ele>
        <time>2019-10-26T08:13:09Z</time>
      </trkpt>
      <trkpt lat="43.36207" lon="-0.46743">
        <ele>196.73</ele>
        <time>2019-10-26T08:13:24Z</time>
      </trkpt>
      <trkpt lat="43.36208" lon="-0.46744">
        <ele>197.21</ele>
        <time>2019-10-26T08:13:25Z</time>
      </trkpt>
      <trkpt lat="43.36209" lon="-0.46747">
        <ele>197.69</ele>
        <time>2019-10-26T08:13:27Z</time>
      </trkpt>
      <trkpt lat="43.3622" lon="-0.46767">
        <ele>200.57</ele>
        <time>2019-10-26T08:13:42Z</time>
      </trkpt>
      <trkpt lat="43.36231" lon="-0.46789">
        <ele>204.42</ele>
        <time>2019-10-26T08:13:58Z</time>
      </trkpt>
      <trkpt lat="43.36244" lon="-0.46805">
        <ele>204.9</ele>
        <time>2019-10-26T08:14:11Z</time>
      </trkpt>
      <trkpt lat="43.36262" lon="-0.46823">
        <ele>206.82</ele>
        <time>2019-10-26T08:14:27Z</time>
      </trkpt>
      <trkpt lat="43.36283" lon="-0.46841">
        <ele>212.11</ele>
        <time>2019-10-26T08:14:43Z</time>
      </trkpt>
      <trkpt lat="43.36311" lon="-0.46847">
        <ele>215.95</ele>
        <time>2019-10-26T08:14:58Z</time>
      </trkpt>
      <trkpt lat="43.36334" lon="-0.4684">
        <ele>217.88</ele>
        <time>2019-10-26T08:15:13Z</time>
      </trkpt>
      <trkpt lat="43.36357" lon="-0.46831">
        <ele>219.32</ele>
        <time>2019-10-26T08:15:29Z</time>
      </trkpt>
      <trkpt lat="43.36377" lon="-0.46818">
        <ele>220.28</ele>
        <time>2019-10-26T08:15:43Z</time>
      </trkpt>
      <trkpt lat="43.36393" lon="-0.46811">
        <ele>220.28</ele>
        <time>2019-10-26T08:15:55Z</time>
      </trkpt>
      <trkpt lat="43.36407" lon="-0.46809">
        <ele>220.76</ele>
        <time>2019-10-26T08:16:04Z</time>
      </trkpt>
      <trkpt lat="43.36408" lon="-0.46808">
        <ele>221.24</ele>
        <time>2019-10-26T08:16:05Z</time>
      </trkpt>
      <trkpt lat="43.3641" lon="-0.46807">
        <ele>221.24</ele>
        <time>2019-10-26T08:16:06Z</time>
      </trkpt>
      <trkpt lat="43.36431" lon="-0.46811">
        <ele>223.64</ele>
        <time>2019-10-26T08:16:20Z</time>
      </trkpt>
      <trkpt lat="43.36445" lon="-0.46814">
        <ele>228.45</ele>
        <time>2019-10-26T08:16:32Z</time>
      </trkpt>
      <trkpt lat="43.36471" lon="-0.46813">
        <ele>231.33</ele>
        <time>2019-10-26T08:16:46Z</time>
      </trkpt>
      <trkpt lat="43.36477" lon="-0.46813">
        <ele>232.3</ele>
        <time>2019-10-26T08:17:00Z</time>
      </trkpt>
      <trkpt lat="43.3648" lon="-0.46812">
        <ele>230.85</ele>
        <time>2019-10-26T08:17:28Z</time>
      </trkpt>
      <trkpt lat="43.3648" lon="-0.46812">
        <ele>231.33</ele>
        <time>2019-10-26T08:17:48Z</time>
      </trkpt>
      <trkpt lat="43.3648" lon="-0.46812">
        <ele>234.7</ele>
        <time>2019-10-26T08:18:14Z</time>
      </trkpt>
      <trkpt lat="43.3648" lon="-0.46815">
        <ele>236.14</ele>
        <time>2019-10-26T08:18:43Z</time>
      </trkpt>
      <trkpt lat="43.36483" lon="-0.46814">
        <ele>235.66</ele>
        <time>2019-10-26T08:19:20Z</time>
      </trkpt>
      <trkpt lat="43.36484" lon="-0.46814">
        <ele>237.1</ele>
        <time>2019-10-26T08:19:48Z</time>
      </trkpt>
      <trkpt lat="43.36482" lon="-0.46812">
        <ele>238.54</ele>
        <time>2019-10-26T08:20:16Z</time>
      </trkpt>
      <trkpt lat="43.36479" lon="-0.46811">
        <ele>238.54</ele>
        <time>2019-10-26T08:20:57Z</time>
      </trkpt>
      <trkpt lat="43.36479" lon="-0.46811">
        <ele>237.1</ele>
        <time>2019-10-26T08:21:29Z</time>
      </trkpt>
      <trkpt lat="43.36479" lon="-0.46811">
        <ele>238.54</ele>
        <time>2019-10-26T08:21:56Z</time>
      </trkpt>
      <trkpt lat="43.36481" lon="-0.46813">
        <ele>235.18</ele>
        <time>2019-10-26T08:22:16Z</time>
      </trkpt>
      <trkpt lat="43.3649" lon="-0.4681">
        <ele>234.22</ele>
        <time>2019-10-26T08:22:31Z</time>
      </trkpt>
      <trkpt lat="43.36508" lon="-0.46807">
        <ele>232.3</ele>
        <time>2019-10-26T08:22:41Z</time>
      </trkpt>
      <trkpt lat="43.36513" lon="-0.46805">
        <ele>232.3</ele>
        <time>2019-10-26T08:22:42Z</time>
      </trkpt>
      <trkpt lat="43.36517" lon="-0.46803">
        <ele>232.3</ele>
        <time>2019-10-26T08:22:43Z</time>
      </trkpt>
      <trkpt lat="43.36521" lon="-0.46801">
        <ele>231.81</ele>
        <time>2019-10-26T08:22:44Z</time>
      </trkpt>
      <trkpt lat="43.36525" lon="-0.46802">
        <ele>231.81</ele>
        <time>2019-10-26T08:22:45Z</time>
      </trkpt>
      <trkpt lat="43.3653" lon="-0.46804">
        <ele>231.33</ele>
        <time>2019-10-26T08:22:46Z</time>
      </trkpt>
      <trkpt lat="43.36534" lon="-0.46807">
        <ele>230.85</ele>
        <time>2019-10-26T08:22:47Z</time>
      </trkpt>
      <trkpt lat="43.36562" lon="-0.46833">
        <ele>229.89</ele>
        <time>2019-10-26T08:22:53Z</time>
      </trkpt>
      <trkpt lat="43.36567" lon="-0.46838">
        <ele>229.41</ele>
        <time>2019-10-26T08:22:54Z</time>
      </trkpt>
      <trkpt lat="43.36571" lon="-0.46844">
        <ele>229.41</ele>
        <time>2019-10-26T08:22:55Z</time>
      </trkpt>
      <trkpt lat="43.36575" lon="-0.46849">
        <ele>228.93</ele>
        <time>2019-10-26T08:22:56Z</time>
      </trkpt>
      <trkpt lat="43.36579" lon="-0.46853">
        <ele>228.93</ele>
        <time>2019-10-26T08:22:57Z</time>
      </trkpt>
      <trkpt lat="43.36584" lon="-0.46856">
        <ele>228.93</ele>
        <time>2019-10-26T08:22:58Z</time>
      </trkpt>
      <trkpt lat="43.36589" lon="-0.46859">
        <ele>228.45</ele>
        <time>2019-10-26T08:22:59Z</time>
      </trkpt>
      <trkpt lat="43.36593" lon="-0.46863">
        <ele>228.45</ele>
        <time>2019-10-26T08:23:00Z</time>
      </trkpt>
      <trkpt lat="43.36596" lon="-0.46869">
        <ele>227.97</ele>
        <time>2019-10-26T08:23:01Z</time>
      </trkpt>
      <trkpt lat="43.366" lon="-0.46874">
        <ele>227.97</ele>
        <time>2019-10-26T08:23:02Z</time>
      </trkpt>
      <trkpt lat="43.36605" lon="-0.46878">
        <ele>227.49</ele>
        <time>2019-10-26T08:23:03Z</time>
      </trkpt>
      <trkpt lat="43.36611" lon="-0.46882">
        <ele>227.01</ele>
        <time>2019-10-26T08:23:04Z</time>
      </trkpt>
      <trkpt lat="43.36625" lon="-0.46889">
        <ele>226.05</ele>
        <time>2019-10-26T08:23:06Z</time>
      </trkpt>
      <trkpt lat="43.36633" lon="-0.46891">
        <ele>225.57</ele>
        <time>2019-10-26T08:23:07Z</time>
      </trkpt>
      <trkpt lat="43.36692" lon="-0.46897">
        <ele>222.68</ele>
        <time>2019-10-26T08:23:13Z</time>
      </trkpt>
      <trkpt lat="43.36773" lon="-0.4692">
        <ele>217.4</ele>
        <time>2019-10-26T08:23:22Z</time>
      </trkpt>
      <trkpt lat="43.36779" lon="-0.46925">
        <ele>216.91</ele>
        <time>2019-10-26T08:23:23Z</time>
      </trkpt>
      <trkpt lat="43.36783" lon="-0.4693">
        <ele>216.43</ele>
        <time>2019-10-26T08:23:24Z</time>
      </trkpt>
      <trkpt lat="43.36785" lon="-0.46935">
        <ele>215.95</ele>
        <time>2019-10-26T08:23:25Z</time>
      </trkpt>
      <trkpt lat="43.36786" lon="-0.4694">
        <ele>215.47</ele>
        <time>2019-10-26T08:23:26Z</time>
      </trkpt>
      <trkpt lat="43.36797" lon="-0.46992">
        <ele>211.63</ele>
        <time>2019-10-26T08:23:35Z</time>
      </trkpt>
      <trkpt lat="43.36799" lon="-0.46998">
        <ele>211.15</ele>
        <time>2019-10-26T08:23:36Z</time>
      </trkpt>
      <trkpt lat="43.36814" lon="-0.47047">
        <ele>209.22</ele>
        <time>2019-10-26T08:23:44Z</time>
      </trkpt>
      <trkpt lat="43.36838" lon="-0.47151">
        <ele>204.9</ele>
        <time>2019-10-26T08:23:57Z</time>
      </trkpt>
      <trkpt lat="43.3685" lon="-0.47211">
        <ele>202.01</ele>
        <time>2019-10-26T08:24:03Z</time>
      </trkpt>
      <trkpt lat="43.3687" lon="-0.47276">
        <ele>199.13</ele>
        <time>2019-10-26T08:24:10Z</time>
      </trkpt>
      <trkpt lat="43.36892" lon="-0.47342">
        <ele>195.28</ele>
        <time>2019-10-26T08:24:20Z</time>
      </trkpt>
      <trkpt lat="43.36902" lon="-0.4737">
        <ele>194.8</ele>
        <time>2019-10-26T08:24:31Z</time>
      </trkpt>
      <trkpt lat="43.36902" lon="-0.47373">
        <ele>194.8</ele>
        <time>2019-10-26T08:24:32Z</time>
      </trkpt>
      <trkpt lat="43.36904" lon="-0.47377">
        <ele>194.8</ele>
        <time>2019-10-26T08:24:33Z</time>
      </trkpt>
      <trkpt lat="43.36906" lon="-0.47381">
        <ele>194.8</ele>
        <time>2019-10-26T08:24:34Z</time>
      </trkpt>
      <trkpt lat="43.36908" lon="-0.47385">
        <ele>195.28</ele>
        <time>2019-10-26T08:24:35Z</time>
      </trkpt>
      <trkpt lat="43.3691" lon="-0.4739">
        <ele>195.77</ele>
        <time>2019-10-26T08:24:36Z</time>
      </trkpt>
      <trkpt lat="43.36912" lon="-0.47394">
        <ele>196.25</ele>
        <time>2019-10-26T08:24:37Z</time>
      </trkpt>
      <trkpt lat="43.36916" lon="-0.47412">
        <ele>195.77</ele>
        <time>2019-10-26T08:24:41Z</time>
      </trkpt>
      <trkpt lat="43.36918" lon="-0.47415">
        <ele>195.77</ele>
        <time>2019-10-26T08:24:42Z</time>
      </trkpt>
      <trkpt lat="43.3692" lon="-0.47418">
        <ele>195.77</ele>
        <time>2019-10-26T08:24:43Z</time>
      </trkpt>
      <trkpt lat="43.36921" lon="-0.47421">
        <ele>195.77</ele>
        <time>2019-10-26T08:24:44Z</time>
      </trkpt>
      <trkpt lat="43.36922" lon="-0.47425">
        <ele>195.77</ele>
        <time>2019-10-26T08:24:45Z</time>
      </trkpt>
      <trkpt lat="43.36923" lon="-0.4743">
        <ele>195.28</ele>
        <time>2019-10-26T08:24:46Z</time>
      </trkpt>
      <trkpt lat="43.36948" lon="-0.47473">
        <ele>196.73</ele>
        <time>2019-10-26T08:24:55Z</time>
      </trkpt>
      <trkpt lat="43.3695" lon="-0.4748">
        <ele>196.73</ele>
        <time>2019-10-26T08:24:56Z</time>
      </trkpt>
      <trkpt lat="43.36962" lon="-0.47508">
        <ele>196.25</ele>
        <time>2019-10-26T08:25:01Z</time>
      </trkpt>
      <trkpt lat="43.36989" lon="-0.47549">
        <ele>196.73</ele>
        <time>2019-10-26T08:25:08Z</time>
      </trkpt>
      <trkpt lat="43.37003" lon="-0.47565">
        <ele>197.69</ele>
        <time>2019-10-26T08:25:11Z</time>
      </trkpt>
      <trkpt lat="43.37007" lon="-0.4757">
        <ele>197.69</ele>
        <time>2019-10-26T08:25:12Z</time>
      </trkpt>
      <trkpt lat="43.3703" lon="-0.47595">
        <ele>198.65</ele>
        <time>2019-10-26T08:25:17Z</time>
      </trkpt>
      <trkpt lat="43.37034" lon="-0.47601">
        <ele>199.13</ele>
        <time>2019-10-26T08:25:18Z</time>
      </trkpt>
      <trkpt lat="43.37037" lon="-0.47607">
        <ele>199.13</ele>
        <time>2019-10-26T08:25:19Z</time>
      </trkpt>
      <trkpt lat="43.37064" lon="-0.47651">
        <ele>197.69</ele>
        <time>2019-10-26T08:25:27Z</time>
      </trkpt>
      <trkpt lat="43.37069" lon="-0.47657">
        <ele>197.21</ele>
        <time>2019-10-26T08:25:28Z</time>
      </trkpt>
      <trkpt lat="43.37095" lon="-0.477">
        <ele>194.32</ele>
        <time>2019-10-26T08:25:36Z</time>
      </trkpt>
      <trkpt lat="43.37099" lon="-0.47706">
        <ele>194.32</ele>
        <time>2019-10-26T08:25:37Z</time>
      </trkpt>
      <trkpt lat="43.37102" lon="-0.47711">
        <ele>194.32</ele>
        <time>2019-10-26T08:25:38Z</time>
      </trkpt>
      <trkpt lat="43.37105" lon="-0.47718">
        <ele>194.32</ele>
        <time>2019-10-26T08:25:39Z</time>
      </trkpt>
      <trkpt lat="43.37106" lon="-0.47724">
        <ele>193.84</ele>
        <time>2019-10-26T08:25:40Z</time>
      </trkpt>
      <trkpt lat="43.37107" lon="-0.47731">
        <ele>193.36</ele>
        <time>2019-10-26T08:25:41Z</time>
      </trkpt>
      <trkpt lat="43.37108" lon="-0.47738">
        <ele>192.4</ele>
        <time>2019-10-26T08:25:42Z</time>
      </trkpt>
      <trkpt lat="43.3711" lon="-0.47745">
        <ele>191.92</ele>
        <time>2019-10-26T08:25:43Z</time>
      </trkpt>
      <trkpt lat="43.37113" lon="-0.47751">
        <ele>191.44</ele>
        <time>2019-10-26T08:25:44Z</time>
      </trkpt>
      <trkpt lat="43.37116" lon="-0.47759">
        <ele>190.48</ele>
        <time>2019-10-26T08:25:45Z</time>
      </trkpt>
      <trkpt lat="43.37118" lon="-0.47768">
        <ele>190</ele>
        <time>2019-10-26T08:25:46Z</time>
      </trkpt>
      <trkpt lat="43.3712" lon="-0.47776">
        <ele>188.56</ele>
        <time>2019-10-26T08:25:47Z</time>
      </trkpt>
      <trkpt lat="43.37128" lon="-0.47805">
        <ele>186.15</ele>
        <time>2019-10-26T08:25:51Z</time>
      </trkpt>
      <trkpt lat="43.37137" lon="-0.47836">
        <ele>182.79</ele>
        <time>2019-10-26T08:25:56Z</time>
      </trkpt>
      <trkpt lat="43.3714" lon="-0.47842">
        <ele>181.83</ele>
        <time>2019-10-26T08:25:57Z</time>
      </trkpt>
      <trkpt lat="43.37142" lon="-0.47847">
        <ele>180.87</ele>
        <time>2019-10-26T08:25:58Z</time>
      </trkpt>
      <trkpt lat="43.37146" lon="-0.47862">
        <ele>177.02</ele>
        <time>2019-10-26T08:26:07Z</time>
      </trkpt>
      <trkpt lat="43.37145" lon="-0.4787">
        <ele>173.66</ele>
        <time>2019-10-26T08:26:31Z</time>
      </trkpt>
      <trkpt lat="43.37147" lon="-0.4787">
        <ele>173.17</ele>
        <time>2019-10-26T08:26:56Z</time>
      </trkpt>
      <trkpt lat="43.37147" lon="-0.47873">
        <ele>173.17</ele>
        <time>2019-10-26T08:27:11Z</time>
      </trkpt>
      <trkpt lat="43.37148" lon="-0.47874">
        <ele>172.69</ele>
        <time>2019-10-26T08:27:12Z</time>
      </trkpt>
      <trkpt lat="43.37148" lon="-0.47876">
        <ele>172.21</ele>
        <time>2019-10-26T08:27:13Z</time>
      </trkpt>
      <trkpt lat="43.37148" lon="-0.47879">
        <ele>171.73</ele>
        <time>2019-10-26T08:27:14Z</time>
      </trkpt>
      <trkpt lat="43.37147" lon="-0.47882">
        <ele>171.73</ele>
        <time>2019-10-26T08:27:15Z</time>
      </trkpt>
      <trkpt lat="43.37146" lon="-0.47886">
        <ele>171.25</ele>
        <time>2019-10-26T08:27:16Z</time>
      </trkpt>
      <trkpt lat="43.37144" lon="-0.4789">
        <ele>171.25</ele>
        <time>2019-10-26T08:27:17Z</time>
      </trkpt>
      <trkpt lat="43.37142" lon="-0.47893">
        <ele>170.77</ele>
        <time>2019-10-26T08:27:18Z</time>
      </trkpt>
      <trkpt lat="43.37132" lon="-0.47908">
        <ele>169.81</ele>
        <time>2019-10-26T08:27:21Z</time>
      </trkpt>
      <trkpt lat="43.37077" lon="-0.47986">
        <ele>165.48</ele>
        <time>2019-10-26T08:27:33Z</time>
      </trkpt>
      <trkpt lat="43.36999" lon="-0.48081">
        <ele>161.64</ele>
        <time>2019-10-26T08:27:47Z</time>
      </trkpt>
      <trkpt lat="43.36987" lon="-0.48087">
        <ele>161.64</ele>
        <time>2019-10-26T08:27:49Z</time>
      </trkpt>
      <trkpt lat="43.36925" lon="-0.48093">
        <ele>162.6</ele>
        <time>2019-10-26T08:28:00Z</time>
      </trkpt>
      <trkpt lat="43.3692" lon="-0.48095">
        <ele>162.6</ele>
        <time>2019-10-26T08:28:01Z</time>
      </trkpt>
      <trkpt lat="43.36916" lon="-0.48099">
        <ele>162.12</ele>
        <time>2019-10-26T08:28:02Z</time>
      </trkpt>
      <trkpt lat="43.36912" lon="-0.48107">
        <ele>162.12</ele>
        <time>2019-10-26T08:28:03Z</time>
      </trkpt>
      <trkpt lat="43.36912" lon="-0.48112">
        <ele>162.12</ele>
        <time>2019-10-26T08:28:04Z</time>
      </trkpt>
      <trkpt lat="43.36912" lon="-0.48118">
        <ele>162.12</ele>
        <time>2019-10-26T08:28:05Z</time>
      </trkpt>
      <trkpt lat="43.36913" lon="-0.48125">
        <ele>161.64</ele>
        <time>2019-10-26T08:28:06Z</time>
      </trkpt>
      <trkpt lat="43.36916" lon="-0.48239">
        <ele>158.75</ele>
        <time>2019-10-26T08:28:19Z</time>
      </trkpt>
      <trkpt lat="43.36918" lon="-0.48245">
        <ele>158.27</ele>
        <time>2019-10-26T08:28:20Z</time>
      </trkpt>
      <trkpt lat="43.3692" lon="-0.4825">
        <ele>157.79</ele>
        <time>2019-10-26T08:28:21Z</time>
      </trkpt>
      <trkpt lat="43.36922" lon="-0.48254">
        <ele>157.31</ele>
        <time>2019-10-26T08:28:22Z</time>
      </trkpt>
      <trkpt lat="43.36925" lon="-0.48258">
        <ele>156.83</ele>
        <time>2019-10-26T08:28:23Z</time>
      </trkpt>
      <trkpt lat="43.36928" lon="-0.48262">
        <ele>156.83</ele>
        <time>2019-10-26T08:28:24Z</time>
      </trkpt>
      <trkpt lat="43.36932" lon="-0.48263">
        <ele>156.35</ele>
        <time>2019-10-26T08:28:25Z</time>
      </trkpt>
      <trkpt lat="43.36937" lon="-0.48263">
        <ele>156.35</ele>
        <time>2019-10-26T08:28:26Z</time>
      </trkpt>
      <trkpt lat="43.36941" lon="-0.48263">
        <ele>156.35</ele>
        <time>2019-10-26T08:28:27Z</time>
      </trkpt>
      <trkpt lat="43.36991" lon="-0.48262">
        <ele>156.83</ele>
        <time>2019-10-26T08:28:40Z</time>
      </trkpt>
      <trkpt lat="43.37046" lon="-0.48249">
        <ele>158.75</ele>
        <time>2019-10-26T08:28:59Z</time>
      </trkpt>
      <trkpt lat="43.3709" lon="-0.48236">
        <ele>159.24</ele>
        <time>2019-10-26T08:29:14Z</time>
      </trkpt>
      <trkpt lat="43.37105" lon="-0.4823">
        <ele>159.24</ele>
        <time>2019-10-26T08:29:20Z</time>
      </trkpt>
      <trkpt lat="43.37106" lon="-0.48229">
        <ele>159.72</ele>
        <time>2019-10-26T08:29:21Z</time>
      </trkpt>
      <trkpt lat="43.37106" lon="-0.48227">
        <ele>159.72</ele>
        <time>2019-10-26T08:29:22Z</time>
      </trkpt>
      <trkpt lat="43.37109" lon="-0.48211">
        <ele>161.16</ele>
        <time>2019-10-26T08:29:29Z</time>
      </trkpt>
      <trkpt lat="43.37105" lon="-0.48206">
        <ele>162.12</ele>
        <time>2019-10-26T08:29:31Z</time>
      </trkpt>
      <trkpt lat="43.37103" lon="-0.48205">
        <ele>162.12</ele>
        <time>2019-10-26T08:29:32Z</time>
      </trkpt>
      <trkpt lat="43.37101" lon="-0.48202">
        <ele>162.12</ele>
        <time>2019-10-26T08:29:33Z</time>
      </trkpt>
      <trkpt lat="43.37099" lon="-0.48199">
        <ele>162.12</ele>
        <time>2019-10-26T08:29:34Z</time>
      </trkpt>
      <trkpt lat="43.37098" lon="-0.48196">
        <ele>162.12</ele>
        <time>2019-10-26T08:29:35Z</time>
      </trkpt>
      <trkpt lat="43.37098" lon="-0.48193">
        <ele>161.64</ele>
        <time>2019-10-26T08:29:36Z</time>
      </trkpt>
      <trkpt lat="43.37098" lon="-0.48189">
        <ele>161.64</ele>
        <time>2019-10-26T08:29:37Z</time>
      </trkpt>
      <trkpt lat="43.37099" lon="-0.48185">
        <ele>161.64</ele>
        <time>2019-10-26T08:29:38Z</time>
      </trkpt>
      <trkpt lat="43.371" lon="-0.48181">
        <ele>161.16</ele>
        <time>2019-10-26T08:29:39Z</time>
      </trkpt>
      <trkpt lat="43.37101" lon="-0.48177">
        <ele>161.16</ele>
        <time>2019-10-26T08:29:40Z</time>
      </trkpt>
      <trkpt lat="43.37103" lon="-0.48173">
        <ele>161.16</ele>
        <time>2019-10-26T08:29:41Z</time>
      </trkpt>
      <trkpt lat="43.37105" lon="-0.4817">
        <ele>160.68</ele>
        <time>2019-10-26T08:29:42Z</time>
      </trkpt>
      <trkpt lat="43.37108" lon="-0.48167">
        <ele>160.68</ele>
        <time>2019-10-26T08:29:43Z</time>
      </trkpt>
      <trkpt lat="43.3711" lon="-0.48163">
        <ele>160.2</ele>
        <time>2019-10-26T08:29:44Z</time>
      </trkpt>
      <trkpt lat="43.37112" lon="-0.48159">
        <ele>160.2</ele>
        <time>2019-10-26T08:29:45Z</time>
      </trkpt>
      <trkpt lat="43.37139" lon="-0.48112">
        <ele>160.68</ele>
        <time>2019-10-26T08:29:59Z</time>
      </trkpt>
      <trkpt lat="43.37147" lon="-0.48099">
        <ele>161.64</ele>
        <time>2019-10-26T08:30:03Z</time>
      </trkpt>
      <trkpt lat="43.37148" lon="-0.48096">
        <ele>161.64</ele>
        <time>2019-10-26T08:30:04Z</time>
      </trkpt>
      <trkpt lat="43.37156" lon="-0.48052">
        <ele>165.96</ele>
        <time>2019-10-26T08:30:15Z</time>
      </trkpt>
      <trkpt lat="43.37165" lon="-0.48034">
        <ele>167.89</ele>
        <time>2019-10-26T08:30:20Z</time>
      </trkpt>
      <trkpt lat="43.37185" lon="-0.48018">
        <ele>170.77</ele>
        <time>2019-10-26T08:30:33Z</time>
      </trkpt>
      <trkpt lat="43.37198" lon="-0.48005">
        <ele>171.25</ele>
        <time>2019-10-26T08:30:43Z</time>
      </trkpt>
      <trkpt lat="43.372" lon="-0.48003">
        <ele>171.25</ele>
        <time>2019-10-26T08:30:46Z</time>
      </trkpt>
      <trkpt lat="43.37212" lon="-0.47997">
        <ele>175.58</ele>
        <time>2019-10-26T08:30:57Z</time>
      </trkpt>
      <trkpt lat="43.37226" lon="-0.47993">
        <ele>178.94</ele>
        <time>2019-10-26T08:31:10Z</time>
      </trkpt>
      <trkpt lat="43.3724" lon="-0.47992">
        <ele>179.9</ele>
        <time>2019-10-26T08:31:23Z</time>
      </trkpt>
      <trkpt lat="43.37245" lon="-0.4799">
        <ele>179.42</ele>
        <time>2019-10-26T08:31:40Z</time>
      </trkpt>
      <trkpt lat="43.37259" lon="-0.47985">
        <ele>180.87</ele>
        <time>2019-10-26T08:31:53Z</time>
      </trkpt>
      <trkpt lat="43.37272" lon="-0.4798">
        <ele>185.67</ele>
        <time>2019-10-26T08:32:06Z</time>
      </trkpt>
      <trkpt lat="43.37288" lon="-0.47973">
        <ele>187.11</ele>
        <time>2019-10-26T08:32:20Z</time>
      </trkpt>
      <trkpt lat="43.37303" lon="-0.47976">
        <ele>190</ele>
        <time>2019-10-26T08:32:34Z</time>
      </trkpt>
      <trkpt lat="43.37311" lon="-0.47978">
        <ele>190.48</ele>
        <time>2019-10-26T08:32:42Z</time>
      </trkpt>
      <trkpt lat="43.37322" lon="-0.47986">
        <ele>191.44</ele>
        <time>2019-10-26T08:32:50Z</time>
      </trkpt>
      <trkpt lat="43.37339" lon="-0.47988">
        <ele>194.32</ele>
        <time>2019-10-26T08:33:03Z</time>
      </trkpt>
      <trkpt lat="43.37344" lon="-0.47985">
        <ele>192.88</ele>
        <time>2019-10-26T08:33:25Z</time>
      </trkpt>
      <trkpt lat="43.37345" lon="-0.47986">
        <ele>196.25</ele>
        <time>2019-10-26T08:33:50Z</time>
      </trkpt>
      <trkpt lat="43.37343" lon="-0.47985">
        <ele>193.84</ele>
        <time>2019-10-26T08:34:14Z</time>
      </trkpt>
      <trkpt lat="43.37339" lon="-0.47987">
        <ele>192.88</ele>
        <time>2019-10-26T08:34:24Z</time>
      </trkpt>
      <trkpt lat="43.37322" lon="-0.4798">
        <ele>194.32</ele>
        <time>2019-10-26T08:34:30Z</time>
      </trkpt>
      <trkpt lat="43.37315" lon="-0.47979">
        <ele>194.32</ele>
        <time>2019-10-26T08:34:32Z</time>
      </trkpt>
      <trkpt lat="43.373" lon="-0.47971">
        <ele>193.84</ele>
        <time>2019-10-26T08:34:36Z</time>
      </trkpt>
      <trkpt lat="43.37293" lon="-0.4795">
        <ele>192.88</ele>
        <time>2019-10-26T08:34:40Z</time>
      </trkpt>
      <trkpt lat="43.37273" lon="-0.47953">
        <ele>190.48</ele>
        <time>2019-10-26T08:34:47Z</time>
      </trkpt>
      <trkpt lat="43.37266" lon="-0.47947">
        <ele>189.52</ele>
        <time>2019-10-26T08:34:50Z</time>
      </trkpt>
      <trkpt lat="43.37238" lon="-0.47943">
        <ele>186.63</ele>
        <time>2019-10-26T08:34:57Z</time>
      </trkpt>
      <trkpt lat="43.37231" lon="-0.47952">
        <ele>185.67</ele>
        <time>2019-10-26T08:34:59Z</time>
      </trkpt>
      <trkpt lat="43.37217" lon="-0.47989">
        <ele>182.79</ele>
        <time>2019-10-26T08:35:07Z</time>
      </trkpt>
      <trkpt lat="43.37214" lon="-0.47991">
        <ele>182.79</ele>
        <time>2019-10-26T08:35:08Z</time>
      </trkpt>
      <trkpt lat="43.37187" lon="-0.48013">
        <ele>180.87</ele>
        <time>2019-10-26T08:35:16Z</time>
      </trkpt>
      <trkpt lat="43.37173" lon="-0.48023">
        <ele>175.58</ele>
        <time>2019-10-26T08:35:25Z</time>
      </trkpt>
      <trkpt lat="43.3717" lon="-0.48023">
        <ele>171.73</ele>
        <time>2019-10-26T08:35:50Z</time>
      </trkpt>
      <trkpt lat="43.37169" lon="-0.48022">
        <ele>171.25</ele>
        <time>2019-10-26T08:36:17Z</time>
      </trkpt>
      <trkpt lat="43.37169" lon="-0.48023">
        <ele>170.29</ele>
        <time>2019-10-26T08:36:45Z</time>
      </trkpt>
      <trkpt lat="43.37167" lon="-0.48026">
        <ele>171.25</ele>
        <time>2019-10-26T08:37:01Z</time>
      </trkpt>
      <trkpt lat="43.3716" lon="-0.48039">
        <ele>171.25</ele>
        <time>2019-10-26T08:37:07Z</time>
      </trkpt>
      <trkpt lat="43.37151" lon="-0.48084">
        <ele>175.1</ele>
        <time>2019-10-26T08:37:18Z</time>
      </trkpt>
      <trkpt lat="43.37132" lon="-0.48117">
        <ele>176.54</ele>
        <time>2019-10-26T08:37:26Z</time>
      </trkpt>
      <trkpt lat="43.37128" lon="-0.48123">
        <ele>176.54</ele>
        <time>2019-10-26T08:37:27Z</time>
      </trkpt>
      <trkpt lat="43.37121" lon="-0.48134">
        <ele>177.02</ele>
        <time>2019-10-26T08:37:29Z</time>
      </trkpt>
      <trkpt lat="43.37118" lon="-0.4814">
        <ele>177.02</ele>
        <time>2019-10-26T08:37:30Z</time>
      </trkpt>
      <trkpt lat="43.37115" lon="-0.48146">
        <ele>177.5</ele>
        <time>2019-10-26T08:37:31Z</time>
      </trkpt>
      <trkpt lat="43.37111" lon="-0.48153">
        <ele>177.5</ele>
        <time>2019-10-26T08:37:32Z</time>
      </trkpt>
      <trkpt lat="43.37107" lon="-0.48159">
        <ele>177.5</ele>
        <time>2019-10-26T08:37:33Z</time>
      </trkpt>
      <trkpt lat="43.37104" lon="-0.48166">
        <ele>177.5</ele>
        <time>2019-10-26T08:37:34Z</time>
      </trkpt>
      <trkpt lat="43.37102" lon="-0.48173">
        <ele>177.98</ele>
        <time>2019-10-26T08:37:35Z</time>
      </trkpt>
      <trkpt lat="43.37102" lon="-0.4818">
        <ele>177.98</ele>
        <time>2019-10-26T08:37:36Z</time>
      </trkpt>
      <trkpt lat="43.37103" lon="-0.48186">
        <ele>177.5</ele>
        <time>2019-10-26T08:37:37Z</time>
      </trkpt>
      <trkpt lat="43.37105" lon="-0.4819">
        <ele>177.02</ele>
        <time>2019-10-26T08:37:38Z</time>
      </trkpt>
      <trkpt lat="43.37107" lon="-0.48194">
        <ele>177.02</ele>
        <time>2019-10-26T08:37:39Z</time>
      </trkpt>
      <trkpt lat="43.3711" lon="-0.48197">
        <ele>176.54</ele>
        <time>2019-10-26T08:37:40Z</time>
      </trkpt>
      <trkpt lat="43.37112" lon="-0.48202">
        <ele>175.58</ele>
        <time>2019-10-26T08:37:41Z</time>
      </trkpt>
      <trkpt lat="43.37113" lon="-0.48207">
        <ele>175.1</ele>
        <time>2019-10-26T08:37:42Z</time>
      </trkpt>
      <trkpt lat="43.37112" lon="-0.48211">
        <ele>174.14</ele>
        <time>2019-10-26T08:37:43Z</time>
      </trkpt>
      <trkpt lat="43.37111" lon="-0.48215">
        <ele>173.66</ele>
        <time>2019-10-26T08:37:44Z</time>
      </trkpt>
      <trkpt lat="43.37111" lon="-0.4822">
        <ele>173.17</ele>
        <time>2019-10-26T08:37:45Z</time>
      </trkpt>
      <trkpt lat="43.37111" lon="-0.48224">
        <ele>172.69</ele>
        <time>2019-10-26T08:37:46Z</time>
      </trkpt>
      <trkpt lat="43.37111" lon="-0.48228">
        <ele>172.21</ele>
        <time>2019-10-26T08:37:47Z</time>
      </trkpt>
      <trkpt lat="43.37113" lon="-0.48231">
        <ele>172.21</ele>
        <time>2019-10-26T08:37:48Z</time>
      </trkpt>
      <trkpt lat="43.37115" lon="-0.48233">
        <ele>172.21</ele>
        <time>2019-10-26T08:37:49Z</time>
      </trkpt>
      <trkpt lat="43.37118" lon="-0.48235">
        <ele>172.21</ele>
        <time>2019-10-26T08:37:50Z</time>
      </trkpt>
      <trkpt lat="43.37148" lon="-0.48253">
        <ele>171.25</ele>
        <time>2019-10-26T08:37:58Z</time>
      </trkpt>
      <trkpt lat="43.37202" lon="-0.48289">
        <ele>169.33</ele>
        <time>2019-10-26T08:38:12Z</time>
      </trkpt>
      <trkpt lat="43.37252" lon="-0.48305">
        <ele>168.85</ele>
        <time>2019-10-26T08:38:26Z</time>
      </trkpt>
      <trkpt lat="43.37283" lon="-0.48328">
        <ele>172.69</ele>
        <time>2019-10-26T08:38:37Z</time>
      </trkpt>
      <trkpt lat="43.37317" lon="-0.48371">
        <ele>172.21</ele>
        <time>2019-10-26T08:38:52Z</time>
      </trkpt>
      <trkpt lat="43.3734" lon="-0.484">
        <ele>172.21</ele>
        <time>2019-10-26T08:39:05Z</time>
      </trkpt>
      <trkpt lat="43.37355" lon="-0.48422">
        <ele>173.17</ele>
        <time>2019-10-26T08:39:21Z</time>
      </trkpt>
      <trkpt lat="43.37357" lon="-0.48425">
        <ele>169.33</ele>
        <time>2019-10-26T08:39:45Z</time>
      </trkpt>
      <trkpt lat="43.37361" lon="-0.48427">
        <ele>168.37</ele>
        <time>2019-10-26T08:39:50Z</time>
      </trkpt>
      <trkpt lat="43.37374" lon="-0.48437">
        <ele>169.81</ele>
        <time>2019-10-26T08:40:01Z</time>
      </trkpt>
      <trkpt lat="43.37392" lon="-0.48459">
        <ele>176.54</ele>
        <time>2019-10-26T08:40:16Z</time>
      </trkpt>
      <trkpt lat="43.37399" lon="-0.48466">
        <ele>178.46</ele>
        <time>2019-10-26T08:40:21Z</time>
      </trkpt>
      <trkpt lat="43.37401" lon="-0.48466">
        <ele>179.42</ele>
        <time>2019-10-26T08:40:22Z</time>
      </trkpt>
      <trkpt lat="43.37402" lon="-0.48467">
        <ele>179.9</ele>
        <time>2019-10-26T08:40:23Z</time>
      </trkpt>
      <trkpt lat="43.37404" lon="-0.48468">
        <ele>180.38</ele>
        <time>2019-10-26T08:40:24Z</time>
      </trkpt>
      <trkpt lat="43.37405" lon="-0.48468">
        <ele>180.87</ele>
        <time>2019-10-26T08:40:25Z</time>
      </trkpt>
      <trkpt lat="43.37407" lon="-0.48469">
        <ele>181.35</ele>
        <time>2019-10-26T08:40:26Z</time>
      </trkpt>
      <trkpt lat="43.37427" lon="-0.48473">
        <ele>187.11</ele>
        <time>2019-10-26T08:40:41Z</time>
      </trkpt>
      <trkpt lat="43.37429" lon="-0.48473">
        <ele>187.59</ele>
        <time>2019-10-26T08:40:42Z</time>
      </trkpt>
      <trkpt lat="43.3743" lon="-0.48473">
        <ele>188.08</ele>
        <time>2019-10-26T08:40:43Z</time>
      </trkpt>
      <trkpt lat="43.37432" lon="-0.48473">
        <ele>188.56</ele>
        <time>2019-10-26T08:40:44Z</time>
      </trkpt>
      <trkpt lat="43.37433" lon="-0.48473">
        <ele>188.56</ele>
        <time>2019-10-26T08:40:45Z</time>
      </trkpt>
      <trkpt lat="43.37452" lon="-0.48465">
        <ele>190.48</ele>
        <time>2019-10-26T08:41:00Z</time>
      </trkpt>
      <trkpt lat="43.3747" lon="-0.48454">
        <ele>191.92</ele>
        <time>2019-10-26T08:41:14Z</time>
      </trkpt>
      <trkpt lat="43.37488" lon="-0.48444">
        <ele>195.77</ele>
        <time>2019-10-26T08:41:29Z</time>
      </trkpt>
      <trkpt lat="43.37494" lon="-0.48441">
        <ele>196.25</ele>
        <time>2019-10-26T08:41:34Z</time>
      </trkpt>
      <trkpt lat="43.37512" lon="-0.48437">
        <ele>198.65</ele>
        <time>2019-10-26T08:41:49Z</time>
      </trkpt>
      <trkpt lat="43.37521" lon="-0.48437">
        <ele>200.09</ele>
        <time>2019-10-26T08:41:57Z</time>
      </trkpt>
      <trkpt lat="43.37522" lon="-0.48437">
        <ele>200.09</ele>
        <time>2019-10-26T08:41:58Z</time>
      </trkpt>
      <trkpt lat="43.37523" lon="-0.48437">
        <ele>200.57</ele>
        <time>2019-10-26T08:41:59Z</time>
      </trkpt>
      <trkpt lat="43.37543" lon="-0.4844">
        <ele>204.42</ele>
        <time>2019-10-26T08:42:16Z</time>
      </trkpt>
      <trkpt lat="43.37559" lon="-0.48442">
        <ele>206.34</ele>
        <time>2019-10-26T08:42:30Z</time>
      </trkpt>
      <trkpt lat="43.37579" lon="-0.48443">
        <ele>212.11</ele>
        <time>2019-10-26T08:42:46Z</time>
      </trkpt>
      <trkpt lat="43.37595" lon="-0.48445">
        <ele>215.47</ele>
        <time>2019-10-26T08:43:01Z</time>
      </trkpt>
      <trkpt lat="43.37614" lon="-0.48445">
        <ele>216.91</ele>
        <time>2019-10-26T08:43:17Z</time>
      </trkpt>
      <trkpt lat="43.37622" lon="-0.48443">
        <ele>216.91</ele>
        <time>2019-10-26T08:43:23Z</time>
      </trkpt>
      <trkpt lat="43.37649" lon="-0.48426">
        <ele>213.55</ele>
        <time>2019-10-26T08:43:40Z</time>
      </trkpt>
      <trkpt lat="43.37681" lon="-0.48415">
        <ele>214.99</ele>
        <time>2019-10-26T08:43:53Z</time>
      </trkpt>
      <trkpt lat="43.37714" lon="-0.4841">
        <ele>217.88</ele>
        <time>2019-10-26T08:44:08Z</time>
      </trkpt>
      <trkpt lat="43.37748" lon="-0.4841">
        <ele>220.76</ele>
        <time>2019-10-26T08:44:24Z</time>
      </trkpt>
      <trkpt lat="43.3778" lon="-0.48406">
        <ele>222.68</ele>
        <time>2019-10-26T08:44:41Z</time>
      </trkpt>
      <trkpt lat="43.37807" lon="-0.48398">
        <ele>224.12</ele>
        <time>2019-10-26T08:44:57Z</time>
      </trkpt>
      <trkpt lat="43.3783" lon="-0.48394">
        <ele>227.01</ele>
        <time>2019-10-26T08:45:11Z</time>
      </trkpt>
      <trkpt lat="43.37856" lon="-0.48394">
        <ele>227.01</ele>
        <time>2019-10-26T08:45:25Z</time>
      </trkpt>
      <trkpt lat="43.37889" lon="-0.48394">
        <ele>232.3</ele>
        <time>2019-10-26T08:45:39Z</time>
      </trkpt>
      <trkpt lat="43.37914" lon="-0.48402">
        <ele>234.22</ele>
        <time>2019-10-26T08:45:50Z</time>
      </trkpt>
      <trkpt lat="43.37937" lon="-0.48413">
        <ele>234.22</ele>
        <time>2019-10-26T08:46:02Z</time>
      </trkpt>
      <trkpt lat="43.3796" lon="-0.48422">
        <ele>238.06</ele>
        <time>2019-10-26T08:46:12Z</time>
      </trkpt>
      <trkpt lat="43.37972" lon="-0.48423">
        <ele>238.06</ele>
        <time>2019-10-26T08:46:18Z</time>
      </trkpt>
      <trkpt lat="43.37974" lon="-0.48423">
        <ele>238.54</ele>
        <time>2019-10-26T08:46:19Z</time>
      </trkpt>
      <trkpt lat="43.37976" lon="-0.48423">
        <ele>239.51</ele>
        <time>2019-10-26T08:46:20Z</time>
      </trkpt>
      <trkpt lat="43.37978" lon="-0.48423">
        <ele>239.99</ele>
        <time>2019-10-26T08:46:21Z</time>
      </trkpt>
      <trkpt lat="43.3798" lon="-0.48424">
        <ele>240.47</ele>
        <time>2019-10-26T08:46:22Z</time>
      </trkpt>
      <trkpt lat="43.37982" lon="-0.48424">
        <ele>240.95</ele>
        <time>2019-10-26T08:46:23Z</time>
      </trkpt>
      <trkpt lat="43.37984" lon="-0.48424">
        <ele>241.43</ele>
        <time>2019-10-26T08:46:24Z</time>
      </trkpt>
      <trkpt lat="43.37993" lon="-0.48423">
        <ele>242.87</ele>
        <time>2019-10-26T08:46:28Z</time>
      </trkpt>
      <trkpt lat="43.37995" lon="-0.48423">
        <ele>243.35</ele>
        <time>2019-10-26T08:46:29Z</time>
      </trkpt>
      <trkpt lat="43.37997" lon="-0.48423">
        <ele>243.83</ele>
        <time>2019-10-26T08:46:30Z</time>
      </trkpt>
      <trkpt lat="43.37999" lon="-0.48423">
        <ele>244.31</ele>
        <time>2019-10-26T08:46:31Z</time>
      </trkpt>
      <trkpt lat="43.38001" lon="-0.48422">
        <ele>244.31</ele>
        <time>2019-10-26T08:46:32Z</time>
      </trkpt>
      <trkpt lat="43.38002" lon="-0.48422">
        <ele>245.27</ele>
        <time>2019-10-26T08:46:33Z</time>
      </trkpt>
      <trkpt lat="43.38005" lon="-0.48421">
        <ele>245.75</ele>
        <time>2019-10-26T08:46:34Z</time>
      </trkpt>
      <trkpt lat="43.38007" lon="-0.48421">
        <ele>245.75</ele>
        <time>2019-10-26T08:46:35Z</time>
      </trkpt>
      <trkpt lat="43.38009" lon="-0.48421">
        <ele>245.75</ele>
        <time>2019-10-26T08:46:36Z</time>
      </trkpt>
      <trkpt lat="43.38011" lon="-0.4842">
        <ele>245.75</ele>
        <time>2019-10-26T08:46:37Z</time>
      </trkpt>
      <trkpt lat="43.38013" lon="-0.48419">
        <ele>245.75</ele>
        <time>2019-10-26T08:46:38Z</time>
      </trkpt>
      <trkpt lat="43.38015" lon="-0.4842">
        <ele>245.27</ele>
        <time>2019-10-26T08:46:39Z</time>
      </trkpt>
      <trkpt lat="43.38038" lon="-0.48417">
        <ele>245.75</ele>
        <time>2019-10-26T08:46:51Z</time>
      </trkpt>
      <trkpt lat="43.38058" lon="-0.48417">
        <ele>248.64</ele>
        <time>2019-10-26T08:47:02Z</time>
      </trkpt>
      <trkpt lat="43.38071" lon="-0.48416">
        <ele>251.52</ele>
        <time>2019-10-26T08:47:10Z</time>
      </trkpt>
      <trkpt lat="43.381" lon="-0.48422">
        <ele>253.93</ele>
        <time>2019-10-26T08:47:22Z</time>
      </trkpt>
      <trkpt lat="43.38134" lon="-0.48431">
        <ele>254.89</ele>
        <time>2019-10-26T08:47:33Z</time>
      </trkpt>
      <trkpt lat="43.38181" lon="-0.48441">
        <ele>252.48</ele>
        <time>2019-10-26T08:47:44Z</time>
      </trkpt>
      <trkpt lat="43.38204" lon="-0.48448">
        <ele>249.12</ele>
        <time>2019-10-26T08:47:49Z</time>
      </trkpt>
      <trkpt lat="43.38254" lon="-0.48474">
        <ele>244.79</ele>
        <time>2019-10-26T08:47:59Z</time>
      </trkpt>
      <trkpt lat="43.383" lon="-0.48502">
        <ele>243.35</ele>
        <time>2019-10-26T08:48:08Z</time>
      </trkpt>
      <trkpt lat="43.38317" lon="-0.48511">
        <ele>242.87</ele>
        <time>2019-10-26T08:48:11Z</time>
      </trkpt>
      <trkpt lat="43.38355" lon="-0.48529">
        <ele>241.43</ele>
        <time>2019-10-26T08:48:19Z</time>
      </trkpt>
      <trkpt lat="43.38377" lon="-0.48528">
        <ele>242.39</ele>
        <time>2019-10-26T08:48:23Z</time>
      </trkpt>
      <trkpt lat="43.3844" lon="-0.48523">
        <ele>242.87</ele>
        <time>2019-10-26T08:48:37Z</time>
      </trkpt>
      <trkpt lat="43.38466" lon="-0.48531">
        <ele>247.2</ele>
        <time>2019-10-26T08:48:48Z</time>
      </trkpt>
      <trkpt lat="43.38493" lon="-0.48543">
        <ele>251.04</ele>
        <time>2019-10-26T08:49:03Z</time>
      </trkpt>
      <trkpt lat="43.38515" lon="-0.48554">
        <ele>252.96</ele>
        <time>2019-10-26T08:49:16Z</time>
      </trkpt>
      <trkpt lat="43.38537" lon="-0.48564">
        <ele>254.89</ele>
        <time>2019-10-26T08:49:29Z</time>
      </trkpt>
      <trkpt lat="43.3854" lon="-0.48564">
        <ele>255.85</ele>
        <time>2019-10-26T08:49:31Z</time>
      </trkpt>
      <trkpt lat="43.38553" lon="-0.48571">
        <ele>258.25</ele>
        <time>2019-10-26T08:49:40Z</time>
      </trkpt>
      <trkpt lat="43.38559" lon="-0.48575">
        <ele>258.25</ele>
        <time>2019-10-26T08:49:44Z</time>
      </trkpt>
      <trkpt lat="43.38579" lon="-0.48586">
        <ele>262.1</ele>
        <time>2019-10-26T08:49:58Z</time>
      </trkpt>
      <trkpt lat="43.38598" lon="-0.48613">
        <ele>261.14</ele>
        <time>2019-10-26T08:50:13Z</time>
      </trkpt>
      <trkpt lat="43.38615" lon="-0.48643">
        <ele>260.65</ele>
        <time>2019-10-26T08:50:28Z</time>
      </trkpt>
      <trkpt lat="43.3863" lon="-0.48679">
        <ele>261.14</ele>
        <time>2019-10-26T08:50:45Z</time>
      </trkpt>
      <trkpt lat="43.38626" lon="-0.48722">
        <ele>260.65</ele>
        <time>2019-10-26T08:50:58Z</time>
      </trkpt>
      <trkpt lat="43.38629" lon="-0.4874">
        <ele>261.14</ele>
        <time>2019-10-26T08:51:05Z</time>
      </trkpt>
      <trkpt lat="43.3863" lon="-0.4874">
        <ele>261.62</ele>
        <time>2019-10-26T08:51:06Z</time>
      </trkpt>
      <trkpt lat="43.38631" lon="-0.4874">
        <ele>261.62</ele>
        <time>2019-10-26T08:51:07Z</time>
      </trkpt>
      <trkpt lat="43.38631" lon="-0.4874">
        <ele>261.62</ele>
        <time>2019-10-26T08:51:22Z</time>
      </trkpt>
      <trkpt lat="43.38643" lon="-0.48729">
        <ele>260.65</ele>
        <time>2019-10-26T08:51:43Z</time>
      </trkpt>
      <trkpt lat="43.38656" lon="-0.48719">
        <ele>262.58</ele>
        <time>2019-10-26T08:51:55Z</time>
      </trkpt>
      <trkpt lat="43.38661" lon="-0.48725">
        <ele>263.06</ele>
        <time>2019-10-26T08:51:59Z</time>
      </trkpt>
      <trkpt lat="43.38696" lon="-0.48772">
        <ele>262.58</ele>
        <time>2019-10-26T08:52:14Z</time>
      </trkpt>
      <trkpt lat="43.38701" lon="-0.48779">
        <ele>262.1</ele>
        <time>2019-10-26T08:52:16Z</time>
      </trkpt>
      <trkpt lat="43.38714" lon="-0.48795">
        <ele>262.1</ele>
        <time>2019-10-26T08:52:20Z</time>
      </trkpt>
      <trkpt lat="43.38731" lon="-0.48822">
        <ele>261.14</ele>
        <time>2019-10-26T08:52:26Z</time>
      </trkpt>
      <trkpt lat="43.38747" lon="-0.48846">
        <ele>261.14</ele>
        <time>2019-10-26T08:52:32Z</time>
      </trkpt>
      <trkpt lat="43.38764" lon="-0.48883">
        <ele>259.21</ele>
        <time>2019-10-26T08:52:43Z</time>
      </trkpt>
      <trkpt lat="43.38767" lon="-0.48884">
        <ele>259.69</ele>
        <time>2019-10-26T08:52:44Z</time>
      </trkpt>
      <trkpt lat="43.38768" lon="-0.48883">
        <ele>259.69</ele>
        <time>2019-10-26T08:52:45Z</time>
      </trkpt>
      <trkpt lat="43.3877" lon="-0.48884">
        <ele>259.69</ele>
        <time>2019-10-26T08:52:46Z</time>
      </trkpt>
      <trkpt lat="43.38771" lon="-0.48886">
        <ele>259.69</ele>
        <time>2019-10-26T08:52:47Z</time>
      </trkpt>
      <trkpt lat="43.38773" lon="-0.48889">
        <ele>259.69</ele>
        <time>2019-10-26T08:52:48Z</time>
      </trkpt>
      <trkpt lat="43.38775" lon="-0.48891">
        <ele>259.69</ele>
        <time>2019-10-26T08:52:49Z</time>
      </trkpt>
      <trkpt lat="43.38776" lon="-0.48892">
        <ele>259.69</ele>
        <time>2019-10-26T08:52:50Z</time>
      </trkpt>
      <trkpt lat="43.38778" lon="-0.48894">
        <ele>259.69</ele>
        <time>2019-10-26T08:52:51Z</time>
      </trkpt>
      <trkpt lat="43.38779" lon="-0.48898">
        <ele>260.17</ele>
        <time>2019-10-26T08:52:52Z</time>
      </trkpt>
      <trkpt lat="43.38781" lon="-0.48902">
        <ele>260.17</ele>
        <time>2019-10-26T08:52:53Z</time>
      </trkpt>
      <trkpt lat="43.38794" lon="-0.48929">
        <ele>260.65</ele>
        <time>2019-10-26T08:53:00Z</time>
      </trkpt>
      <trkpt lat="43.38795" lon="-0.48934">
        <ele>260.65</ele>
        <time>2019-10-26T08:53:01Z</time>
      </trkpt>
      <trkpt lat="43.38796" lon="-0.48938">
        <ele>260.65</ele>
        <time>2019-10-26T08:53:02Z</time>
      </trkpt>
      <trkpt lat="43.38798" lon="-0.48942">
        <ele>260.65</ele>
        <time>2019-10-26T08:53:03Z</time>
      </trkpt>
      <trkpt lat="43.38799" lon="-0.48947">
        <ele>261.14</ele>
        <time>2019-10-26T08:53:04Z</time>
      </trkpt>
      <trkpt lat="43.38801" lon="-0.4895">
        <ele>261.62</ele>
        <time>2019-10-26T08:53:05Z</time>
      </trkpt>
      <trkpt lat="43.38803" lon="-0.48952">
        <ele>262.1</ele>
        <time>2019-10-26T08:53:06Z</time>
      </trkpt>
      <trkpt lat="43.38805" lon="-0.48952">
        <ele>262.58</ele>
        <time>2019-10-26T08:53:07Z</time>
      </trkpt>
      <trkpt lat="43.38807" lon="-0.48954">
        <ele>263.54</ele>
        <time>2019-10-26T08:53:09Z</time>
      </trkpt>
      <trkpt lat="43.38812" lon="-0.48973">
        <ele>269.31</ele>
        <time>2019-10-26T08:53:16Z</time>
      </trkpt>
      <trkpt lat="43.38812" lon="-0.48976">
        <ele>270.27</ele>
        <time>2019-10-26T08:53:17Z</time>
      </trkpt>
      <trkpt lat="43.38815" lon="-0.48981">
        <ele>269.79</ele>
        <time>2019-10-26T08:53:18Z</time>
      </trkpt>
      <trkpt lat="43.38816" lon="-0.48985">
        <ele>270.27</ele>
        <time>2019-10-26T08:53:19Z</time>
      </trkpt>
      <trkpt lat="43.38818" lon="-0.4899">
        <ele>270.27</ele>
        <time>2019-10-26T08:53:20Z</time>
      </trkpt>
      <trkpt lat="43.3882" lon="-0.48994">
        <ele>270.27</ele>
        <time>2019-10-26T08:53:21Z</time>
      </trkpt>
      <trkpt lat="43.38822" lon="-0.48995">
        <ele>270.75</ele>
        <time>2019-10-26T08:53:22Z</time>
      </trkpt>
      <trkpt lat="43.38824" lon="-0.48996">
        <ele>271.23</ele>
        <time>2019-10-26T08:53:23Z</time>
      </trkpt>
      <trkpt lat="43.38826" lon="-0.48998">
        <ele>271.71</ele>
        <time>2019-10-26T08:53:24Z</time>
      </trkpt>
      <trkpt lat="43.38828" lon="-0.49">
        <ele>272.19</ele>
        <time>2019-10-26T08:53:25Z</time>
      </trkpt>
      <trkpt lat="43.38829" lon="-0.49003">
        <ele>272.67</ele>
        <time>2019-10-26T08:53:26Z</time>
      </trkpt>
      <trkpt lat="43.3884" lon="-0.49029">
        <ele>274.59</ele>
        <time>2019-10-26T08:53:35Z</time>
      </trkpt>
      <trkpt lat="43.38852" lon="-0.49079">
        <ele>277.96</ele>
        <time>2019-10-26T08:53:46Z</time>
      </trkpt>
      <trkpt lat="43.38859" lon="-0.49126">
        <ele>282.77</ele>
        <time>2019-10-26T08:53:57Z</time>
      </trkpt>
      <trkpt lat="43.38863" lon="-0.49156">
        <ele>285.17</ele>
        <time>2019-10-26T08:54:04Z</time>
      </trkpt>
      <trkpt lat="43.38863" lon="-0.49159">
        <ele>285.65</ele>
        <time>2019-10-26T08:54:05Z</time>
      </trkpt>
      <trkpt lat="43.38864" lon="-0.49163">
        <ele>286.61</ele>
        <time>2019-10-26T08:54:06Z</time>
      </trkpt>
      <trkpt lat="43.38865" lon="-0.49167">
        <ele>287.09</ele>
        <time>2019-10-26T08:54:07Z</time>
      </trkpt>
      <trkpt lat="43.38865" lon="-0.49171">
        <ele>287.57</ele>
        <time>2019-10-26T08:54:08Z</time>
      </trkpt>
      <trkpt lat="43.38866" lon="-0.49184">
        <ele>289.97</ele>
        <time>2019-10-26T08:54:11Z</time>
      </trkpt>
      <trkpt lat="43.38866" lon="-0.49199">
        <ele>286.61</ele>
        <time>2019-10-26T08:54:21Z</time>
      </trkpt>
      <trkpt lat="43.38871" lon="-0.49202">
        <ele>282.77</ele>
        <time>2019-10-26T08:54:36Z</time>
      </trkpt>
      <trkpt lat="43.38872" lon="-0.49202">
        <ele>281.32</ele>
        <time>2019-10-26T08:54:40Z</time>
      </trkpt>
      <trkpt lat="43.38876" lon="-0.49198">
        <ele>279.4</ele>
        <time>2019-10-26T08:54:45Z</time>
      </trkpt>
      <trkpt lat="43.38883" lon="-0.49197">
        <ele>278.44</ele>
        <time>2019-10-26T08:54:49Z</time>
      </trkpt>
      <trkpt lat="43.38891" lon="-0.49202">
        <ele>277.96</ele>
        <time>2019-10-26T08:54:54Z</time>
      </trkpt>
      <trkpt lat="43.38916" lon="-0.49235">
        <ele>282.28</ele>
        <time>2019-10-26T08:55:06Z</time>
      </trkpt>
      <trkpt lat="43.38929" lon="-0.4925">
        <ele>285.17</ele>
        <time>2019-10-26T08:55:15Z</time>
      </trkpt>
      <trkpt lat="43.38931" lon="-0.49253">
        <ele>285.17</ele>
        <time>2019-10-26T08:55:16Z</time>
      </trkpt>
      <trkpt lat="43.38932" lon="-0.49255">
        <ele>285.17</ele>
        <time>2019-10-26T08:55:17Z</time>
      </trkpt>
      <trkpt lat="43.38933" lon="-0.49258">
        <ele>285.17</ele>
        <time>2019-10-26T08:55:18Z</time>
      </trkpt>
      <trkpt lat="43.38936" lon="-0.4926">
        <ele>285.17</ele>
        <time>2019-10-26T08:55:19Z</time>
      </trkpt>
      <trkpt lat="43.38938" lon="-0.49263">
        <ele>285.17</ele>
        <time>2019-10-26T08:55:20Z</time>
      </trkpt>
      <trkpt lat="43.3894" lon="-0.49266">
        <ele>285.17</ele>
        <time>2019-10-26T08:55:21Z</time>
      </trkpt>
      <trkpt lat="43.38941" lon="-0.49269">
        <ele>285.17</ele>
        <time>2019-10-26T08:55:22Z</time>
      </trkpt>
      <trkpt lat="43.38939" lon="-0.49289">
        <ele>286.13</ele>
        <time>2019-10-26T08:55:27Z</time>
      </trkpt>
      <trkpt lat="43.38948" lon="-0.49313">
        <ele>286.13</ele>
        <time>2019-10-26T08:55:32Z</time>
      </trkpt>
      <trkpt lat="43.38968" lon="-0.49337">
        <ele>286.13</ele>
        <time>2019-10-26T08:55:41Z</time>
      </trkpt>
      <trkpt lat="43.38986" lon="-0.49369">
        <ele>286.13</ele>
        <time>2019-10-26T08:55:49Z</time>
      </trkpt>
      <trkpt lat="43.39001" lon="-0.49396">
        <ele>286.13</ele>
        <time>2019-10-26T08:55:55Z</time>
      </trkpt>
      <trkpt lat="43.39006" lon="-0.49406">
        <ele>286.13</ele>
        <time>2019-10-26T08:55:57Z</time>
      </trkpt>
      <trkpt lat="43.39028" lon="-0.49468">
        <ele>288.05</ele>
        <time>2019-10-26T08:56:08Z</time>
      </trkpt>
      <trkpt lat="43.39032" lon="-0.49478">
        <ele>288.53</ele>
        <time>2019-10-26T08:56:10Z</time>
      </trkpt>
      <trkpt lat="43.39055" lon="-0.49522">
        <ele>287.57</ele>
        <time>2019-10-26T08:56:18Z</time>
      </trkpt>
      <trkpt lat="43.39064" lon="-0.49552">
        <ele>284.69</ele>
        <time>2019-10-26T08:56:23Z</time>
      </trkpt>
      <trkpt lat="43.39071" lon="-0.49606">
        <ele>279.88</ele>
        <time>2019-10-26T08:56:32Z</time>
      </trkpt>
      <trkpt lat="43.39085" lon="-0.49643">
        <ele>278.44</ele>
        <time>2019-10-26T08:56:41Z</time>
      </trkpt>
      <trkpt lat="43.39093" lon="-0.49642">
        <ele>277.96</ele>
        <time>2019-10-26T08:56:45Z</time>
      </trkpt>
      <trkpt lat="43.39103" lon="-0.49665">
        <ele>276.52</ele>
        <time>2019-10-26T08:56:53Z</time>
      </trkpt>
      <trkpt lat="43.3911" lon="-0.49681">
        <ele>276.52</ele>
        <time>2019-10-26T08:56:56Z</time>
      </trkpt>
      <trkpt lat="43.39116" lon="-0.497">
        <ele>275.56</ele>
        <time>2019-10-26T08:56:59Z</time>
      </trkpt>
      <trkpt lat="43.39134" lon="-0.49752">
        <ele>270.75</ele>
        <time>2019-10-26T08:57:06Z</time>
      </trkpt>
      <trkpt lat="43.3919" lon="-0.49861">
        <ele>265.46</ele>
        <time>2019-10-26T08:57:22Z</time>
      </trkpt>
      <trkpt lat="43.39197" lon="-0.49874">
        <ele>264.5</ele>
        <time>2019-10-26T08:57:24Z</time>
      </trkpt>
      <trkpt lat="43.39213" lon="-0.49913">
        <ele>263.06</ele>
        <time>2019-10-26T08:57:30Z</time>
      </trkpt>
      <trkpt lat="43.39216" lon="-0.49918">
        <ele>263.06</ele>
        <time>2019-10-26T08:57:31Z</time>
      </trkpt>
      <trkpt lat="43.39269" lon="-0.50005">
        <ele>259.69</ele>
        <time>2019-10-26T08:57:45Z</time>
      </trkpt>
      <trkpt lat="43.39272" lon="-0.5001">
        <ele>259.69</ele>
        <time>2019-10-26T08:57:46Z</time>
      </trkpt>
      <trkpt lat="43.3928" lon="-0.5002">
        <ele>259.21</ele>
        <time>2019-10-26T08:57:48Z</time>
      </trkpt>
      <trkpt lat="43.3931" lon="-0.50062">
        <ele>259.21</ele>
        <time>2019-10-26T08:57:56Z</time>
      </trkpt>
      <trkpt lat="43.39331" lon="-0.50116">
        <ele>258.73</ele>
        <time>2019-10-26T08:58:04Z</time>
      </trkpt>
      <trkpt lat="43.39336" lon="-0.50154">
        <ele>257.77</ele>
        <time>2019-10-26T08:58:09Z</time>
      </trkpt>
      <trkpt lat="43.39336" lon="-0.50199">
        <ele>256.81</ele>
        <time>2019-10-26T08:58:15Z</time>
      </trkpt>
      <trkpt lat="43.39338" lon="-0.50326">
        <ele>257.77</ele>
        <time>2019-10-26T08:58:33Z</time>
      </trkpt>
      <trkpt lat="43.39341" lon="-0.50408">
        <ele>258.25</ele>
        <time>2019-10-26T08:58:48Z</time>
      </trkpt>
      <trkpt lat="43.39343" lon="-0.50431">
        <ele>258.25</ele>
        <time>2019-10-26T08:58:52Z</time>
      </trkpt>
      <trkpt lat="43.3936" lon="-0.50508">
        <ele>258.25</ele>
        <time>2019-10-26T08:59:07Z</time>
      </trkpt>
      <trkpt lat="43.3938" lon="-0.50577">
        <ele>259.21</ele>
        <time>2019-10-26T08:59:21Z</time>
      </trkpt>
      <trkpt lat="43.39412" lon="-0.50637">
        <ele>261.14</ele>
        <time>2019-10-26T08:59:34Z</time>
      </trkpt>
      <trkpt lat="43.39413" lon="-0.50643">
        <ele>261.14</ele>
        <time>2019-10-26T08:59:35Z</time>
      </trkpt>
      <trkpt lat="43.39414" lon="-0.5065">
        <ele>261.14</ele>
        <time>2019-10-26T08:59:36Z</time>
      </trkpt>
      <trkpt lat="43.39414" lon="-0.50657">
        <ele>261.14</ele>
        <time>2019-10-26T08:59:37Z</time>
      </trkpt>
      <trkpt lat="43.39414" lon="-0.50664">
        <ele>260.65</ele>
        <time>2019-10-26T08:59:38Z</time>
      </trkpt>
      <trkpt lat="43.39423" lon="-0.50779">
        <ele>259.21</ele>
        <time>2019-10-26T08:59:52Z</time>
      </trkpt>
      <trkpt lat="43.39425" lon="-0.50926">
        <ele>255.85</ele>
        <time>2019-10-26T09:00:09Z</time>
      </trkpt>
      <trkpt lat="43.39426" lon="-0.50948">
        <ele>255.85</ele>
        <time>2019-10-26T09:00:12Z</time>
      </trkpt>
      <trkpt lat="43.39428" lon="-0.50966">
        <ele>256.33</ele>
        <time>2019-10-26T09:00:20Z</time>
      </trkpt>
      <trkpt lat="43.39426" lon="-0.50966">
        <ele>254.89</ele>
        <time>2019-10-26T09:00:44Z</time>
      </trkpt>
      <trkpt lat="43.39428" lon="-0.50967">
        <ele>255.37</ele>
        <time>2019-10-26T09:00:49Z</time>
      </trkpt>
      <trkpt lat="43.39429" lon="-0.50968">
        <ele>255.37</ele>
        <time>2019-10-26T09:00:50Z</time>
      </trkpt>
      <trkpt lat="43.39431" lon="-0.50969">
        <ele>255.85</ele>
        <time>2019-10-26T09:00:51Z</time>
      </trkpt>
      <trkpt lat="43.39433" lon="-0.50967">
        <ele>256.33</ele>
        <time>2019-10-26T09:00:52Z</time>
      </trkpt>
      <trkpt lat="43.39434" lon="-0.50966">
        <ele>256.33</ele>
        <time>2019-10-26T09:00:53Z</time>
      </trkpt>
      <trkpt lat="43.39436" lon="-0.50964">
        <ele>256.33</ele>
        <time>2019-10-26T09:00:54Z</time>
      </trkpt>
      <trkpt lat="43.39475" lon="-0.50923">
        <ele>256.33</ele>
        <time>2019-10-26T09:01:07Z</time>
      </trkpt>
      <trkpt lat="43.39534" lon="-0.50866">
        <ele>259.69</ele>
        <time>2019-10-26T09:01:24Z</time>
      </trkpt>
      <trkpt lat="43.39584" lon="-0.50829">
        <ele>264.98</ele>
        <time>2019-10-26T09:01:41Z</time>
      </trkpt>
      <trkpt lat="43.39632" lon="-0.50804">
        <ele>266.42</ele>
        <time>2019-10-26T09:01:56Z</time>
      </trkpt>
      <trkpt lat="43.39661" lon="-0.50801">
        <ele>265.46</ele>
        <time>2019-10-26T09:02:02Z</time>
      </trkpt>
      <trkpt lat="43.39666" lon="-0.50803">
        <ele>265.46</ele>
        <time>2019-10-26T09:02:03Z</time>
      </trkpt>
      <trkpt lat="43.3967" lon="-0.50806">
        <ele>265.46</ele>
        <time>2019-10-26T09:02:04Z</time>
      </trkpt>
      <trkpt lat="43.39674" lon="-0.50812">
        <ele>264.98</ele>
        <time>2019-10-26T09:02:05Z</time>
      </trkpt>
      <trkpt lat="43.39676" lon="-0.50817">
        <ele>264.98</ele>
        <time>2019-10-26T09:02:06Z</time>
      </trkpt>
      <trkpt lat="43.39678" lon="-0.50823">
        <ele>264.98</ele>
        <time>2019-10-26T09:02:07Z</time>
      </trkpt>
      <trkpt lat="43.39707" lon="-0.50913">
        <ele>264.98</ele>
        <time>2019-10-26T09:02:20Z</time>
      </trkpt>
      <trkpt lat="43.39743" lon="-0.51003">
        <ele>265.46</ele>
        <time>2019-10-26T09:02:32Z</time>
      </trkpt>
      <trkpt lat="43.39751" lon="-0.51026">
        <ele>265.46</ele>
        <time>2019-10-26T09:02:35Z</time>
      </trkpt>
      <trkpt lat="43.39765" lon="-0.51117">
        <ele>263.54</ele>
        <time>2019-10-26T09:02:46Z</time>
      </trkpt>
      <trkpt lat="43.39768" lon="-0.51126">
        <ele>263.06</ele>
        <time>2019-10-26T09:02:47Z</time>
      </trkpt>
      <trkpt lat="43.39772" lon="-0.51133">
        <ele>263.06</ele>
        <time>2019-10-26T09:02:48Z</time>
      </trkpt>
      <trkpt lat="43.39776" lon="-0.51139">
        <ele>263.06</ele>
        <time>2019-10-26T09:02:49Z</time>
      </trkpt>
      <trkpt lat="43.39781" lon="-0.51145">
        <ele>263.06</ele>
        <time>2019-10-26T09:02:50Z</time>
      </trkpt>
      <trkpt lat="43.39787" lon="-0.51151">
        <ele>263.06</ele>
        <time>2019-10-26T09:02:51Z</time>
      </trkpt>
      <trkpt lat="43.39793" lon="-0.51156">
        <ele>262.58</ele>
        <time>2019-10-26T09:02:52Z</time>
      </trkpt>
      <trkpt lat="43.39799" lon="-0.51161">
        <ele>262.58</ele>
        <time>2019-10-26T09:02:53Z</time>
      </trkpt>
      <trkpt lat="43.39822" lon="-0.51182">
        <ele>261.62</ele>
        <time>2019-10-26T09:02:57Z</time>
      </trkpt>
      <trkpt lat="43.39826" lon="-0.51189">
        <ele>261.62</ele>
        <time>2019-10-26T09:02:58Z</time>
      </trkpt>
      <trkpt lat="43.39829" lon="-0.51199">
        <ele>260.65</ele>
        <time>2019-10-26T09:02:59Z</time>
      </trkpt>
      <trkpt lat="43.3983" lon="-0.5121">
        <ele>260.17</ele>
        <time>2019-10-26T09:03:00Z</time>
      </trkpt>
      <trkpt lat="43.3983" lon="-0.51222">
        <ele>259.21</ele>
        <time>2019-10-26T09:03:01Z</time>
      </trkpt>
      <trkpt lat="43.3983" lon="-0.51233">
        <ele>258.25</ele>
        <time>2019-10-26T09:03:02Z</time>
      </trkpt>
      <trkpt lat="43.39832" lon="-0.51244">
        <ele>257.29</ele>
        <time>2019-10-26T09:03:03Z</time>
      </trkpt>
      <trkpt lat="43.39837" lon="-0.51253">
        <ele>256.33</ele>
        <time>2019-10-26T09:03:04Z</time>
      </trkpt>
      <trkpt lat="43.39845" lon="-0.5126">
        <ele>255.37</ele>
        <time>2019-10-26T09:03:05Z</time>
      </trkpt>
      <trkpt lat="43.39854" lon="-0.51263">
        <ele>254.41</ele>
        <time>2019-10-26T09:03:06Z</time>
      </trkpt>
      <trkpt lat="43.39863" lon="-0.51264">
        <ele>253.44</ele>
        <time>2019-10-26T09:03:07Z</time>
      </trkpt>
      <trkpt lat="43.39873" lon="-0.51264">
        <ele>252.96</ele>
        <time>2019-10-26T09:03:08Z</time>
      </trkpt>
      <trkpt lat="43.39882" lon="-0.51262">
        <ele>252.48</ele>
        <time>2019-10-26T09:03:09Z</time>
      </trkpt>
      <trkpt lat="43.39943" lon="-0.51243">
        <ele>254.89</ele>
        <time>2019-10-26T09:03:18Z</time>
      </trkpt>
      <trkpt lat="43.40002" lon="-0.51217">
        <ele>259.21</ele>
        <time>2019-10-26T09:03:32Z</time>
      </trkpt>
      <trkpt lat="43.40018" lon="-0.51217">
        <ele>260.17</ele>
        <time>2019-10-26T09:03:36Z</time>
      </trkpt>
      <trkpt lat="43.40022" lon="-0.51219">
        <ele>260.65</ele>
        <time>2019-10-26T09:03:37Z</time>
      </trkpt>
      <trkpt lat="43.40075" lon="-0.51253">
        <ele>261.62</ele>
        <time>2019-10-26T09:03:52Z</time>
      </trkpt>
      <trkpt lat="43.40101" lon="-0.51223">
        <ele>260.17</ele>
        <time>2019-10-26T09:04:00Z</time>
      </trkpt>
      <trkpt lat="43.40161" lon="-0.5116">
        <ele>258.73</ele>
        <time>2019-10-26T09:04:15Z</time>
      </trkpt>
      <trkpt lat="43.40184" lon="-0.51143">
        <ele>257.77</ele>
        <time>2019-10-26T09:04:20Z</time>
      </trkpt>
      <trkpt lat="43.40189" lon="-0.51142">
        <ele>257.29</ele>
        <time>2019-10-26T09:04:21Z</time>
      </trkpt>
      <trkpt lat="43.40196" lon="-0.51142">
        <ele>257.29</ele>
        <time>2019-10-26T09:04:22Z</time>
      </trkpt>
      <trkpt lat="43.402" lon="-0.51144">
        <ele>257.29</ele>
        <time>2019-10-26T09:04:23Z</time>
      </trkpt>
      <trkpt lat="43.40205" lon="-0.51146">
        <ele>257.29</ele>
        <time>2019-10-26T09:04:24Z</time>
      </trkpt>
      <trkpt lat="43.40279" lon="-0.51176">
        <ele>256.81</ele>
        <time>2019-10-26T09:04:39Z</time>
      </trkpt>
      <trkpt lat="43.40298" lon="-0.51185">
        <ele>256.81</ele>
        <time>2019-10-26T09:04:43Z</time>
      </trkpt>
      <trkpt lat="43.40302" lon="-0.51188">
        <ele>256.81</ele>
        <time>2019-10-26T09:04:44Z</time>
      </trkpt>
      <trkpt lat="43.40305" lon="-0.51192">
        <ele>256.81</ele>
        <time>2019-10-26T09:04:45Z</time>
      </trkpt>
      <trkpt lat="43.40308" lon="-0.51197">
        <ele>256.81</ele>
        <time>2019-10-26T09:04:46Z</time>
      </trkpt>
      <trkpt lat="43.4031" lon="-0.51203">
        <ele>256.81</ele>
        <time>2019-10-26T09:04:47Z</time>
      </trkpt>
      <trkpt lat="43.40319" lon="-0.51227">
        <ele>256.81</ele>
        <time>2019-10-26T09:04:51Z</time>
      </trkpt>
      <trkpt lat="43.40369" lon="-0.51296">
        <ele>254.41</ele>
        <time>2019-10-26T09:05:04Z</time>
      </trkpt>
      <trkpt lat="43.40423" lon="-0.5137">
        <ele>250.08</ele>
        <time>2019-10-26T09:05:17Z</time>
      </trkpt>
      <trkpt lat="43.40452" lon="-0.51415">
        <ele>248.64</ele>
        <time>2019-10-26T09:05:24Z</time>
      </trkpt>
      <trkpt lat="43.40456" lon="-0.51421">
        <ele>248.16</ele>
        <time>2019-10-26T09:05:25Z</time>
      </trkpt>
      <trkpt lat="43.4046" lon="-0.51425">
        <ele>248.16</ele>
        <time>2019-10-26T09:05:26Z</time>
      </trkpt>
      <trkpt lat="43.40499" lon="-0.51469">
        <ele>247.2</ele>
        <time>2019-10-26T09:05:38Z</time>
      </trkpt>
      <trkpt lat="43.40515" lon="-0.51506">
        <ele>243.35</ele>
        <time>2019-10-26T09:05:49Z</time>
      </trkpt>
      <trkpt lat="43.40524" lon="-0.51523">
        <ele>243.83</ele>
        <time>2019-10-26T09:05:54Z</time>
      </trkpt>
      <trkpt lat="43.40526" lon="-0.51526">
        <ele>244.31</ele>
        <time>2019-10-26T09:05:55Z</time>
      </trkpt>
      <trkpt lat="43.40528" lon="-0.51529">
        <ele>244.31</ele>
        <time>2019-10-26T09:05:56Z</time>
      </trkpt>
      <trkpt lat="43.40535" lon="-0.51545">
        <ele>242.39</ele>
        <time>2019-10-26T09:05:59Z</time>
      </trkpt>
      <trkpt lat="43.40568" lon="-0.51596">
        <ele>236.14</ele>
        <time>2019-10-26T09:06:11Z</time>
      </trkpt>
      <trkpt lat="43.40574" lon="-0.51605">
        <ele>235.66</ele>
        <time>2019-10-26T09:06:14Z</time>
      </trkpt>
      <trkpt lat="43.40578" lon="-0.51607">
        <ele>235.18</ele>
        <time>2019-10-26T09:06:15Z</time>
      </trkpt>
      <trkpt lat="43.40583" lon="-0.51609">
        <ele>235.18</ele>
        <time>2019-10-26T09:06:16Z</time>
      </trkpt>
      <trkpt lat="43.40653" lon="-0.5164">
        <ele>230.85</ele>
        <time>2019-10-26T09:06:28Z</time>
      </trkpt>
      <trkpt lat="43.40676" lon="-0.5165">
        <ele>228.93</ele>
        <time>2019-10-26T09:06:31Z</time>
      </trkpt>
      <trkpt lat="43.40684" lon="-0.51652">
        <ele>227.97</ele>
        <time>2019-10-26T09:06:32Z</time>
      </trkpt>
      <trkpt lat="43.40691" lon="-0.51654">
        <ele>227.01</ele>
        <time>2019-10-26T09:06:33Z</time>
      </trkpt>
      <trkpt lat="43.40755" lon="-0.51669">
        <ele>217.88</ele>
        <time>2019-10-26T09:06:43Z</time>
      </trkpt>
      <trkpt lat="43.4076" lon="-0.51667">
        <ele>217.4</ele>
        <time>2019-10-26T09:06:44Z</time>
      </trkpt>
      <trkpt lat="43.40764" lon="-0.51663">
        <ele>216.43</ele>
        <time>2019-10-26T09:06:45Z</time>
      </trkpt>
      <trkpt lat="43.40768" lon="-0.51658">
        <ele>215.47</ele>
        <time>2019-10-26T09:06:46Z</time>
      </trkpt>
      <trkpt lat="43.40772" lon="-0.51651">
        <ele>214.51</ele>
        <time>2019-10-26T09:06:47Z</time>
      </trkpt>
      <trkpt lat="43.40785" lon="-0.5163">
        <ele>212.59</ele>
        <time>2019-10-26T09:06:50Z</time>
      </trkpt>
      <trkpt lat="43.4079" lon="-0.51625">
        <ele>211.63</ele>
        <time>2019-10-26T09:06:51Z</time>
      </trkpt>
      <trkpt lat="43.40804" lon="-0.5161">
        <ele>208.26</ele>
        <time>2019-10-26T09:06:54Z</time>
      </trkpt>
      <trkpt lat="43.40808" lon="-0.51605">
        <ele>207.3</ele>
        <time>2019-10-26T09:06:55Z</time>
      </trkpt>
      <trkpt lat="43.40811" lon="-0.51598">
        <ele>206.34</ele>
        <time>2019-10-26T09:06:56Z</time>
      </trkpt>
      <trkpt lat="43.40814" lon="-0.51591">
        <ele>205.38</ele>
        <time>2019-10-26T09:06:57Z</time>
      </trkpt>
      <trkpt lat="43.40816" lon="-0.51583">
        <ele>203.94</ele>
        <time>2019-10-26T09:06:58Z</time>
      </trkpt>
      <trkpt lat="43.40816" lon="-0.51575">
        <ele>202.98</ele>
        <time>2019-10-26T09:06:59Z</time>
      </trkpt>
      <trkpt lat="43.40815" lon="-0.51569">
        <ele>202.01</ele>
        <time>2019-10-26T09:07:00Z</time>
      </trkpt>
      <trkpt lat="43.40813" lon="-0.51563">
        <ele>201.05</ele>
        <time>2019-10-26T09:07:01Z</time>
      </trkpt>
      <trkpt lat="43.40811" lon="-0.51558">
        <ele>199.61</ele>
        <time>2019-10-26T09:07:02Z</time>
      </trkpt>
      <trkpt lat="43.40809" lon="-0.51553">
        <ele>198.65</ele>
        <time>2019-10-26T09:07:03Z</time>
      </trkpt>
      <trkpt lat="43.40807" lon="-0.51549">
        <ele>197.69</ele>
        <time>2019-10-26T09:07:04Z</time>
      </trkpt>
      <trkpt lat="43.40807" lon="-0.51545">
        <ele>197.21</ele>
        <time>2019-10-26T09:07:05Z</time>
      </trkpt>
      <trkpt lat="43.40808" lon="-0.51542">
        <ele>196.73</ele>
        <time>2019-10-26T09:07:06Z</time>
      </trkpt>
      <trkpt lat="43.40809" lon="-0.51539">
        <ele>196.25</ele>
        <time>2019-10-26T09:07:07Z</time>
      </trkpt>
      <trkpt lat="43.40813" lon="-0.51535">
        <ele>194.8</ele>
        <time>2019-10-26T09:07:18Z</time>
      </trkpt>
      <trkpt lat="43.40814" lon="-0.51532">
        <ele>193.36</ele>
        <time>2019-10-26T09:07:26Z</time>
      </trkpt>
      <trkpt lat="43.40814" lon="-0.51526">
        <ele>192.88</ele>
        <time>2019-10-26T09:07:28Z</time>
      </trkpt>
      <trkpt lat="43.40812" lon="-0.51522">
        <ele>192.4</ele>
        <time>2019-10-26T09:07:29Z</time>
      </trkpt>
      <trkpt lat="43.4081" lon="-0.51518">
        <ele>191.44</ele>
        <time>2019-10-26T09:07:30Z</time>
      </trkpt>
      <trkpt lat="43.40807" lon="-0.51512">
        <ele>190.48</ele>
        <time>2019-10-26T09:07:31Z</time>
      </trkpt>
      <trkpt lat="43.40798" lon="-0.51495">
        <ele>188.56</ele>
        <time>2019-10-26T09:07:34Z</time>
      </trkpt>
      <trkpt lat="43.40788" lon="-0.51469">
        <ele>185.19</ele>
        <time>2019-10-26T09:07:38Z</time>
      </trkpt>
      <trkpt lat="43.40772" lon="-0.51415">
        <ele>184.23</ele>
        <time>2019-10-26T09:07:48Z</time>
      </trkpt>
      <trkpt lat="43.40762" lon="-0.51401">
        <ele>183.75</ele>
        <time>2019-10-26T09:07:51Z</time>
      </trkpt>
      <trkpt lat="43.40741" lon="-0.51351">
        <ele>184.23</ele>
        <time>2019-10-26T09:08:03Z</time>
      </trkpt>
      <trkpt lat="43.4075" lon="-0.51305">
        <ele>189.52</ele>
        <time>2019-10-26T09:08:13Z</time>
      </trkpt>
      <trkpt lat="43.40764" lon="-0.51279">
        <ele>190.96</ele>
        <time>2019-10-26T09:08:23Z</time>
      </trkpt>
      <trkpt lat="43.40787" lon="-0.51237">
        <ele>191.44</ele>
        <time>2019-10-26T09:08:36Z</time>
      </trkpt>
      <trkpt lat="43.40797" lon="-0.51217">
        <ele>191.92</ele>
        <time>2019-10-26T09:08:42Z</time>
      </trkpt>
      <trkpt lat="43.40798" lon="-0.51213">
        <ele>192.4</ele>
        <time>2019-10-26T09:08:43Z</time>
      </trkpt>
      <trkpt lat="43.40798" lon="-0.51209">
        <ele>192.4</ele>
        <time>2019-10-26T09:08:44Z</time>
      </trkpt>
      <trkpt lat="43.408" lon="-0.51206">
        <ele>192.88</ele>
        <time>2019-10-26T09:08:45Z</time>
      </trkpt>
      <trkpt lat="43.40801" lon="-0.51202">
        <ele>192.88</ele>
        <time>2019-10-26T09:08:46Z</time>
      </trkpt>
      <trkpt lat="43.40803" lon="-0.51198">
        <ele>192.88</ele>
        <time>2019-10-26T09:08:47Z</time>
      </trkpt>
      <trkpt lat="43.40829" lon="-0.51142">
        <ele>195.28</ele>
        <time>2019-10-26T09:09:03Z</time>
      </trkpt>
      <trkpt lat="43.40839" lon="-0.51095">
        <ele>197.21</ele>
        <time>2019-10-26T09:09:16Z</time>
      </trkpt>
      <trkpt lat="43.40844" lon="-0.51066">
        <ele>197.69</ele>
        <time>2019-10-26T09:09:25Z</time>
      </trkpt>
      <trkpt lat="43.40846" lon="-0.51065">
        <ele>197.69</ele>
        <time>2019-10-26T09:09:26Z</time>
      </trkpt>
      <trkpt lat="43.40848" lon="-0.51066">
        <ele>197.69</ele>
        <time>2019-10-26T09:09:27Z</time>
      </trkpt>
      <trkpt lat="43.4085" lon="-0.51067">
        <ele>198.17</ele>
        <time>2019-10-26T09:09:28Z</time>
      </trkpt>
      <trkpt lat="43.40852" lon="-0.51069">
        <ele>198.65</ele>
        <time>2019-10-26T09:09:29Z</time>
      </trkpt>
      <trkpt lat="43.40854" lon="-0.51071">
        <ele>198.65</ele>
        <time>2019-10-26T09:09:30Z</time>
      </trkpt>
      <trkpt lat="43.40855" lon="-0.51073">
        <ele>199.13</ele>
        <time>2019-10-26T09:09:31Z</time>
      </trkpt>
      <trkpt lat="43.40857" lon="-0.51075">
        <ele>199.61</ele>
        <time>2019-10-26T09:09:32Z</time>
      </trkpt>
      <trkpt lat="43.40858" lon="-0.51077">
        <ele>199.61</ele>
        <time>2019-10-26T09:09:33Z</time>
      </trkpt>
      <trkpt lat="43.40878" lon="-0.51107">
        <ele>203.46</ele>
        <time>2019-10-26T09:09:47Z</time>
      </trkpt>
      <trkpt lat="43.40893" lon="-0.51139">
        <ele>207.3</ele>
        <time>2019-10-26T09:09:59Z</time>
      </trkpt>
      <trkpt lat="43.40906" lon="-0.51191">
        <ele>206.34</ele>
        <time>2019-10-26T09:10:11Z</time>
      </trkpt>
      <trkpt lat="43.40921" lon="-0.51266">
        <ele>204.9</ele>
        <time>2019-10-26T09:10:27Z</time>
      </trkpt>
      <trkpt lat="43.40942" lon="-0.51354">
        <ele>201.53</ele>
        <time>2019-10-26T09:10:42Z</time>
      </trkpt>
      <trkpt lat="43.40975" lon="-0.51437">
        <ele>200.57</ele>
        <time>2019-10-26T09:10:55Z</time>
      </trkpt>
      <trkpt lat="43.40999" lon="-0.51527">
        <ele>197.21</ele>
        <time>2019-10-26T09:11:09Z</time>
      </trkpt>
      <trkpt lat="43.41004" lon="-0.51541">
        <ele>197.21</ele>
        <time>2019-10-26T09:11:11Z</time>
      </trkpt>
      <trkpt lat="43.41007" lon="-0.51547">
        <ele>196.73</ele>
        <time>2019-10-26T09:11:12Z</time>
      </trkpt>
      <trkpt lat="43.41011" lon="-0.51553">
        <ele>196.73</ele>
        <time>2019-10-26T09:11:13Z</time>
      </trkpt>
      <trkpt lat="43.41015" lon="-0.51558">
        <ele>196.73</ele>
        <time>2019-10-26T09:11:14Z</time>
      </trkpt>
      <trkpt lat="43.41019" lon="-0.51563">
        <ele>196.73</ele>
        <time>2019-10-26T09:11:15Z</time>
      </trkpt>
      <trkpt lat="43.41021" lon="-0.51569">
        <ele>196.73</ele>
        <time>2019-10-26T09:11:16Z</time>
      </trkpt>
      <trkpt lat="43.41024" lon="-0.51574">
        <ele>196.73</ele>
        <time>2019-10-26T09:11:17Z</time>
      </trkpt>
      <trkpt lat="43.41051" lon="-0.51654">
        <ele>195.77</ele>
        <time>2019-10-26T09:11:31Z</time>
      </trkpt>
      <trkpt lat="43.41074" lon="-0.51716">
        <ele>192.88</ele>
        <time>2019-10-26T09:11:46Z</time>
      </trkpt>
      <trkpt lat="43.41078" lon="-0.51717">
        <ele>193.36</ele>
        <time>2019-10-26T09:11:48Z</time>
      </trkpt>
      <trkpt lat="43.41079" lon="-0.51717">
        <ele>193.36</ele>
        <time>2019-10-26T09:11:49Z</time>
      </trkpt>
      <trkpt lat="43.4108" lon="-0.51716">
        <ele>192.88</ele>
        <time>2019-10-26T09:11:50Z</time>
      </trkpt>
      <trkpt lat="43.41081" lon="-0.51714">
        <ele>192.88</ele>
        <time>2019-10-26T09:11:51Z</time>
      </trkpt>
      <trkpt lat="43.41081" lon="-0.51712">
        <ele>193.36</ele>
        <time>2019-10-26T09:11:52Z</time>
      </trkpt>
      <trkpt lat="43.41082" lon="-0.5171">
        <ele>192.88</ele>
        <time>2019-10-26T09:11:53Z</time>
      </trkpt>
      <trkpt lat="43.41079" lon="-0.51683">
        <ele>194.32</ele>
        <time>2019-10-26T09:12:07Z</time>
      </trkpt>
      <trkpt lat="43.41079" lon="-0.51655">
        <ele>196.73</ele>
        <time>2019-10-26T09:12:21Z</time>
      </trkpt>
      <trkpt lat="43.41079" lon="-0.51653">
        <ele>196.73</ele>
        <time>2019-10-26T09:12:22Z</time>
      </trkpt>
      <trkpt lat="43.41079" lon="-0.51652">
        <ele>196.73</ele>
        <time>2019-10-26T09:12:23Z</time>
      </trkpt>
      <trkpt lat="43.41079" lon="-0.5165">
        <ele>196.73</ele>
        <time>2019-10-26T09:12:24Z</time>
      </trkpt>
      <trkpt lat="43.41079" lon="-0.51648">
        <ele>196.73</ele>
        <time>2019-10-26T09:12:25Z</time>
      </trkpt>
      <trkpt lat="43.41079" lon="-0.51647">
        <ele>197.21</ele>
        <time>2019-10-26T09:12:26Z</time>
      </trkpt>
      <trkpt lat="43.41079" lon="-0.51645">
        <ele>197.69</ele>
        <time>2019-10-26T09:12:27Z</time>
      </trkpt>
      <trkpt lat="43.41079" lon="-0.51642">
        <ele>198.17</ele>
        <time>2019-10-26T09:12:29Z</time>
      </trkpt>
      <trkpt lat="43.41078" lon="-0.51616">
        <ele>200.57</ele>
        <time>2019-10-26T09:12:45Z</time>
      </trkpt>
      <trkpt lat="43.41077" lon="-0.5159">
        <ele>201.05</ele>
        <time>2019-10-26T09:13:00Z</time>
      </trkpt>
      <trkpt lat="43.41077" lon="-0.51588">
        <ele>201.05</ele>
        <time>2019-10-26T09:13:01Z</time>
      </trkpt>
      <trkpt lat="43.41077" lon="-0.51568">
        <ele>204.42</ele>
        <time>2019-10-26T09:13:14Z</time>
      </trkpt>
      <trkpt lat="43.41076" lon="-0.51553">
        <ele>206.82</ele>
        <time>2019-10-26T09:13:27Z</time>
      </trkpt>
      <trkpt lat="43.41076" lon="-0.51543">
        <ele>208.26</ele>
        <time>2019-10-26T09:13:41Z</time>
      </trkpt>
      <trkpt lat="43.41075" lon="-0.5153">
        <ele>211.63</ele>
        <time>2019-10-26T09:13:51Z</time>
      </trkpt>
      <trkpt lat="43.41076" lon="-0.51523">
        <ele>212.11</ele>
        <time>2019-10-26T09:14:02Z</time>
      </trkpt>
      <trkpt lat="43.41076" lon="-0.51513">
        <ele>213.55</ele>
        <time>2019-10-26T09:14:15Z</time>
      </trkpt>
      <trkpt lat="43.41076" lon="-0.51497">
        <ele>215.47</ele>
        <time>2019-10-26T09:14:27Z</time>
      </trkpt>
      <trkpt lat="43.41073" lon="-0.51476">
        <ele>219.8</ele>
        <time>2019-10-26T09:14:40Z</time>
      </trkpt>
      <trkpt lat="43.41073" lon="-0.51454">
        <ele>221.72</ele>
        <time>2019-10-26T09:14:55Z</time>
      </trkpt>
      <trkpt lat="43.41076" lon="-0.51432">
        <ele>224.12</ele>
        <time>2019-10-26T09:15:08Z</time>
      </trkpt>
      <trkpt lat="43.41076" lon="-0.51422">
        <ele>226.53</ele>
        <time>2019-10-26T09:15:15Z</time>
      </trkpt>
      <trkpt lat="43.41077" lon="-0.51408">
        <ele>231.33</ele>
        <time>2019-10-26T09:15:27Z</time>
      </trkpt>
      <trkpt lat="43.41077" lon="-0.51402">
        <ele>232.78</ele>
        <time>2019-10-26T09:15:32Z</time>
      </trkpt>
      <trkpt lat="43.41079" lon="-0.5139">
        <ele>235.66</ele>
        <time>2019-10-26T09:15:45Z</time>
      </trkpt>
      <trkpt lat="43.41079" lon="-0.51389">
        <ele>235.66</ele>
        <time>2019-10-26T09:15:46Z</time>
      </trkpt>
      <trkpt lat="43.4108" lon="-0.51382">
        <ele>236.62</ele>
        <time>2019-10-26T09:15:51Z</time>
      </trkpt>
      <trkpt lat="43.41081" lon="-0.51379">
        <ele>236.62</ele>
        <time>2019-10-26T09:15:53Z</time>
      </trkpt>
      <trkpt lat="43.41088" lon="-0.51366">
        <ele>238.06</ele>
        <time>2019-10-26T09:16:06Z</time>
      </trkpt>
      <trkpt lat="43.41095" lon="-0.51365">
        <ele>237.58</ele>
        <time>2019-10-26T09:16:20Z</time>
      </trkpt>
      <trkpt lat="43.41107" lon="-0.51366">
        <ele>239.99</ele>
        <time>2019-10-26T09:16:33Z</time>
      </trkpt>
      <trkpt lat="43.41113" lon="-0.51368">
        <ele>240.47</ele>
        <time>2019-10-26T09:16:37Z</time>
      </trkpt>
      <trkpt lat="43.41122" lon="-0.51365">
        <ele>239.99</ele>
        <time>2019-10-26T09:16:43Z</time>
      </trkpt>
      <trkpt lat="43.41139" lon="-0.51348">
        <ele>238.54</ele>
        <time>2019-10-26T09:16:58Z</time>
      </trkpt>
      <trkpt lat="43.41148" lon="-0.51341">
        <ele>239.99</ele>
        <time>2019-10-26T09:17:07Z</time>
      </trkpt>
      <trkpt lat="43.41167" lon="-0.51325">
        <ele>241.43</ele>
        <time>2019-10-26T09:17:25Z</time>
      </trkpt>
      <trkpt lat="43.41184" lon="-0.51306">
        <ele>242.87</ele>
        <time>2019-10-26T09:17:42Z</time>
      </trkpt>
      <trkpt lat="43.41202" lon="-0.51289">
        <ele>246.23</ele>
        <time>2019-10-26T09:18:00Z</time>
      </trkpt>
      <trkpt lat="43.41214" lon="-0.51279">
        <ele>248.64</ele>
        <time>2019-10-26T09:18:11Z</time>
      </trkpt>
      <trkpt lat="43.41218" lon="-0.51278">
        <ele>249.6</ele>
        <time>2019-10-26T09:18:16Z</time>
      </trkpt>
      <trkpt lat="43.41219" lon="-0.51278">
        <ele>249.6</ele>
        <time>2019-10-26T09:18:17Z</time>
      </trkpt>
      <trkpt lat="43.4122" lon="-0.5128">
        <ele>250.08</ele>
        <time>2019-10-26T09:18:18Z</time>
      </trkpt>
      <trkpt lat="43.41221" lon="-0.51281">
        <ele>250.08</ele>
        <time>2019-10-26T09:18:19Z</time>
      </trkpt>
      <trkpt lat="43.41221" lon="-0.51282">
        <ele>250.08</ele>
        <time>2019-10-26T09:18:20Z</time>
      </trkpt>
      <trkpt lat="43.41224" lon="-0.51289">
        <ele>250.56</ele>
        <time>2019-10-26T09:18:25Z</time>
      </trkpt>
      <trkpt lat="43.41225" lon="-0.51291">
        <ele>251.04</ele>
        <time>2019-10-26T09:18:27Z</time>
      </trkpt>
      <trkpt lat="43.41225" lon="-0.51293">
        <ele>251.04</ele>
        <time>2019-10-26T09:18:28Z</time>
      </trkpt>
      <trkpt lat="43.41226" lon="-0.51294">
        <ele>251.52</ele>
        <time>2019-10-26T09:18:29Z</time>
      </trkpt>
      <trkpt lat="43.41227" lon="-0.51297">
        <ele>251.52</ele>
        <time>2019-10-26T09:18:30Z</time>
      </trkpt>
      <trkpt lat="43.41227" lon="-0.51298">
        <ele>251.52</ele>
        <time>2019-10-26T09:18:31Z</time>
      </trkpt>
      <trkpt lat="43.41228" lon="-0.51299">
        <ele>251.52</ele>
        <time>2019-10-26T09:18:32Z</time>
      </trkpt>
      <trkpt lat="43.41228" lon="-0.51301">
        <ele>252</ele>
        <time>2019-10-26T09:18:33Z</time>
      </trkpt>
      <trkpt lat="43.41229" lon="-0.51303">
        <ele>252</ele>
        <time>2019-10-26T09:18:34Z</time>
      </trkpt>
      <trkpt lat="43.41229" lon="-0.51304">
        <ele>252</ele>
        <time>2019-10-26T09:18:35Z</time>
      </trkpt>
      <trkpt lat="43.4123" lon="-0.51306">
        <ele>252</ele>
        <time>2019-10-26T09:18:36Z</time>
      </trkpt>
      <trkpt lat="43.41231" lon="-0.51308">
        <ele>252</ele>
        <time>2019-10-26T09:18:37Z</time>
      </trkpt>
      <trkpt lat="43.41244" lon="-0.51332">
        <ele>252</ele>
        <time>2019-10-26T09:18:50Z</time>
      </trkpt>
      <trkpt lat="43.41256" lon="-0.51379">
        <ele>252</ele>
        <time>2019-10-26T09:19:04Z</time>
      </trkpt>
      <trkpt lat="43.41271" lon="-0.51454">
        <ele>251.52</ele>
        <time>2019-10-26T09:19:19Z</time>
      </trkpt>
      <trkpt lat="43.4127" lon="-0.51489">
        <ele>250.56</ele>
        <time>2019-10-26T09:19:24Z</time>
      </trkpt>
      <trkpt lat="43.41277" lon="-0.51604">
        <ele>246.72</ele>
        <time>2019-10-26T09:19:37Z</time>
      </trkpt>
      <trkpt lat="43.41307" lon="-0.51715">
        <ele>239.99</ele>
        <time>2019-10-26T09:19:49Z</time>
      </trkpt>
      <trkpt lat="43.41328" lon="-0.51805">
        <ele>233.26</ele>
        <time>2019-10-26T09:19:58Z</time>
      </trkpt>
      <trkpt lat="43.41329" lon="-0.51813">
        <ele>232.78</ele>
        <time>2019-10-26T09:19:59Z</time>
      </trkpt>
      <trkpt lat="43.41337" lon="-0.51914">
        <ele>227.01</ele>
        <time>2019-10-26T09:20:09Z</time>
      </trkpt>
      <trkpt lat="43.41367" lon="-0.52035">
        <ele>219.8</ele>
        <time>2019-10-26T09:20:19Z</time>
      </trkpt>
      <trkpt lat="43.41399" lon="-0.5217">
        <ele>207.3</ele>
        <time>2019-10-26T09:20:30Z</time>
      </trkpt>
      <trkpt lat="43.41412" lon="-0.52203">
        <ele>204.42</ele>
        <time>2019-10-26T09:20:33Z</time>
      </trkpt>
      <trkpt lat="43.41417" lon="-0.52212">
        <ele>203.46</ele>
        <time>2019-10-26T09:20:34Z</time>
      </trkpt>
      <trkpt lat="43.41422" lon="-0.52217">
        <ele>202.49</ele>
        <time>2019-10-26T09:20:35Z</time>
      </trkpt>
      <trkpt lat="43.41428" lon="-0.52221">
        <ele>202.01</ele>
        <time>2019-10-26T09:20:36Z</time>
      </trkpt>
      <trkpt lat="43.41433" lon="-0.52223">
        <ele>201.53</ele>
        <time>2019-10-26T09:20:37Z</time>
      </trkpt>
      <trkpt lat="43.41438" lon="-0.52222">
        <ele>201.05</ele>
        <time>2019-10-26T09:20:38Z</time>
      </trkpt>
      <trkpt lat="43.41443" lon="-0.5222">
        <ele>200.09</ele>
        <time>2019-10-26T09:20:39Z</time>
      </trkpt>
      <trkpt lat="43.41447" lon="-0.52217">
        <ele>199.61</ele>
        <time>2019-10-26T09:20:40Z</time>
      </trkpt>
      <trkpt lat="43.41452" lon="-0.52215">
        <ele>198.65</ele>
        <time>2019-10-26T09:20:41Z</time>
      </trkpt>
      <trkpt lat="43.41457" lon="-0.52215">
        <ele>198.17</ele>
        <time>2019-10-26T09:20:42Z</time>
      </trkpt>
      <trkpt lat="43.41461" lon="-0.52216">
        <ele>197.69</ele>
        <time>2019-10-26T09:20:43Z</time>
      </trkpt>
      <trkpt lat="43.41464" lon="-0.52219">
        <ele>197.21</ele>
        <time>2019-10-26T09:20:44Z</time>
      </trkpt>
      <trkpt lat="43.41466" lon="-0.52223">
        <ele>196.73</ele>
        <time>2019-10-26T09:20:45Z</time>
      </trkpt>
      <trkpt lat="43.41467" lon="-0.52227">
        <ele>196.73</ele>
        <time>2019-10-26T09:20:46Z</time>
      </trkpt>
      <trkpt lat="43.41466" lon="-0.52232">
        <ele>196.25</ele>
        <time>2019-10-26T09:20:47Z</time>
      </trkpt>
      <trkpt lat="43.41465" lon="-0.52237">
        <ele>195.77</ele>
        <time>2019-10-26T09:20:48Z</time>
      </trkpt>
      <trkpt lat="43.41462" lon="-0.52243">
        <ele>195.28</ele>
        <time>2019-10-26T09:20:49Z</time>
      </trkpt>
      <trkpt lat="43.41459" lon="-0.5225">
        <ele>195.28</ele>
        <time>2019-10-26T09:20:50Z</time>
      </trkpt>
      <trkpt lat="43.41454" lon="-0.52264">
        <ele>194.8</ele>
        <time>2019-10-26T09:20:52Z</time>
      </trkpt>
      <trkpt lat="43.41454" lon="-0.52272">
        <ele>194.8</ele>
        <time>2019-10-26T09:20:53Z</time>
      </trkpt>
      <trkpt lat="43.41454" lon="-0.5228">
        <ele>194.8</ele>
        <time>2019-10-26T09:20:54Z</time>
      </trkpt>
      <trkpt lat="43.41456" lon="-0.52287">
        <ele>194.8</ele>
        <time>2019-10-26T09:20:55Z</time>
      </trkpt>
      <trkpt lat="43.41458" lon="-0.52293">
        <ele>194.8</ele>
        <time>2019-10-26T09:20:56Z</time>
      </trkpt>
      <trkpt lat="43.41468" lon="-0.52325">
        <ele>193.84</ele>
        <time>2019-10-26T09:21:06Z</time>
      </trkpt>
      <trkpt lat="43.4147" lon="-0.52328">
        <ele>189.04</ele>
        <time>2019-10-26T09:21:27Z</time>
      </trkpt>
      <trkpt lat="43.4147" lon="-0.52328">
        <ele>188.08</ele>
        <time>2019-10-26T09:21:53Z</time>
      </trkpt>
      <trkpt lat="43.41478" lon="-0.52352">
        <ele>190.48</ele>
        <time>2019-10-26T09:22:07Z</time>
      </trkpt>
      <trkpt lat="43.41496" lon="-0.52389">
        <ele>190</ele>
        <time>2019-10-26T09:22:20Z</time>
      </trkpt>
      <trkpt lat="43.41514" lon="-0.52434">
        <ele>191.92</ele>
        <time>2019-10-26T09:22:34Z</time>
      </trkpt>
      <trkpt lat="43.41534" lon="-0.52492">
        <ele>190</ele>
        <time>2019-10-26T09:22:45Z</time>
      </trkpt>
      <trkpt lat="43.41536" lon="-0.52499">
        <ele>189.52</ele>
        <time>2019-10-26T09:22:46Z</time>
      </trkpt>
      <trkpt lat="43.41539" lon="-0.52515">
        <ele>189.04</ele>
        <time>2019-10-26T09:22:48Z</time>
      </trkpt>
      <trkpt lat="43.4154" lon="-0.52522">
        <ele>188.56</ele>
        <time>2019-10-26T09:22:49Z</time>
      </trkpt>
      <trkpt lat="43.4154" lon="-0.5256">
        <ele>184.71</ele>
        <time>2019-10-26T09:22:54Z</time>
      </trkpt>
      <trkpt lat="43.41537" lon="-0.52594">
        <ele>180.38</ele>
        <time>2019-10-26T09:22:58Z</time>
      </trkpt>
      <trkpt lat="43.41537" lon="-0.52604">
        <ele>179.42</ele>
        <time>2019-10-26T09:22:59Z</time>
      </trkpt>
      <trkpt lat="43.4155" lon="-0.52651">
        <ele>173.66</ele>
        <time>2019-10-26T09:23:07Z</time>
      </trkpt>
      <trkpt lat="43.41557" lon="-0.52666">
        <ele>174.14</ele>
        <time>2019-10-26T09:23:12Z</time>
      </trkpt>
      <trkpt lat="43.41556" lon="-0.52673">
        <ele>175.1</ele>
        <time>2019-10-26T09:23:24Z</time>
      </trkpt>
      <trkpt lat="43.41553" lon="-0.52674">
        <ele>177.02</ele>
        <time>2019-10-26T09:23:49Z</time>
      </trkpt>
      <trkpt lat="43.41554" lon="-0.52674">
        <ele>178.94</ele>
        <time>2019-10-26T09:24:08Z</time>
      </trkpt>
      <trkpt lat="43.41562" lon="-0.52679">
        <ele>181.83</ele>
        <time>2019-10-26T09:24:38Z</time>
      </trkpt>
      <trkpt lat="43.4156" lon="-0.5268">
        <ele>181.83</ele>
        <time>2019-10-26T09:24:44Z</time>
      </trkpt>
      <trkpt lat="43.41559" lon="-0.5268">
        <ele>181.35</ele>
        <time>2019-10-26T09:24:45Z</time>
      </trkpt>
      <trkpt lat="43.41552" lon="-0.52682">
        <ele>180.87</ele>
        <time>2019-10-26T09:24:47Z</time>
      </trkpt>
      <trkpt lat="43.41547" lon="-0.52683">
        <ele>180.38</ele>
        <time>2019-10-26T09:24:48Z</time>
      </trkpt>
      <trkpt lat="43.4152" lon="-0.5269">
        <ele>179.42</ele>
        <time>2019-10-26T09:24:57Z</time>
      </trkpt>
      <trkpt lat="43.41507" lon="-0.52717">
        <ele>177.98</ele>
        <time>2019-10-26T09:25:06Z</time>
      </trkpt>
      <trkpt lat="43.41495" lon="-0.52748">
        <ele>181.35</ele>
        <time>2019-10-26T09:25:17Z</time>
      </trkpt>
      <trkpt lat="43.41493" lon="-0.52764">
        <ele>181.35</ele>
        <time>2019-10-26T09:25:22Z</time>
      </trkpt>
      <trkpt lat="43.41493" lon="-0.52766">
        <ele>181.35</ele>
        <time>2019-10-26T09:25:23Z</time>
      </trkpt>
      <trkpt lat="43.41493" lon="-0.52768">
        <ele>182.31</ele>
        <time>2019-10-26T09:25:24Z</time>
      </trkpt>
      <trkpt lat="43.41493" lon="-0.52771">
        <ele>182.31</ele>
        <time>2019-10-26T09:25:25Z</time>
      </trkpt>
      <trkpt lat="43.41493" lon="-0.52774">
        <ele>182.79</ele>
        <time>2019-10-26T09:25:26Z</time>
      </trkpt>
      <trkpt lat="43.41485" lon="-0.5281">
        <ele>188.08</ele>
        <time>2019-10-26T09:25:39Z</time>
      </trkpt>
      <trkpt lat="43.41488" lon="-0.52834">
        <ele>192.4</ele>
        <time>2019-10-26T09:25:50Z</time>
      </trkpt>
      <trkpt lat="43.41499" lon="-0.52867">
        <ele>193.36</ele>
        <time>2019-10-26T09:26:04Z</time>
      </trkpt>
      <trkpt lat="43.41501" lon="-0.52876">
        <ele>194.8</ele>
        <time>2019-10-26T09:26:08Z</time>
      </trkpt>
      <trkpt lat="43.41501" lon="-0.52878">
        <ele>195.28</ele>
        <time>2019-10-26T09:26:09Z</time>
      </trkpt>
      <trkpt lat="43.41504" lon="-0.52896">
        <ele>195.77</ele>
        <time>2019-10-26T09:26:15Z</time>
      </trkpt>
      <trkpt lat="43.41505" lon="-0.52898">
        <ele>195.77</ele>
        <time>2019-10-26T09:26:16Z</time>
      </trkpt>
      <trkpt lat="43.41506" lon="-0.529">
        <ele>196.25</ele>
        <time>2019-10-26T09:26:17Z</time>
      </trkpt>
      <trkpt lat="43.41507" lon="-0.52902">
        <ele>196.25</ele>
        <time>2019-10-26T09:26:18Z</time>
      </trkpt>
      <trkpt lat="43.41507" lon="-0.52904">
        <ele>196.25</ele>
        <time>2019-10-26T09:26:19Z</time>
      </trkpt>
      <trkpt lat="43.41508" lon="-0.52906">
        <ele>196.73</ele>
        <time>2019-10-26T09:26:20Z</time>
      </trkpt>
      <trkpt lat="43.41512" lon="-0.52924">
        <ele>196.73</ele>
        <time>2019-10-26T09:26:27Z</time>
      </trkpt>
      <trkpt lat="43.41524" lon="-0.52954">
        <ele>199.13</ele>
        <time>2019-10-26T09:26:40Z</time>
      </trkpt>
      <trkpt lat="43.41537" lon="-0.5299">
        <ele>200.09</ele>
        <time>2019-10-26T09:26:53Z</time>
      </trkpt>
      <trkpt lat="43.41543" lon="-0.53013">
        <ele>196.73</ele>
        <time>2019-10-26T09:27:05Z</time>
      </trkpt>
      <trkpt lat="43.4154" lon="-0.53023">
        <ele>197.21</ele>
        <time>2019-10-26T09:27:38Z</time>
      </trkpt>
      <trkpt lat="43.41543" lon="-0.53018">
        <ele>197.69</ele>
        <time>2019-10-26T09:27:58Z</time>
      </trkpt>
      <trkpt lat="43.41544" lon="-0.53018">
        <ele>195.77</ele>
        <time>2019-10-26T09:28:29Z</time>
      </trkpt>
      <trkpt lat="43.41545" lon="-0.53022">
        <ele>194.32</ele>
        <time>2019-10-26T09:28:38Z</time>
      </trkpt>
      <trkpt lat="43.41545" lon="-0.53023">
        <ele>194.8</ele>
        <time>2019-10-26T09:28:39Z</time>
      </trkpt>
      <trkpt lat="43.41549" lon="-0.53037">
        <ele>195.77</ele>
        <time>2019-10-26T09:28:46Z</time>
      </trkpt>
      <trkpt lat="43.4155" lon="-0.53039">
        <ele>196.25</ele>
        <time>2019-10-26T09:28:47Z</time>
      </trkpt>
      <trkpt lat="43.41551" lon="-0.53041">
        <ele>196.25</ele>
        <time>2019-10-26T09:28:48Z</time>
      </trkpt>
      <trkpt lat="43.41551" lon="-0.53042">
        <ele>196.25</ele>
        <time>2019-10-26T09:28:49Z</time>
      </trkpt>
      <trkpt lat="43.41552" lon="-0.53044">
        <ele>197.21</ele>
        <time>2019-10-26T09:28:50Z</time>
      </trkpt>
      <trkpt lat="43.41553" lon="-0.53047">
        <ele>197.21</ele>
        <time>2019-10-26T09:28:51Z</time>
      </trkpt>
      <trkpt lat="43.41554" lon="-0.5305">
        <ele>196.73</ele>
        <time>2019-10-26T09:28:52Z</time>
      </trkpt>
      <trkpt lat="43.41554" lon="-0.53052">
        <ele>196.25</ele>
        <time>2019-10-26T09:28:53Z</time>
      </trkpt>
      <trkpt lat="43.41554" lon="-0.53054">
        <ele>196.25</ele>
        <time>2019-10-26T09:28:54Z</time>
      </trkpt>
      <trkpt lat="43.41555" lon="-0.53057">
        <ele>196.25</ele>
        <time>2019-10-26T09:28:55Z</time>
      </trkpt>
      <trkpt lat="43.41555" lon="-0.5306">
        <ele>196.25</ele>
        <time>2019-10-26T09:28:56Z</time>
      </trkpt>
      <trkpt lat="43.41555" lon="-0.53063">
        <ele>196.25</ele>
        <time>2019-10-26T09:28:57Z</time>
      </trkpt>
      <trkpt lat="43.41556" lon="-0.53065">
        <ele>195.77</ele>
        <time>2019-10-26T09:28:58Z</time>
      </trkpt>
      <trkpt lat="43.41556" lon="-0.53068">
        <ele>196.25</ele>
        <time>2019-10-26T09:28:59Z</time>
      </trkpt>
      <trkpt lat="43.41557" lon="-0.5307">
        <ele>196.25</ele>
        <time>2019-10-26T09:29:00Z</time>
      </trkpt>
      <trkpt lat="43.4156" lon="-0.53081">
        <ele>196.25</ele>
        <time>2019-10-26T09:29:04Z</time>
      </trkpt>
      <trkpt lat="43.4156" lon="-0.53083">
        <ele>196.25</ele>
        <time>2019-10-26T09:29:05Z</time>
      </trkpt>
      <trkpt lat="43.41561" lon="-0.53085">
        <ele>196.25</ele>
        <time>2019-10-26T09:29:06Z</time>
      </trkpt>
      <trkpt lat="43.41562" lon="-0.53087">
        <ele>196.25</ele>
        <time>2019-10-26T09:29:07Z</time>
      </trkpt>
      <trkpt lat="43.41562" lon="-0.5309">
        <ele>196.25</ele>
        <time>2019-10-26T09:29:08Z</time>
      </trkpt>
      <trkpt lat="43.41563" lon="-0.53092">
        <ele>196.25</ele>
        <time>2019-10-26T09:29:09Z</time>
      </trkpt>
      <trkpt lat="43.41563" lon="-0.53095">
        <ele>196.73</ele>
        <time>2019-10-26T09:29:10Z</time>
      </trkpt>
      <trkpt lat="43.41563" lon="-0.53098">
        <ele>196.73</ele>
        <time>2019-10-26T09:29:11Z</time>
      </trkpt>
      <trkpt lat="43.41563" lon="-0.531">
        <ele>197.21</ele>
        <time>2019-10-26T09:29:12Z</time>
      </trkpt>
      <trkpt lat="43.41563" lon="-0.53102">
        <ele>197.69</ele>
        <time>2019-10-26T09:29:13Z</time>
      </trkpt>
      <trkpt lat="43.41563" lon="-0.53105">
        <ele>198.17</ele>
        <time>2019-10-26T09:29:14Z</time>
      </trkpt>
      <trkpt lat="43.41563" lon="-0.53107">
        <ele>198.17</ele>
        <time>2019-10-26T09:29:15Z</time>
      </trkpt>
      <trkpt lat="43.41563" lon="-0.5311">
        <ele>198.17</ele>
        <time>2019-10-26T09:29:16Z</time>
      </trkpt>
      <trkpt lat="43.41562" lon="-0.53113">
        <ele>198.17</ele>
        <time>2019-10-26T09:29:17Z</time>
      </trkpt>
      <trkpt lat="43.41562" lon="-0.53116">
        <ele>198.65</ele>
        <time>2019-10-26T09:29:18Z</time>
      </trkpt>
      <trkpt lat="43.41559" lon="-0.53141">
        <ele>202.01</ele>
        <time>2019-10-26T09:29:30Z</time>
      </trkpt>
      <trkpt lat="43.41558" lon="-0.53162">
        <ele>203.46</ele>
        <time>2019-10-26T09:29:37Z</time>
      </trkpt>
      <trkpt lat="43.41557" lon="-0.53165">
        <ele>203.46</ele>
        <time>2019-10-26T09:29:38Z</time>
      </trkpt>
      <trkpt lat="43.41556" lon="-0.53167">
        <ele>203.46</ele>
        <time>2019-10-26T09:29:39Z</time>
      </trkpt>
      <trkpt lat="43.41545" lon="-0.53185">
        <ele>206.82</ele>
        <time>2019-10-26T09:29:51Z</time>
      </trkpt>
      <trkpt lat="43.41537" lon="-0.53193">
        <ele>208.74</ele>
        <time>2019-10-26T09:29:59Z</time>
      </trkpt>
      <trkpt lat="43.41522" lon="-0.53194">
        <ele>208.26</ele>
        <time>2019-10-26T09:30:10Z</time>
      </trkpt>
      <trkpt lat="43.41511" lon="-0.5319">
        <ele>205.86</ele>
        <time>2019-10-26T09:30:17Z</time>
      </trkpt>
      <trkpt lat="43.41487" lon="-0.53181">
        <ele>205.38</ele>
        <time>2019-10-26T09:30:33Z</time>
      </trkpt>
      <trkpt lat="43.41468" lon="-0.53176">
        <ele>207.78</ele>
        <time>2019-10-26T09:30:46Z</time>
      </trkpt>
      <trkpt lat="43.41465" lon="-0.53176">
        <ele>208.26</ele>
        <time>2019-10-26T09:30:48Z</time>
      </trkpt>
      <trkpt lat="43.41458" lon="-0.53181">
        <ele>208.74</ele>
        <time>2019-10-26T09:30:54Z</time>
      </trkpt>
      <trkpt lat="43.41459" lon="-0.53208">
        <ele>212.59</ele>
        <time>2019-10-26T09:31:09Z</time>
      </trkpt>
      <trkpt lat="43.41461" lon="-0.53221">
        <ele>213.07</ele>
        <time>2019-10-26T09:31:16Z</time>
      </trkpt>
      <trkpt lat="43.41459" lon="-0.53235">
        <ele>214.99</ele>
        <time>2019-10-26T09:31:23Z</time>
      </trkpt>
      <trkpt lat="43.4145" lon="-0.53261">
        <ele>218.84</ele>
        <time>2019-10-26T09:31:37Z</time>
      </trkpt>
      <trkpt lat="43.41441" lon="-0.53285">
        <ele>219.32</ele>
        <time>2019-10-26T09:31:49Z</time>
      </trkpt>
      <trkpt lat="43.41429" lon="-0.53324">
        <ele>217.4</ele>
        <time>2019-10-26T09:32:04Z</time>
      </trkpt>
      <trkpt lat="43.41413" lon="-0.53351">
        <ele>218.36</ele>
        <time>2019-10-26T09:32:18Z</time>
      </trkpt>
      <trkpt lat="43.41397" lon="-0.5336">
        <ele>218.36</ele>
        <time>2019-10-26T09:32:28Z</time>
      </trkpt>
      <trkpt lat="43.41395" lon="-0.5336">
        <ele>218.36</ele>
        <time>2019-10-26T09:32:29Z</time>
      </trkpt>
      <trkpt lat="43.41372" lon="-0.53354">
        <ele>220.28</ele>
        <time>2019-10-26T09:32:44Z</time>
      </trkpt>
      <trkpt lat="43.41357" lon="-0.53351">
        <ele>222.2</ele>
        <time>2019-10-26T09:32:55Z</time>
      </trkpt>
      <trkpt lat="43.41355" lon="-0.53351">
        <ele>222.2</ele>
        <time>2019-10-26T09:32:56Z</time>
      </trkpt>
      <trkpt lat="43.41354" lon="-0.53351">
        <ele>222.68</ele>
        <time>2019-10-26T09:32:57Z</time>
      </trkpt>
      <trkpt lat="43.41353" lon="-0.5335">
        <ele>222.68</ele>
        <time>2019-10-26T09:32:58Z</time>
      </trkpt>
      <trkpt lat="43.41352" lon="-0.53349">
        <ele>223.16</ele>
        <time>2019-10-26T09:32:59Z</time>
      </trkpt>
      <trkpt lat="43.4135" lon="-0.53349">
        <ele>223.16</ele>
        <time>2019-10-26T09:33:00Z</time>
      </trkpt>
      <trkpt lat="43.41324" lon="-0.53345">
        <ele>223.16</ele>
        <time>2019-10-26T09:33:17Z</time>
      </trkpt>
      <trkpt lat="43.41297" lon="-0.53338">
        <ele>223.64</ele>
        <time>2019-10-26T09:33:31Z</time>
      </trkpt>
      <trkpt lat="43.41261" lon="-0.53327">
        <ele>225.57</ele>
        <time>2019-10-26T09:33:49Z</time>
      </trkpt>
      <trkpt lat="43.41235" lon="-0.5332">
        <ele>227.49</ele>
        <time>2019-10-26T09:34:04Z</time>
      </trkpt>
      <trkpt lat="43.41213" lon="-0.53316">
        <ele>228.45</ele>
        <time>2019-10-26T09:34:17Z</time>
      </trkpt>
      <trkpt lat="43.41186" lon="-0.53307">
        <ele>230.37</ele>
        <time>2019-10-26T09:34:32Z</time>
      </trkpt>
      <trkpt lat="43.41155" lon="-0.53295">
        <ele>232.78</ele>
        <time>2019-10-26T09:34:49Z</time>
      </trkpt>
      <trkpt lat="43.41133" lon="-0.53289">
        <ele>236.62</ele>
        <time>2019-10-26T09:35:03Z</time>
      </trkpt>
      <trkpt lat="43.41112" lon="-0.53283">
        <ele>240.95</ele>
        <time>2019-10-26T09:35:17Z</time>
      </trkpt>
      <trkpt lat="43.41107" lon="-0.53283">
        <ele>241.43</ele>
        <time>2019-10-26T09:35:20Z</time>
      </trkpt>
      <trkpt lat="43.41106" lon="-0.53284">
        <ele>241.43</ele>
        <time>2019-10-26T09:35:21Z</time>
      </trkpt>
      <trkpt lat="43.41104" lon="-0.53284">
        <ele>241.43</ele>
        <time>2019-10-26T09:35:22Z</time>
      </trkpt>
      <trkpt lat="43.41103" lon="-0.53285">
        <ele>241.43</ele>
        <time>2019-10-26T09:35:23Z</time>
      </trkpt>
      <trkpt lat="43.41102" lon="-0.53287">
        <ele>240.95</ele>
        <time>2019-10-26T09:35:24Z</time>
      </trkpt>
      <trkpt lat="43.41101" lon="-0.53289">
        <ele>240.95</ele>
        <time>2019-10-26T09:35:25Z</time>
      </trkpt>
      <trkpt lat="43.41101" lon="-0.53292">
        <ele>240.95</ele>
        <time>2019-10-26T09:35:26Z</time>
      </trkpt>
      <trkpt lat="43.41101" lon="-0.53294">
        <ele>240.95</ele>
        <time>2019-10-26T09:35:27Z</time>
      </trkpt>
      <trkpt lat="43.41101" lon="-0.53296">
        <ele>240.95</ele>
        <time>2019-10-26T09:35:28Z</time>
      </trkpt>
      <trkpt lat="43.41102" lon="-0.53298">
        <ele>240.95</ele>
        <time>2019-10-26T09:35:29Z</time>
      </trkpt>
      <trkpt lat="43.41102" lon="-0.533">
        <ele>240.95</ele>
        <time>2019-10-26T09:35:30Z</time>
      </trkpt>
      <trkpt lat="43.41102" lon="-0.53303">
        <ele>240.47</ele>
        <time>2019-10-26T09:35:31Z</time>
      </trkpt>
      <trkpt lat="43.41103" lon="-0.53305">
        <ele>240.95</ele>
        <time>2019-10-26T09:35:32Z</time>
      </trkpt>
      <trkpt lat="43.41103" lon="-0.53308">
        <ele>240.47</ele>
        <time>2019-10-26T09:35:33Z</time>
      </trkpt>
      <trkpt lat="43.41103" lon="-0.53311">
        <ele>240.47</ele>
        <time>2019-10-26T09:35:34Z</time>
      </trkpt>
      <trkpt lat="43.41103" lon="-0.53314">
        <ele>240.47</ele>
        <time>2019-10-26T09:35:35Z</time>
      </trkpt>
      <trkpt lat="43.41107" lon="-0.53371">
        <ele>239.99</ele>
        <time>2019-10-26T09:35:48Z</time>
      </trkpt>
      <trkpt lat="43.4114" lon="-0.53453">
        <ele>237.58</ele>
        <time>2019-10-26T09:36:01Z</time>
      </trkpt>
      <trkpt lat="43.41151" lon="-0.53478">
        <ele>237.58</ele>
        <time>2019-10-26T09:36:05Z</time>
      </trkpt>
      <trkpt lat="43.41154" lon="-0.53484">
        <ele>237.58</ele>
        <time>2019-10-26T09:36:06Z</time>
      </trkpt>
      <trkpt lat="43.41161" lon="-0.53494">
        <ele>238.06</ele>
        <time>2019-10-26T09:36:08Z</time>
      </trkpt>
      <trkpt lat="43.41165" lon="-0.53499">
        <ele>238.06</ele>
        <time>2019-10-26T09:36:09Z</time>
      </trkpt>
      <trkpt lat="43.41169" lon="-0.53503">
        <ele>237.58</ele>
        <time>2019-10-26T09:36:10Z</time>
      </trkpt>
      <trkpt lat="43.41245" lon="-0.5356">
        <ele>235.18</ele>
        <time>2019-10-26T09:36:24Z</time>
      </trkpt>
      <trkpt lat="43.41314" lon="-0.53609">
        <ele>236.14</ele>
        <time>2019-10-26T09:36:39Z</time>
      </trkpt>
      <trkpt lat="43.41368" lon="-0.53642">
        <ele>240.95</ele>
        <time>2019-10-26T09:36:55Z</time>
      </trkpt>
      <trkpt lat="43.41395" lon="-0.53674">
        <ele>241.91</ele>
        <time>2019-10-26T09:37:07Z</time>
      </trkpt>
      <trkpt lat="43.41374" lon="-0.53726">
        <ele>236.14</ele>
        <time>2019-10-26T09:37:16Z</time>
      </trkpt>
      <trkpt lat="43.41361" lon="-0.53754">
        <ele>231.81</ele>
        <time>2019-10-26T09:37:20Z</time>
      </trkpt>
      <trkpt lat="43.4136" lon="-0.53761">
        <ele>230.85</ele>
        <time>2019-10-26T09:37:21Z</time>
      </trkpt>
      <trkpt lat="43.41359" lon="-0.53769">
        <ele>229.41</ele>
        <time>2019-10-26T09:37:22Z</time>
      </trkpt>
      <trkpt lat="43.4136" lon="-0.53777">
        <ele>228.45</ele>
        <time>2019-10-26T09:37:23Z</time>
      </trkpt>
      <trkpt lat="43.41363" lon="-0.53784">
        <ele>227.49</ele>
        <time>2019-10-26T09:37:24Z</time>
      </trkpt>
      <trkpt lat="43.41367" lon="-0.5379">
        <ele>226.53</ele>
        <time>2019-10-26T09:37:25Z</time>
      </trkpt>
      <trkpt lat="43.41372" lon="-0.53795">
        <ele>226.53</ele>
        <time>2019-10-26T09:37:26Z</time>
      </trkpt>
      <trkpt lat="43.41377" lon="-0.53798">
        <ele>226.53</ele>
        <time>2019-10-26T09:37:27Z</time>
      </trkpt>
      <trkpt lat="43.41381" lon="-0.538">
        <ele>226.53</ele>
        <time>2019-10-26T09:37:28Z</time>
      </trkpt>
      <trkpt lat="43.41418" lon="-0.53819">
        <ele>226.05</ele>
        <time>2019-10-26T09:37:37Z</time>
      </trkpt>
      <trkpt lat="43.41422" lon="-0.53823">
        <ele>226.53</ele>
        <time>2019-10-26T09:37:38Z</time>
      </trkpt>
      <trkpt lat="43.41425" lon="-0.53826">
        <ele>227.01</ele>
        <time>2019-10-26T09:37:39Z</time>
      </trkpt>
      <trkpt lat="43.41428" lon="-0.53829">
        <ele>227.01</ele>
        <time>2019-10-26T09:37:40Z</time>
      </trkpt>
      <trkpt lat="43.41431" lon="-0.53833">
        <ele>227.01</ele>
        <time>2019-10-26T09:37:41Z</time>
      </trkpt>
      <trkpt lat="43.41433" lon="-0.53837">
        <ele>227.49</ele>
        <time>2019-10-26T09:37:42Z</time>
      </trkpt>
      <trkpt lat="43.41439" lon="-0.53888">
        <ele>229.41</ele>
        <time>2019-10-26T09:37:54Z</time>
      </trkpt>
      <trkpt lat="43.41432" lon="-0.53959">
        <ele>233.26</ele>
        <time>2019-10-26T09:38:11Z</time>
      </trkpt>
      <trkpt lat="43.41436" lon="-0.54021">
        <ele>238.06</ele>
        <time>2019-10-26T09:38:27Z</time>
      </trkpt>
      <trkpt lat="43.41442" lon="-0.54056">
        <ele>240.47</ele>
        <time>2019-10-26T09:38:41Z</time>
      </trkpt>
      <trkpt lat="43.41451" lon="-0.54086">
        <ele>245.27</ele>
        <time>2019-10-26T09:38:54Z</time>
      </trkpt>
      <trkpt lat="43.41461" lon="-0.54125">
        <ele>246.72</ele>
        <time>2019-10-26T09:39:08Z</time>
      </trkpt>
      <trkpt lat="43.41467" lon="-0.54169">
        <ele>250.08</ele>
        <time>2019-10-26T09:39:21Z</time>
      </trkpt>
      <trkpt lat="43.41464" lon="-0.54221">
        <ele>249.6</ele>
        <time>2019-10-26T09:39:33Z</time>
      </trkpt>
      <trkpt lat="43.4144" lon="-0.54284">
        <ele>252</ele>
        <time>2019-10-26T09:39:48Z</time>
      </trkpt>
      <trkpt lat="43.4141" lon="-0.5434">
        <ele>254.41</ele>
        <time>2019-10-26T09:40:03Z</time>
      </trkpt>
      <trkpt lat="43.414" lon="-0.54356">
        <ele>254.41</ele>
        <time>2019-10-26T09:40:07Z</time>
      </trkpt>
      <trkpt lat="43.41398" lon="-0.54361">
        <ele>254.41</ele>
        <time>2019-10-26T09:40:08Z</time>
      </trkpt>
      <trkpt lat="43.41388" lon="-0.54419">
        <ele>254.41</ele>
        <time>2019-10-26T09:40:19Z</time>
      </trkpt>
      <trkpt lat="43.41387" lon="-0.54446">
        <ele>252</ele>
        <time>2019-10-26T09:40:23Z</time>
      </trkpt>
      <trkpt lat="43.4138" lon="-0.54478">
        <ele>250.08</ele>
        <time>2019-10-26T09:40:27Z</time>
      </trkpt>
      <trkpt lat="43.41379" lon="-0.54495">
        <ele>249.12</ele>
        <time>2019-10-26T09:40:29Z</time>
      </trkpt>
      <trkpt lat="43.41374" lon="-0.54542">
        <ele>244.31</ele>
        <time>2019-10-26T09:40:37Z</time>
      </trkpt>
      <trkpt lat="43.41371" lon="-0.5455">
        <ele>243.83</ele>
        <time>2019-10-26T09:40:38Z</time>
      </trkpt>
      <trkpt lat="43.41364" lon="-0.54566">
        <ele>242.87</ele>
        <time>2019-10-26T09:40:40Z</time>
      </trkpt>
      <trkpt lat="43.41362" lon="-0.54577">
        <ele>241.91</ele>
        <time>2019-10-26T09:40:41Z</time>
      </trkpt>
      <trkpt lat="43.41362" lon="-0.54588">
        <ele>240.47</ele>
        <time>2019-10-26T09:40:42Z</time>
      </trkpt>
      <trkpt lat="43.41362" lon="-0.546">
        <ele>239.51</ele>
        <time>2019-10-26T09:40:43Z</time>
      </trkpt>
      <trkpt lat="43.41364" lon="-0.54611">
        <ele>239.02</ele>
        <time>2019-10-26T09:40:44Z</time>
      </trkpt>
      <trkpt lat="43.41365" lon="-0.54621">
        <ele>238.06</ele>
        <time>2019-10-26T09:40:45Z</time>
      </trkpt>
      <trkpt lat="43.41366" lon="-0.5463">
        <ele>236.62</ele>
        <time>2019-10-26T09:40:46Z</time>
      </trkpt>
      <trkpt lat="43.41369" lon="-0.54647">
        <ele>234.22</ele>
        <time>2019-10-26T09:40:48Z</time>
      </trkpt>
      <trkpt lat="43.41372" lon="-0.54655">
        <ele>233.26</ele>
        <time>2019-10-26T09:40:49Z</time>
      </trkpt>
      <trkpt lat="43.41396" lon="-0.54702">
        <ele>230.37</ele>
        <time>2019-10-26T09:40:55Z</time>
      </trkpt>
      <trkpt lat="43.41399" lon="-0.5471">
        <ele>229.89</ele>
        <time>2019-10-26T09:40:56Z</time>
      </trkpt>
      <trkpt lat="43.41403" lon="-0.54718">
        <ele>229.41</ele>
        <time>2019-10-26T09:40:57Z</time>
      </trkpt>
      <trkpt lat="43.4146" lon="-0.54833">
        <ele>226.05</ele>
        <time>2019-10-26T09:41:13Z</time>
      </trkpt>
      <trkpt lat="43.41464" lon="-0.54837">
        <ele>226.53</ele>
        <time>2019-10-26T09:41:14Z</time>
      </trkpt>
      <trkpt lat="43.41469" lon="-0.54841">
        <ele>226.53</ele>
        <time>2019-10-26T09:41:15Z</time>
      </trkpt>
      <trkpt lat="43.4149" lon="-0.54857">
        <ele>227.97</ele>
        <time>2019-10-26T09:41:20Z</time>
      </trkpt>
      <trkpt lat="43.41505" lon="-0.5487">
        <ele>228.45</ele>
        <time>2019-10-26T09:41:24Z</time>
      </trkpt>
      <trkpt lat="43.41508" lon="-0.54874">
        <ele>228.45</ele>
        <time>2019-10-26T09:41:25Z</time>
      </trkpt>
      <trkpt lat="43.41511" lon="-0.54878">
        <ele>228.45</ele>
        <time>2019-10-26T09:41:26Z</time>
      </trkpt>
      <trkpt lat="43.41553" lon="-0.54948">
        <ele>225.57</ele>
        <time>2019-10-26T09:41:38Z</time>
      </trkpt>
      <trkpt lat="43.41575" lon="-0.54984">
        <ele>223.64</ele>
        <time>2019-10-26T09:41:43Z</time>
      </trkpt>
      <trkpt lat="43.41578" lon="-0.54993">
        <ele>223.16</ele>
        <time>2019-10-26T09:41:44Z</time>
      </trkpt>
      <trkpt lat="43.41578" lon="-0.55001">
        <ele>222.68</ele>
        <time>2019-10-26T09:41:45Z</time>
      </trkpt>
      <trkpt lat="43.41577" lon="-0.55011">
        <ele>221.72</ele>
        <time>2019-10-26T09:41:46Z</time>
      </trkpt>
      <trkpt lat="43.41575" lon="-0.55021">
        <ele>220.76</ele>
        <time>2019-10-26T09:41:47Z</time>
      </trkpt>
      <trkpt lat="43.41571" lon="-0.5503">
        <ele>220.28</ele>
        <time>2019-10-26T09:41:48Z</time>
      </trkpt>
      <trkpt lat="43.41567" lon="-0.55039">
        <ele>219.32</ele>
        <time>2019-10-26T09:41:49Z</time>
      </trkpt>
      <trkpt lat="43.41561" lon="-0.55048">
        <ele>218.36</ele>
        <time>2019-10-26T09:41:50Z</time>
      </trkpt>
      <trkpt lat="43.41539" lon="-0.55087">
        <ele>214.99</ele>
        <time>2019-10-26T09:41:54Z</time>
      </trkpt>
      <trkpt lat="43.41536" lon="-0.55098">
        <ele>214.03</ele>
        <time>2019-10-26T09:41:55Z</time>
      </trkpt>
      <trkpt lat="43.41535" lon="-0.5511">
        <ele>212.59</ele>
        <time>2019-10-26T09:41:56Z</time>
      </trkpt>
      <trkpt lat="43.41536" lon="-0.55123">
        <ele>211.63</ele>
        <time>2019-10-26T09:41:57Z</time>
      </trkpt>
      <trkpt lat="43.41539" lon="-0.55135">
        <ele>211.15</ele>
        <time>2019-10-26T09:41:58Z</time>
      </trkpt>
      <trkpt lat="43.41545" lon="-0.55172">
        <ele>207.3</ele>
        <time>2019-10-26T09:42:01Z</time>
      </trkpt>
      <trkpt lat="43.41545" lon="-0.55184">
        <ele>205.86</ele>
        <time>2019-10-26T09:42:02Z</time>
      </trkpt>
      <trkpt lat="43.41543" lon="-0.55197">
        <ele>204.9</ele>
        <time>2019-10-26T09:42:03Z</time>
      </trkpt>
      <trkpt lat="43.4154" lon="-0.55209">
        <ele>203.46</ele>
        <time>2019-10-26T09:42:04Z</time>
      </trkpt>
      <trkpt lat="43.41537" lon="-0.55219">
        <ele>202.49</ele>
        <time>2019-10-26T09:42:05Z</time>
      </trkpt>
      <trkpt lat="43.41531" lon="-0.55227">
        <ele>201.05</ele>
        <time>2019-10-26T09:42:06Z</time>
      </trkpt>
      <trkpt lat="43.41525" lon="-0.55234">
        <ele>199.61</ele>
        <time>2019-10-26T09:42:07Z</time>
      </trkpt>
      <trkpt lat="43.41517" lon="-0.5524">
        <ele>198.65</ele>
        <time>2019-10-26T09:42:08Z</time>
      </trkpt>
      <trkpt lat="43.41508" lon="-0.55245">
        <ele>197.21</ele>
        <time>2019-10-26T09:42:09Z</time>
      </trkpt>
      <trkpt lat="43.41501" lon="-0.55252">
        <ele>196.25</ele>
        <time>2019-10-26T09:42:10Z</time>
      </trkpt>
      <trkpt lat="43.41493" lon="-0.55258">
        <ele>194.8</ele>
        <time>2019-10-26T09:42:11Z</time>
      </trkpt>
      <trkpt lat="43.41486" lon="-0.55262">
        <ele>193.36</ele>
        <time>2019-10-26T09:42:12Z</time>
      </trkpt>
      <trkpt lat="43.41478" lon="-0.55265">
        <ele>191.92</ele>
        <time>2019-10-26T09:42:13Z</time>
      </trkpt>
      <trkpt lat="43.41471" lon="-0.55267">
        <ele>190.48</ele>
        <time>2019-10-26T09:42:14Z</time>
      </trkpt>
      <trkpt lat="43.41464" lon="-0.55268">
        <ele>189.52</ele>
        <time>2019-10-26T09:42:15Z</time>
      </trkpt>
      <trkpt lat="43.41459" lon="-0.55268">
        <ele>188.56</ele>
        <time>2019-10-26T09:42:16Z</time>
      </trkpt>
      <trkpt lat="43.41455" lon="-0.55268">
        <ele>187.59</ele>
        <time>2019-10-26T09:42:17Z</time>
      </trkpt>
      <trkpt lat="43.41452" lon="-0.55268">
        <ele>187.11</ele>
        <time>2019-10-26T09:42:18Z</time>
      </trkpt>
      <trkpt lat="43.4145" lon="-0.55268">
        <ele>186.63</ele>
        <time>2019-10-26T09:42:19Z</time>
      </trkpt>
      <trkpt lat="43.41448" lon="-0.5527">
        <ele>186.63</ele>
        <time>2019-10-26T09:42:20Z</time>
      </trkpt>
      <trkpt lat="43.41448" lon="-0.55274">
        <ele>186.15</ele>
        <time>2019-10-26T09:42:21Z</time>
      </trkpt>
      <trkpt lat="43.41448" lon="-0.55279">
        <ele>186.15</ele>
        <time>2019-10-26T09:42:22Z</time>
      </trkpt>
      <trkpt lat="43.41449" lon="-0.55283">
        <ele>186.15</ele>
        <time>2019-10-26T09:42:23Z</time>
      </trkpt>
      <trkpt lat="43.41453" lon="-0.55305">
        <ele>186.15</ele>
        <time>2019-10-26T09:42:27Z</time>
      </trkpt>
      <trkpt lat="43.41455" lon="-0.5532">
        <ele>185.19</ele>
        <time>2019-10-26T09:42:35Z</time>
      </trkpt>
      <trkpt lat="43.41454" lon="-0.5532">
        <ele>186.15</ele>
        <time>2019-10-26T09:42:56Z</time>
      </trkpt>
      <trkpt lat="43.41456" lon="-0.55336">
        <ele>184.71</ele>
        <time>2019-10-26T09:43:03Z</time>
      </trkpt>
      <trkpt lat="43.41456" lon="-0.55342">
        <ele>183.75</ele>
        <time>2019-10-26T09:43:04Z</time>
      </trkpt>
      <trkpt lat="43.41454" lon="-0.55347">
        <ele>182.79</ele>
        <time>2019-10-26T09:43:05Z</time>
      </trkpt>
      <trkpt lat="43.4145" lon="-0.55349">
        <ele>182.31</ele>
        <time>2019-10-26T09:43:06Z</time>
      </trkpt>
      <trkpt lat="43.41444" lon="-0.55348">
        <ele>181.35</ele>
        <time>2019-10-26T09:43:07Z</time>
      </trkpt>
      <trkpt lat="43.4144" lon="-0.55344">
        <ele>180.87</ele>
        <time>2019-10-26T09:43:08Z</time>
      </trkpt>
      <trkpt lat="43.41434" lon="-0.55339">
        <ele>179.42</ele>
        <time>2019-10-26T09:43:09Z</time>
      </trkpt>
      <trkpt lat="43.41418" lon="-0.55327">
        <ele>176.54</ele>
        <time>2019-10-26T09:43:11Z</time>
      </trkpt>
      <trkpt lat="43.41408" lon="-0.55324">
        <ele>175.1</ele>
        <time>2019-10-26T09:43:12Z</time>
      </trkpt>
      <trkpt lat="43.41373" lon="-0.55317">
        <ele>170.29</ele>
        <time>2019-10-26T09:43:15Z</time>
      </trkpt>
      <trkpt lat="43.41335" lon="-0.55319">
        <ele>164.52</ele>
        <time>2019-10-26T09:43:18Z</time>
      </trkpt>
      <trkpt lat="43.41322" lon="-0.55323">
        <ele>162.6</ele>
        <time>2019-10-26T09:43:19Z</time>
      </trkpt>
      <trkpt lat="43.4131" lon="-0.55329">
        <ele>160.68</ele>
        <time>2019-10-26T09:43:20Z</time>
      </trkpt>
      <trkpt lat="43.41205" lon="-0.55384">
        <ele>148.66</ele>
        <time>2019-10-26T09:43:28Z</time>
      </trkpt>
      <trkpt lat="43.41192" lon="-0.55391">
        <ele>147.7</ele>
        <time>2019-10-26T09:43:29Z</time>
      </trkpt>
      <trkpt lat="43.41179" lon="-0.554">
        <ele>146.26</ele>
        <time>2019-10-26T09:43:30Z</time>
      </trkpt>
      <trkpt lat="43.41167" lon="-0.5541">
        <ele>145.3</ele>
        <time>2019-10-26T09:43:31Z</time>
      </trkpt>
      <trkpt lat="43.41155" lon="-0.55422">
        <ele>144.34</ele>
        <time>2019-10-26T09:43:32Z</time>
      </trkpt>
      <trkpt lat="43.41065" lon="-0.55533">
        <ele>136.64</ele>
        <time>2019-10-26T09:43:41Z</time>
      </trkpt>
      <trkpt lat="43.41057" lon="-0.55547">
        <ele>136.64</ele>
        <time>2019-10-26T09:43:42Z</time>
      </trkpt>
      <trkpt lat="43.41051" lon="-0.55562">
        <ele>136.16</ele>
        <time>2019-10-26T09:43:43Z</time>
      </trkpt>
      <trkpt lat="43.41027" lon="-0.55619">
        <ele>134.72</ele>
        <time>2019-10-26T09:43:47Z</time>
      </trkpt>
      <trkpt lat="43.41019" lon="-0.55631">
        <ele>134.24</ele>
        <time>2019-10-26T09:43:48Z</time>
      </trkpt>
      <trkpt lat="43.41011" lon="-0.55639">
        <ele>133.76</ele>
        <time>2019-10-26T09:43:49Z</time>
      </trkpt>
      <trkpt lat="43.40926" lon="-0.55717">
        <ele>131.36</ele>
        <time>2019-10-26T09:43:59Z</time>
      </trkpt>
      <trkpt lat="43.40823" lon="-0.5581">
        <ele>130.88</ele>
        <time>2019-10-26T09:44:12Z</time>
      </trkpt>
      <trkpt lat="43.40807" lon="-0.55817">
        <ele>131.36</ele>
        <time>2019-10-26T09:44:14Z</time>
      </trkpt>
      <trkpt lat="43.40799" lon="-0.5582">
        <ele>131.84</ele>
        <time>2019-10-26T09:44:15Z</time>
      </trkpt>
      <trkpt lat="43.40792" lon="-0.55823">
        <ele>132.32</ele>
        <time>2019-10-26T09:44:16Z</time>
      </trkpt>
      <trkpt lat="43.40784" lon="-0.55825">
        <ele>132.32</ele>
        <time>2019-10-26T09:44:17Z</time>
      </trkpt>
      <trkpt lat="43.40777" lon="-0.55827">
        <ele>132.8</ele>
        <time>2019-10-26T09:44:18Z</time>
      </trkpt>
      <trkpt lat="43.4077" lon="-0.55829">
        <ele>132.8</ele>
        <time>2019-10-26T09:44:19Z</time>
      </trkpt>
      <trkpt lat="43.40763" lon="-0.55832">
        <ele>133.28</ele>
        <time>2019-10-26T09:44:20Z</time>
      </trkpt>
      <trkpt lat="43.40756" lon="-0.55834">
        <ele>133.76</ele>
        <time>2019-10-26T09:44:21Z</time>
      </trkpt>
      <trkpt lat="43.40749" lon="-0.55837">
        <ele>134.24</ele>
        <time>2019-10-26T09:44:22Z</time>
      </trkpt>
      <trkpt lat="43.4071" lon="-0.55859">
        <ele>137.61</ele>
        <time>2019-10-26T09:44:30Z</time>
      </trkpt>
      <trkpt lat="43.40648" lon="-0.5592">
        <ele>140.01</ele>
        <time>2019-10-26T09:44:47Z</time>
      </trkpt>
      <trkpt lat="43.40636" lon="-0.55932">
        <ele>139.53</ele>
        <time>2019-10-26T09:44:50Z</time>
      </trkpt>
      <trkpt lat="43.40563" lon="-0.56003">
        <ele>135.2</ele>
        <time>2019-10-26T09:45:04Z</time>
      </trkpt>
      <trkpt lat="43.40465" lon="-0.56066">
        <ele>131.84</ele>
        <time>2019-10-26T09:45:18Z</time>
      </trkpt>
      <trkpt lat="43.40387" lon="-0.56114">
        <ele>131.84</ele>
        <time>2019-10-26T09:45:33Z</time>
      </trkpt>
      <trkpt lat="43.40352" lon="-0.56163">
        <ele>131.84</ele>
        <time>2019-10-26T09:45:43Z</time>
      </trkpt>
      <trkpt lat="43.4035" lon="-0.56169">
        <ele>131.84</ele>
        <time>2019-10-26T09:45:44Z</time>
      </trkpt>
      <trkpt lat="43.40347" lon="-0.56175">
        <ele>131.84</ele>
        <time>2019-10-26T09:45:45Z</time>
      </trkpt>
      <trkpt lat="43.40345" lon="-0.56181">
        <ele>131.84</ele>
        <time>2019-10-26T09:45:46Z</time>
      </trkpt>
      <trkpt lat="43.40343" lon="-0.56186">
        <ele>131.84</ele>
        <time>2019-10-26T09:45:47Z</time>
      </trkpt>
      <trkpt lat="43.4034" lon="-0.56191">
        <ele>131.84</ele>
        <time>2019-10-26T09:45:48Z</time>
      </trkpt>
      <trkpt lat="43.40338" lon="-0.56196">
        <ele>132.32</ele>
        <time>2019-10-26T09:45:49Z</time>
      </trkpt>
      <trkpt lat="43.40336" lon="-0.56203">
        <ele>131.84</ele>
        <time>2019-10-26T09:45:51Z</time>
      </trkpt>
      <trkpt lat="43.40337" lon="-0.56207">
        <ele>131.36</ele>
        <time>2019-10-26T09:45:52Z</time>
      </trkpt>
      <trkpt lat="43.40337" lon="-0.56207">
        <ele>133.76</ele>
        <time>2019-10-26T09:46:04Z</time>
      </trkpt>
      <trkpt lat="43.40338" lon="-0.56208">
        <ele>134.24</ele>
        <time>2019-10-26T09:46:10Z</time>
      </trkpt>
      <trkpt lat="43.40339" lon="-0.56209">
        <ele>133.76</ele>
        <time>2019-10-26T09:46:11Z</time>
      </trkpt>
      <trkpt lat="43.40362" lon="-0.56247">
        <ele>132.8</ele>
        <time>2019-10-26T09:46:21Z</time>
      </trkpt>
      <trkpt lat="43.40393" lon="-0.56344">
        <ele>132.8</ele>
        <time>2019-10-26T09:46:36Z</time>
      </trkpt>
      <trkpt lat="43.40449" lon="-0.5643">
        <ele>133.28</ele>
        <time>2019-10-26T09:46:52Z</time>
      </trkpt>
      <trkpt lat="43.40507" lon="-0.56516">
        <ele>132.8</ele>
        <time>2019-10-26T09:47:10Z</time>
      </trkpt>
      <trkpt lat="43.40559" lon="-0.56589">
        <ele>132.32</ele>
        <time>2019-10-26T09:47:25Z</time>
      </trkpt>
      <trkpt lat="43.40579" lon="-0.56621">
        <ele>132.32</ele>
        <time>2019-10-26T09:47:32Z</time>
      </trkpt>
      <trkpt lat="43.4058" lon="-0.56626">
        <ele>132.32</ele>
        <time>2019-10-26T09:47:33Z</time>
      </trkpt>
      <trkpt lat="43.40579" lon="-0.56634">
        <ele>132.32</ele>
        <time>2019-10-26T09:47:34Z</time>
      </trkpt>
      <trkpt lat="43.40578" lon="-0.56639">
        <ele>132.32</ele>
        <time>2019-10-26T09:47:35Z</time>
      </trkpt>
      <trkpt lat="43.40576" lon="-0.56643">
        <ele>132.32</ele>
        <time>2019-10-26T09:47:36Z</time>
      </trkpt>
      <trkpt lat="43.40572" lon="-0.56648">
        <ele>131.84</ele>
        <time>2019-10-26T09:47:37Z</time>
      </trkpt>
      <trkpt lat="43.40569" lon="-0.56651">
        <ele>131.84</ele>
        <time>2019-10-26T09:47:38Z</time>
      </trkpt>
      <trkpt lat="43.40565" lon="-0.56654">
        <ele>131.36</ele>
        <time>2019-10-26T09:47:39Z</time>
      </trkpt>
      <trkpt lat="43.4056" lon="-0.56655">
        <ele>131.36</ele>
        <time>2019-10-26T09:47:40Z</time>
      </trkpt>
      <trkpt lat="43.40556" lon="-0.56657">
        <ele>131.36</ele>
        <time>2019-10-26T09:47:41Z</time>
      </trkpt>
      <trkpt lat="43.40517" lon="-0.56668">
        <ele>132.32</ele>
        <time>2019-10-26T09:47:49Z</time>
      </trkpt>
    </trkseg>
  </trk>
</gpx>